[[{"header":{"parameterUnit":"m.s-1","parameterCategory":1,"la1":30.6,"la2":29.2853,"lo1":-89.7004,"lo2":-87.6739,"dy":0.0162,"dx":0.0183,"nx":112,"ny":82,"refTime":"2024-02-24T06:00:00:Z","depth":0,"parameterNumber":2,"parameterNumberName":"U-component_of_WINDS"},"data":[0.0,0.0,0.0,0.0,0.0,0.0,0.0,0.0,0.0,0.0,0.0,0.0,0.0,0.0,0.0,0.0,0.0,0.0,0.0,0.0,0.0,0.0,0.0,0.0,0.0,0.0,0.0,0.0,0.0,0.0,0.0,0.0,0.0,0.0,0.0,0.0,0.0,0.0,0.0,0.0,0.0,0.0,0.0,0.0,0.0,0.0,0.0,0.0,0.0,0.0,0.0,0.0,0.0,0.0,0.0,0.0,0.0,0.0,0.0,0.0,0.0,0.0,0.0,0.0,0.0,0.0,0.0,0.0,0.0,0.0,0.0,0.0,0.0,0.0,0.0,0.0,0.0,0.0,0.0,0.0,0.0,0.0,0.0,0.0,0.0,0.0,0.0,0.0,0.0,0.0,-5.4141,-5.4686,-5.4991,-5.5194,-5.5194,-5.5194,-5.5194,-5.5194,0.0,0.0,0.0,0.0,0.0,0.0,0.0,0.0,0.0,0.0,0.0,0.0,0.0,0.0,0.0,0.0,0.0,0.0,0.0,0.0,0.0,0.0,0.0,0.0,0.0,0.0,0.0,0.0,0.0,0.0,0.0,0.0,0.0,0.0,0.0,0.0,0.0,0.0,0.0,0.0,0.0,0.0,0.0,0.0,0.0,0.0,0.0,0.0,0.0,0.0,0.0,0.0,0.0,0.0,0.0,0.0,0.0,0.0,0.0,0.0,0.0,0.0,0.0,0.0,0.0,0.0,0.0,0.0,0.0,0.0,0.0,0.0,0.0,0.0,0.0,0.0,0.0,0.0,0.0,0.0,0.0,0.0,0.0,0.0,0.0,0.0,0.0,0.0,0.0,0.0,0.0,0.0,0.0,0.0,0.0,0.0,0.0,0.0,0.0,0.0,0.0,0.0,0.0,0.0,-5.3829,-5.4686,-5.4803,-5.4991,-5.5194,-5.5194,-5.5194,-5.5194,0.0,0.0,0.0,0.0,0.0,0.0,0.0,0.0,0.0,0.0,0.0,0.0,0.0,0.0,0.0,0.0,0.0,0.0,0.0,0.0,0.0,0.0,0.0,0.0,0.0,0.0,0.0,0.0,0.0,0.0,0.0,0.0,0.0,0.0,0.0,0.0,0.0,0.0,0.0,0.0,0.0,0.0,0.0,0.0,0.0,0.0,0.0,0.0,0.0,0.0,0.0,0.0,0.0,0.0,0.0,0.0,0.0,0.0,0.0,0.0,0.0,0.0,0.0,0.0,0.0,0.0,0.0,0.0,0.0,0.0,0.0,0.0,0.0,0.0,0.0,0.0,0.0,0.0,0.0,0.0,0.0,0.0,0.0,0.0,0.0,0.0,0.0,0.0,0.0,0.0,0.0,0.0,0.0,0.0,0.0,0.0,0.0,0.0,0.0,0.0,0.0,0.0,0.0,-5.2516,-5.3395,-5.4245,-5.4451,-5.4656,-5.4991,-5.5093,-5.5194,-5.5194,-5.5194,0.0,0.0,0.0,0.0,0.0,0.0,0.0,0.0,0.0,0.0,0.0,0.0,0.0,0.0,0.0,0.0,0.0,0.0,0.0,0.0,0.0,0.0,0.0,0.0,0.0,0.0,0.0,0.0,0.0,0.0,0.0,0.0,0.0,0.0,0.0,0.0,0.0,0.0,0.0,0.0,0.0,0.0,0.0,0.0,0.0,0.0,0.0,0.0,0.0,0.0,0.0,0.0,0.0,0.0,0.0,0.0,0.0,0.0,0.0,0.0,0.0,0.0,0.0,0.0,0.0,0.0,0.0,0.0,0.0,0.0,0.0,0.0,0.0,0.0,0.0,0.0,0.0,0.0,0.0,0.0,0.0,0.0,0.0,0.0,0.0,0.0,0.0,0.0,0.0,0.0,0.0,0.0,0.0,0.0,0.0,0.0,0.0,0.0,0.0,0.0,0.0,0.0,-5.1962,-5.2623,-5.3591,-5.4008,-5.4333,-5.4803,-5.5093,-5.5194,-5.5194,-5.5194,0.0,0.0,0.0,0.0,0.0,0.0,0.0,0.0,0.0,0.0,0.0,0.0,0.0,0.0,0.0,0.0,0.0,0.0,0.0,0.0,0.0,0.0,0.0,0.0,0.0,0.0,0.0,0.0,0.0,0.0,0.0,0.0,0.0,0.0,0.0,0.0,0.0,0.0,0.0,0.0,0.0,0.0,0.0,0.0,0.0,0.0,0.0,0.0,0.0,0.0,0.0,0.0,0.0,0.0,0.0,0.0,0.0,0.0,0.0,0.0,0.0,0.0,0.0,0.0,0.0,0.0,0.0,0.0,0.0,0.0,0.0,0.0,0.0,0.0,0.0,0.0,0.0,0.0,0.0,0.0,0.0,0.0,0.0,0.0,0.0,0.0,0.0,0.0,0.0,0.0,0.0,0.0,0.0,0.0,0.0,0.0,0.0,0.0,0.0,0.0,0.0,0.0,-5.1196,-5.1839,-5.3064,-5.3591,-5.4126,-5.4788,-5.5093,-5.5194,-5.5194,-5.5194,0.0,0.0,0.0,0.0,0.0,0.0,0.0,0.0,0.0,0.0,0.0,0.0,0.0,0.0,0.0,0.0,0.0,0.0,0.0,0.0,0.0,0.0,0.0,0.0,0.0,0.0,0.0,0.0,0.0,0.0,0.0,0.0,0.0,0.0,0.0,0.0,0.0,0.0,0.0,0.0,0.0,0.0,0.0,0.0,0.0,0.0,0.0,0.0,0.0,0.0,0.0,0.0,0.0,0.0,0.0,0.0,0.0,0.0,0.0,0.0,0.0,0.0,0.0,0.0,0.0,0.0,0.0,0.0,0.0,0.0,0.0,0.0,0.0,0.0,0.0,0.0,0.0,0.0,0.0,0.0,0.0,0.0,0.0,0.0,0.0,0.0,0.0,0.0,0.0,0.0,0.0,0.0,0.0,0.0,0.0,0.0,0.0,0.0,0.0,0.0,0.0,0.0,-4.9315,-5.0037,-5.0968,-5.2138,-5.3113,-5.386,-5.4753,-5.5194,-5.5194,0.0,0.0,0.0,0.0,0.0,0.0,0.0,0.0,0.0,0.0,0.0,0.0,0.0,0.0,0.0,0.0,0.0,0.0,0.0,0.0,0.0,0.0,0.0,0.0,0.0,0.0,0.0,0.0,0.0,0.0,0.0,0.0,0.0,0.0,0.0,0.0,0.0,0.0,0.0,0.0,0.0,0.0,0.0,0.0,0.0,0.0,0.0,0.0,0.0,0.0,0.0,0.0,0.0,0.0,0.0,0.0,0.0,0.0,0.0,0.0,0.0,0.0,0.0,0.0,0.0,0.0,0.0,0.0,0.0,0.0,0.0,0.0,0.0,0.0,0.0,0.0,0.0,0.0,0.0,0.0,0.0,0.0,0.0,0.0,0.0,0.0,0.0,0.0,0.0,0.0,0.0,0.0,0.0,0.0,0.0,0.0,0.0,0.0,0.0,0.0,0.0,0.0,-4.7591,-4.7934,-4.8543,-4.9523,-5.0929,-5.2032,-5.2878,-5.4075,-5.4764,-5.488,0.0,0.0,0.0,0.0,0.0,0.0,0.0,0.0,0.0,0.0,0.0,0.0,0.0,0.0,0.0,0.0,0.0,0.0,0.0,0.0,0.0,0.0,0.0,0.0,0.0,0.0,0.0,0.0,0.0,0.0,0.0,0.0,0.0,0.0,0.0,0.0,0.0,0.0,0.0,0.0,0.0,0.0,0.0,0.0,0.0,0.0,0.0,0.0,0.0,0.0,0.0,0.0,0.0,0.0,0.0,0.0,0.0,0.0,0.0,0.0,0.0,0.0,0.0,0.0,0.0,0.0,0.0,0.0,0.0,0.0,0.0,0.0,0.0,0.0,0.0,0.0,0.0,0.0,0.0,0.0,0.0,0.0,0.0,0.0,0.0,0.0,0.0,0.0,0.0,0.0,0.0,0.0,0.0,0.0,0.0,0.0,0.0,0.0,0.0,0.0,0.0,0.0,-4.7208,-4.7364,-4.7864,-4.8921,-5.01,-5.106,-5.1887,-5.3077,-5.3878,0.0,0.0,0.0,0.0,0.0,0.0,0.0,0.0,0.0,0.0,0.0,0.0,0.0,0.0,0.0,0.0,0.0,0.0,0.0,0.0,0.0,0.0,0.0,0.0,0.0,0.0,0.0,0.0,0.0,0.0,0.0,0.0,0.0,0.0,0.0,0.0,0.0,0.0,0.0,0.0,0.0,0.0,0.0,0.0,0.0,0.0,0.0,0.0,0.0,0.0,0.0,0.0,0.0,0.0,0.0,0.0,0.0,0.0,0.0,0.0,0.0,0.0,0.0,0.0,0.0,0.0,0.0,0.0,0.0,0.0,0.0,0.0,0.0,0.0,0.0,0.0,0.0,0.0,0.0,0.0,0.0,0.0,0.0,0.0,0.0,0.0,0.0,0.0,0.0,0.0,0.0,0.0,0.0,0.0,0.0,0.0,0.0,0.0,0.0,0.0,0.0,0.0,0.0,-4.5195,-4.5503,-4.6104,-4.7063,-4.8548,-4.9964,-5.1031,-5.2115,-5.3173,-5.3863,0.0,0.0,0.0,0.0,0.0,0.0,0.0,0.0,0.0,0.0,0.0,0.0,0.0,0.0,0.0,0.0,0.0,0.0,0.0,0.0,0.0,0.0,0.0,0.0,0.0,0.0,0.0,0.0,0.0,0.0,0.0,0.0,0.0,0.0,0.0,0.0,0.0,0.0,0.0,0.0,0.0,0.0,0.0,0.0,0.0,0.0,0.0,0.0,0.0,0.0,0.0,0.0,0.0,0.0,0.0,0.0,0.0,0.0,0.0,0.0,0.0,0.0,0.0,0.0,0.0,0.0,0.0,0.0,0.0,0.0,0.0,0.0,0.0,0.0,0.0,0.0,0.0,0.0,0.0,0.0,0.0,0.0,0.0,0.0,0.0,0.0,0.0,0.0,0.0,0.0,0.0,0.0,0.0,0.0,0.0,0.0,0.0,0.0,0.0,0.0,0.0,0.0,-4.4358,-4.4626,-4.5114,-4.602,-4.746,-4.8728,-4.9767,-5.0944,-5.1868,-5.2679,0.0,0.0,0.0,0.0,0.0,0.0,0.0,0.0,0.0,0.0,0.0,0.0,0.0,0.0,0.0,0.0,0.0,0.0,0.0,0.0,0.0,0.0,0.0,0.0,0.0,0.0,0.0,0.0,0.0,0.0,0.0,0.0,0.0,0.0,0.0,0.0,0.0,0.0,0.0,0.0,0.0,0.0,0.0,0.0,0.0,0.0,0.0,0.0,0.0,0.0,0.0,0.0,0.0,0.0,0.0,0.0,0.0,0.0,0.0,0.0,0.0,0.0,0.0,0.0,0.0,0.0,0.0,0.0,0.0,0.0,0.0,0.0,0.0,0.0,0.0,0.0,0.0,0.0,0.0,0.0,0.0,0.0,0.0,0.0,0.0,0.0,0.0,0.0,0.0,0.0,0.0,0.0,0.0,0.0,0.0,0.0,0.0,0.0,0.0,0.0,0.0,0.0,-4.4193,-4.4194,-4.4639,-4.5488,-4.6546,-4.7596,-4.838,-4.9524,-5.0398,-5.1052,0.0,0.0,0.0,0.0,0.0,0.0,0.0,0.0,0.0,0.0,0.0,0.0,0.0,0.0,0.0,0.0,0.0,0.0,0.0,0.0,0.0,0.0,0.0,0.0,0.0,0.0,0.0,0.0,0.0,0.0,0.0,0.0,0.0,0.0,0.0,0.0,0.0,0.0,0.0,0.0,0.0,0.0,0.0,0.0,0.0,0.0,0.0,0.0,0.0,0.0,0.0,0.0,0.0,0.0,0.0,0.0,0.0,0.0,0.0,0.0,-5.2414,-5.2455,0.0,0.0,0.0,0.0,0.0,0.0,0.0,0.0,0.0,0.0,0.0,0.0,0.0,0.0,0.0,0.0,0.0,0.0,0.0,0.0,0.0,0.0,0.0,0.0,0.0,0.0,0.0,0.0,0.0,0.0,0.0,0.0,0.0,0.0,0.0,0.0,0.0,0.0,0.0,0.0,-4.3325,-4.373,-4.4313,-4.5154,-4.6204,-4.726,-4.8078,-4.8824,-4.9623,-5.074,-5.0886,0.0,0.0,0.0,0.0,0.0,0.0,0.0,0.0,0.0,0.0,0.0,0.0,0.0,0.0,0.0,0.0,0.0,0.0,0.0,0.0,0.0,0.0,0.0,0.0,0.0,0.0,0.0,0.0,0.0,0.0,0.0,0.0,0.0,0.0,0.0,0.0,0.0,0.0,0.0,0.0,0.0,0.0,0.0,0.0,0.0,0.0,0.0,0.0,0.0,0.0,0.0,0.0,0.0,0.0,0.0,0.0,0.0,0.0,0.0,-5.2831,-5.2429,0.0,0.0,0.0,0.0,0.0,0.0,0.0,0.0,0.0,0.0,0.0,0.0,0.0,0.0,0.0,0.0,0.0,0.0,0.0,0.0,0.0,0.0,0.0,0.0,0.0,0.0,0.0,0.0,0.0,0.0,0.0,0.0,0.0,0.0,0.0,0.0,0.0,0.0,0.0,0.0,-4.3011,-4.3555,-4.4107,-4.4626,-4.5795,-4.6637,-4.7246,-4.7889,-4.8737,-4.9581,-4.9795,0.0,0.0,0.0,0.0,0.0,0.0,0.0,0.0,0.0,0.0,0.0,0.0,0.0,0.0,0.0,0.0,0.0,0.0,0.0,0.0,0.0,0.0,0.0,0.0,0.0,0.0,0.0,0.0,0.0,0.0,0.0,0.0,0.0,0.0,0.0,0.0,0.0,0.0,0.0,0.0,0.0,0.0,0.0,0.0,0.0,0.0,0.0,0.0,0.0,0.0,0.0,0.0,0.0,-5.5556,-5.5653,-5.5733,-5.5344,-5.4848,-5.4311,-5.3274,-5.2487,-5.1926,-5.1757,0.0,0.0,0.0,0.0,0.0,0.0,0.0,0.0,0.0,0.0,0.0,0.0,0.0,0.0,0.0,0.0,0.0,0.0,0.0,0.0,0.0,0.0,-4.6423,-4.6449,-4.5645,-4.5105,-4.5826,0.0,0.0,0.0,0.0,0.0,0.0,0.0,0.0,0.0,0.0,0.0,-4.2974,-4.3555,-4.3997,-4.4313,-4.5274,-4.6007,-4.6323,-4.7184,-4.7903,-4.8481,-4.8795,-4.9635,0.0,0.0,0.0,0.0,0.0,0.0,0.0,0.0,0.0,0.0,0.0,0.0,0.0,0.0,0.0,0.0,0.0,0.0,0.0,0.0,0.0,0.0,0.0,0.0,0.0,0.0,0.0,0.0,0.0,0.0,0.0,0.0,-4.7205,-4.8122,0.0,0.0,0.0,0.0,0.0,0.0,0.0,0.0,0.0,0.0,0.0,0.0,0.0,-5.5115,-5.5197,-5.5765,-5.6083,-5.6162,-5.6195,-5.6149,-5.599,-5.5588,-5.4998,-5.4396,-5.364,0.0,-5.2215,-5.2063,0.0,0.0,0.0,0.0,0.0,0.0,0.0,0.0,0.0,0.0,0.0,0.0,0.0,0.0,0.0,0.0,0.0,0.0,0.0,0.0,0.0,0.0,-4.6022,-4.6035,-4.5755,-4.5528,-4.5889,-4.497,-4.4117,-4.4117,-4.366,-4.3175,0.0,0.0,0.0,0.0,0.0,0.0,-4.2974,-4.3555,-4.3997,-4.4313,-4.5059,-4.5914,-4.6323,-4.6977,-4.7699,-4.8481,-4.9009,-4.9643,-5.0618,-5.1343,0.0,0.0,0.0,0.0,0.0,0.0,0.0,0.0,0.0,0.0,0.0,0.0,0.0,0.0,0.0,0.0,0.0,0.0,0.0,0.0,0.0,0.0,0.0,0.0,0.0,0.0,0.0,0.0,0.0,-4.7129,-4.8352,-4.905,-4.9849,-5.0442,0.0,0.0,0.0,0.0,0.0,0.0,0.0,0.0,0.0,-5.4934,-5.5588,-5.6004,-5.6336,-5.643,-5.6663,-5.6877,-5.6447,-5.6228,-5.6228,-5.5393,-5.48,-5.4396,-5.3726,-5.304,-5.2503,-5.1972,-5.1509,-5.1214,0.0,0.0,0.0,0.0,-5.1214,-5.1214,-5.1214,-5.1011,-5.0807,-5.0742,0.0,0.0,0.0,0.0,0.0,0.0,0.0,-4.6977,-4.6977,-4.686,-4.6769,-4.6769,-4.6231,-4.5914,-4.6218,-4.5261,-4.4313,-4.4313,-4.3751,-4.3184,-4.3184,-4.3085,0.0,0.0,0.0,-4.2974,-4.2974,-4.3308,-4.364,-4.3738,-4.4409,-4.5059,-4.5368,-4.6126,-4.695,-4.7976,-4.8695,-4.9502,-5.0501,-5.1024,-5.1348,0.0,0.0,0.0,0.0,0.0,0.0,0.0,0.0,0.0,0.0,0.0,0.0,0.0,0.0,0.0,0.0,0.0,0.0,0.0,0.0,0.0,0.0,0.0,0.0,0.0,0.0,0.0,0.0,-4.8179,-4.9192,-4.9878,-5.0537,-5.0902,0.0,0.0,0.0,0.0,0.0,0.0,-5.4109,-5.4851,-5.5523,-5.5957,-5.6336,-5.6647,-5.6987,-5.6834,-5.6911,-5.7139,-5.6385,-5.5974,-5.6037,-5.495,-5.4364,-5.4141,-5.3449,-5.2951,-5.2518,-5.2048,-5.1587,-5.1308,-5.1308,-5.1214,-5.1214,-5.1214,-5.1214,-5.1214,-5.1214,-5.1105,-5.0902,-5.0902,-5.0442,-4.9683,-4.8994,0.0,0.0,0.0,0.0,-4.7507,-4.7507,-4.7405,-4.7301,-4.7405,-4.6873,-4.6442,-4.6637,-4.5901,-4.5046,-4.4735,-4.3958,-4.3394,-4.3394,-4.3184,0.0,-4.2974,-4.2974,-4.2974,-4.2974,-4.3184,-4.3394,-4.3394,-4.3861,-4.4313,-4.4518,-4.5368,-4.6204,-4.7452,-4.8266,-4.9291,-5.039,-5.0632,-5.0917,-5.1214,0.0,0.0,0.0,0.0,0.0,0.0,0.0,0.0,0.0,0.0,0.0,0.0,0.0,0.0,0.0,0.0,0.0,0.0,0.0,0.0,0.0,0.0,0.0,0.0,0.0,0.0,0.0,0.0,0.0,-5.039,-5.0852,0.0,0.0,0.0,0.0,-5.2667,-5.3552,-5.4428,-5.5246,-5.575,-5.6228,-5.6603,-5.6834,-5.6987,-5.6987,-5.6987,-5.6911,-5.668,-5.6037,-5.5458,-5.5001,-5.4179,-5.3608,-5.3377,-5.2652,-5.2306,-5.2306,-5.2306,-5.2033,-5.1587,-5.1587,-5.1401,-5.1214,-5.1214,-5.1214,-5.1214,-5.1214,-5.1214,-5.1214,-5.1214,-5.0647,-4.9878,-4.8895,-4.8106,0.0,0.0,-4.6887,-4.6991,-4.6991,-4.7095,-4.7405,-4.761,-4.7405,-4.7301,-4.761,-4.6963,-4.5993,-4.4938,-4.3958,-4.3394,-4.3394,0.0,-4.2974,-4.2974,-4.2974,-4.2974,-4.2974,-4.3184,-4.3394,-4.3394,-4.3764,-4.3997,-4.4313,-4.483,-4.5662,-4.6791,-4.7819,-4.8951,-5.0086,-5.0537,-5.0917,-5.1214,-5.1244,0.0,0.0,0.0,0.0,0.0,0.0,0.0,0.0,0.0,0.0,0.0,0.0,0.0,0.0,0.0,0.0,0.0,0.0,0.0,0.0,0.0,0.0,0.0,0.0,0.0,0.0,0.0,0.0,-5.0647,-5.112,0.0,-5.1494,-5.2063,-5.2608,-5.3113,-5.3954,-5.4883,-5.5701,-5.6211,-5.668,-5.7063,-5.7063,-5.6987,-5.6987,-5.643,-5.6116,-5.6037,-5.495,-5.4364,-5.4094,-5.3243,-5.2831,-5.2966,-5.2487,-5.2397,-5.2608,-5.2608,-5.2139,-5.1587,-5.1587,-5.1401,-5.1214,-5.1214,-5.1214,-5.1214,-5.1214,-5.1214,-5.112,-5.0647,-4.9975,-4.9192,-4.8481,-4.7889,-4.7405,-4.7405,-4.7405,-4.7405,-4.761,-4.761,-4.761,-4.7712,-4.7184,-4.6755,-4.6846,-4.6218,-4.5502,-4.5072,-4.4409,-4.3971,-4.3764,-4.3321,-4.2974,-4.2974,-4.2974,-4.2974,-4.2974,-4.3085,-4.3184,-4.3184,-4.3197,-4.3419,-4.3738,-4.4287,-4.5033,-4.6164,-4.7308,-4.8438,-4.9571,-5.0264,-5.0742,-5.0917,-5.112,-5.1214,0.0,0.0,0.0,0.0,0.0,0.0,0.0,0.0,0.0,0.0,0.0,0.0,0.0,0.0,0.0,0.0,0.0,0.0,0.0,0.0,0.0,0.0,0.0,0.0,0.0,-4.9766,-5.0375,-5.0713,-5.1293,-5.168,-5.1665,-5.2397,-5.3113,-5.3726,-5.4617,-5.5523,-5.6257,-5.6663,-5.6911,-5.7214,-5.6834,-5.6603,-5.643,-5.562,-5.5213,-5.5033,-5.3938,-5.3346,-5.317,-5.2382,-5.2231,-5.2518,-5.2322,-5.2427,-5.2713,-5.2608,-5.2246,-5.1695,-5.1695,-5.1509,-5.1214,-5.1214,-5.1214,-5.1214,-5.1214,-5.112,-5.0932,-5.0375,-4.9795,-4.9093,-4.838,-4.7889,-4.7405,-4.7288,-4.7288,-4.7405,-4.7494,-4.7507,-4.761,-4.761,-4.7067,-4.6546,-4.6546,-4.602,-4.5395,-4.5395,-4.4748,-4.4107,-4.3899,-4.3432,-4.2974,-4.2974,-4.2974,-4.2974,-4.2974,-4.2974,-4.2974,-4.2974,-4.2974,-4.3085,-4.3295,-4.3738,-4.4396,-4.5449,-4.6478,-4.7615,-4.8951,-4.9781,-5.0375,-5.0807,-5.1011,-5.1214,-5.1214,0.0,0.0,0.0,0.0,0.0,0.0,0.0,0.0,0.0,0.0,0.0,0.0,0.0,0.0,0.0,0.0,0.0,0.0,0.0,0.0,0.0,0.0,0.0,-4.9669,-5.0183,-5.0581,-5.0807,-5.1293,-5.1757,-5.1926,-5.28,-5.3679,-5.4396,-5.5442,-5.6336,-5.6987,-5.6987,-5.6987,-5.6987,-5.6385,-5.583,-5.5426,-5.4733,-5.4125,-5.3679,-5.3009,-5.2577,-5.2306,-5.1757,-5.1849,-5.2306,-5.2063,-5.2261,-5.2624,-5.2412,-5.2139,-5.2002,-5.2002,-5.1695,-5.1214,-5.1214,-5.1214,-5.1214,-5.1214,-5.1011,-5.0728,-5.0581,-5.0086,-4.9473,-4.8695,-4.8092,-4.7494,-4.6637,-4.6651,-4.6769,-4.6428,-4.686,-4.7198,-4.7198,-4.6991,-4.6783,-4.6783,-4.6337,-4.5914,-4.5595,-4.4639,-4.3899,-4.3899,-4.3432,-4.2974,-4.2974,-4.2974,0.0,-4.2974,-4.2974,-4.2974,-4.2974,-4.2974,-4.2974,-4.2974,-4.3295,-4.3725,-4.4613,-4.5555,-4.6687,-4.8338,-4.9262,-5.0042,-5.0807,-5.1105,-5.1214,-5.1214,0.0,0.0,0.0,0.0,0.0,0.0,0.0,0.0,0.0,0.0,0.0,0.0,0.0,0.0,0.0,0.0,0.0,0.0,0.0,0.0,0.0,-5.0235,-5.0412,-5.0522,-5.0837,-5.112,-5.1386,-5.2109,-5.2726,-5.2889,-5.3907,-5.4768,-5.5295,-5.6037,-5.6757,-5.7214,-5.7063,-5.6987,-5.6987,-5.6053,-5.5426,-5.5196,-5.397,-5.3362,-5.3186,-5.2291,-5.1849,-5.1757,-5.1494,-5.1494,-5.1757,-5.1772,-5.188,-5.217,-5.2078,-5.1972,-5.168,-5.168,-5.1494,-5.1214,-5.1214,-5.1214,-5.1214,-5.1214,-5.0947,-5.0581,-5.0294,-4.9585,-4.8695,-4.8106,-4.7377,-4.6755,-4.6428,-4.6337,-4.6231,-4.6112,-4.6126,-4.602,-4.5781,-4.5368,-4.5059,-4.5059,-4.4748,-4.4435,-4.4435,-4.3874,-4.364,-4.3899,-4.3432,-4.2974,-4.2974,-4.2974,-4.2974,-4.2974,-4.2974,-4.2974,-4.2974,-4.2974,-4.2974,-4.2974,-4.3295,-4.3738,-4.4409,-4.5274,-4.6414,-4.7847,-4.8866,-4.9946,-5.1105,-5.112,-5.1214,0.0,0.0,0.0,0.0,0.0,0.0,0.0,0.0,0.0,0.0,0.0,0.0,0.0,0.0,0.0,0.0,0.0,0.0,0.0,0.0,0.0,0.0,-5.0728,-5.0807,-5.0917,-5.1214,-5.1494,-5.1665,-5.2472,-5.3186,-5.3593,-5.4601,-5.5523,-5.5974,-5.668,-5.7139,-5.7289,-5.7139,-5.6894,-5.6586,-5.562,-5.4899,-5.4428,-5.3274,-5.2562,-5.2397,-5.1757,-5.1401,-5.1401,-5.1308,-5.1308,-5.1587,-5.1587,-5.1787,-5.2002,-5.1895,-5.1787,-5.1587,0.0,0.0,0.0,0.0,-5.112,-5.1011,-5.1011,-5.0647,-5.0183,-4.999,-4.9277,-4.8395,-4.7903,-4.7184,-4.6546,-4.602,-4.5808,-4.5595,-4.5381,-4.5274,-4.5154,-4.4938,-4.4626,-4.4313,-4.4313,-4.4107,-4.3899,-4.3899,-4.364,0.0,-4.3653,-4.3321,-4.2974,-4.2974,-4.2974,-4.2974,-4.2974,-4.2974,-4.2974,-4.2974,-4.2974,-4.2974,-4.2974,-4.3184,0.0,0.0,0.0,-4.6085,-4.8035,-4.9262,0.0,0.0,0.0,-5.1214,-5.1214,-5.1214,0.0,0.0,-5.1214,-5.1214,0.0,0.0,0.0,0.0,0.0,0.0,0.0,0.0,0.0,0.0,0.0,0.0,0.0,0.0,0.0,0.0,-5.0807,-5.0917,-5.1214,-5.1494,-5.1772,-5.1941,-5.2652,-5.3434,-5.4109,-5.5197,-5.6037,-5.6463,-5.7214,-5.7514,-5.7289,-5.7063,0.0,0.0,0.0,-5.421,-5.3377,-5.2577,-5.2033,-5.1587,-5.1308,-5.1214,-5.1214,-5.1214,-5.1308,-5.1587,-5.1587,-5.1695,-5.1895,-5.168,-5.1587,-5.1587,-5.1587,-5.1401,-5.112,-5.112,-5.1011,-5.0713,-5.0713,0.0,0.0,-4.9571,-4.898,-4.8294,-4.7801,-4.7198,-4.6455,-4.5395,-4.5072,-4.4964,-4.4313,-4.4409,-4.4505,-4.4505,-4.43,-4.4203,-4.4203,-4.3997,-4.3789,-4.3789,-4.353,-4.3394,-4.3394,-4.3184,-4.2974,-4.2974,-4.2974,-4.2974,-4.2974,-4.2974,-4.2974,-4.2974,-4.2974,0.0,-4.2974,-4.2974,-4.3209,-4.3899,-4.4626,-4.615,-4.8696,-4.9863,-5.0677,-5.1214,-5.1214,-5.1214,-5.1214,-5.1214,-5.1214,-5.1214,-5.1214,-5.1308,0.0,0.0,0.0,0.0,0.0,0.0,0.0,0.0,0.0,0.0,0.0,0.0,0.0,0.0,0.0,-5.1105,-5.112,-5.112,-5.1214,-5.1602,-5.1972,-5.2215,-5.3346,-5.438,-5.5033,-5.61,-5.6817,-5.7139,-5.7439,-5.7439,-5.7063,-5.668,-5.6211,-5.5572,-5.4449,-5.3608,-5.3113,-5.2215,-5.1665,-5.1587,-5.1308,0.0,-5.1214,-5.1214,-5.1214,-5.1308,-5.1308,-5.1308,-5.1323,-5.1308,-5.1308,-5.1308,-5.1308,-5.1105,-5.0902,-5.0902,-5.0632,-5.0168,-4.996,-4.9585,-4.8994,-4.8781,-4.8193,-4.7494,-4.7053,-4.6204,0.0,-4.4938,-4.4531,-4.4107,-4.3628,-4.3615,-4.3615,-4.3419,-4.3308,-4.3197,-4.3197,-4.3209,-4.3197,-4.3197,-4.3085,-4.3085,-4.3085,-4.2974,-4.2974,-4.2974,-4.2974,-4.2974,-4.2974,-4.2974,-4.2974,-4.2974,-4.2974,-4.2974,-4.2974,-4.2974,-4.3209,-4.3899,-4.5648,-4.7396,-4.8696,-4.9863,-5.0677,-5.1214,-5.1214,-5.1214,-5.1214,-5.1214,-5.1214,-5.1214,-5.1214,-5.1308,0.0,0.0,0.0,0.0,0.0,0.0,0.0,0.0,0.0,0.0,0.0,-5.0346,-5.0552,0.0,-5.1011,-5.1214,-5.1214,-5.1214,-5.1214,-5.1695,-5.2155,-5.2487,-5.3608,-5.4649,-5.5312,-5.6274,-5.6911,-5.6987,-5.7214,-5.7046,-5.6352,-5.6053,-5.5475,-5.4549,-5.3782,-5.3082,-5.2472,-5.1849,-5.1494,-5.1401,-5.1214,-5.1214,-5.1214,-5.1214,-5.1214,-5.1214,-5.1214,-5.112,-5.1011,-5.0742,-5.0647,-5.0647,-5.0552,-5.0552,-5.0647,-5.0346,-4.9849,-4.9262,-4.8951,-4.8338,-4.7643,-4.7541,-4.7026,-4.6296,-4.6099,-4.5462,-4.483,-4.4422,-4.3984,-4.353,-4.3295,-4.3184,-4.3184,-4.2974,-4.276,-4.2572,-4.2572,-4.2346,-4.2158,-4.2158,-4.2158,-4.2158,-4.2158,-4.2158,-4.2246,-4.2522,-4.2333,-4.2158,-4.2158,-4.2158,-4.2158,-4.2158,-4.2158,-4.2158,-4.2158,-4.2267,-4.2703,-4.3364,-4.4989,-4.6495,-4.7797,-4.8821,-4.9607,-5.0242,-5.0242,-5.0406,-5.0735,-5.0735,-5.09,-5.1214,-5.1308,-5.1587,0.0,0.0,0.0,0.0,0.0,0.0,0.0,-4.999,-5.0279,-5.0279,-5.0632,-5.0902,-5.0902,-5.1011,-5.1214,-5.1214,-5.1214,-5.1214,-5.1214,-5.1695,-5.2155,-5.2667,-5.3782,-5.4733,-5.5491,-5.6211,-5.668,-5.6603,-5.668,-5.6352,-5.5458,-5.523,-5.4549,-5.3521,-5.3009,-5.2472,-5.1849,-5.168,-5.1401,-5.1214,-5.1214,-5.1214,-5.1214,-5.1214,-5.1214,-5.112,-5.1026,-5.0837,-5.0632,-5.0168,-4.9975,-4.9878,-4.9571,-4.9571,-4.9878,-4.9571,-4.8852,-4.8021,-4.7717,-4.6998,-4.6177,-4.6072,-4.5741,-4.5195,-4.4901,-4.4552,-4.4227,-4.3592,-4.3212,-4.2966,-4.2771,-4.266,-4.266,-4.266,-4.2321,-4.1995,-4.1995,-4.1643,-4.1342,-4.1342,-4.1342,-4.1342,-4.1342,-4.1254,-4.1367,-4.1919,-4.1618,-4.1342,-4.1342,-4.1342,-4.1342,-4.1342,-4.1342,-4.1342,-4.1342,-4.1556,-4.2089,-4.2906,-4.4015,-4.5296,-4.6789,-4.7688,-4.854,-4.9164,-4.9269,-4.9523,-5.0047,-5.0047,-5.0316,-5.084,-5.1118,-5.1607,-4.4396,-4.6269,-4.8237,-4.8951,-4.9834,-5.0618,0.0,-5.0822,-5.1041,-5.1041,-5.112,-5.112,-5.112,-5.1214,-5.1214,-5.1214,-5.1214,-5.1214,-5.1214,-5.1695,-5.2246,-5.2935,-5.3938,-5.5033,-5.5861,-5.643,-5.6619,-5.6463,-5.6053,-5.5458,-5.4565,-5.4125,-5.3608,-5.2831,-5.2291,-5.1941,-5.168,-5.1401,-5.1214,-5.1214,-5.1214,-5.1214,-5.1214,-5.1214,-5.1105,-5.0807,-5.0361,-5.0183,-5.0183,-4.9571,-4.936,-4.9262,-4.8539,-4.8122,-4.792,-4.8438,-4.792,-4.6895,-4.6374,-4.5755,-4.5248,-4.4925,-4.4722,-4.4318,-4.3812,-4.3239,-4.2703,-4.222,-4.1746,-4.1517,-4.1517,-4.1517,-4.1517,-4.1517,-4.148,-4.143,-4.143,-4.1379,-4.1342,-4.1342,-4.1342,-4.1342,-4.1342,-4.0927,-4.0802,-4.1342,-4.1379,-4.1342,-4.1342,-4.1342,-4.1342,-4.1342,-4.1342,-4.1342,-4.1342,-4.1556,-4.2076,-4.2578,-4.3899,-4.5098,-4.6195,-4.7485,-4.8433,-4.8968,-4.9164,-4.9299,-4.9374,-4.9374,-4.9419,-4.9479,-4.9944,-5.0923,-4.5953,-4.7615,-4.905,-4.9571,-5.025,-5.0807,-5.0807,-5.1011,-5.1214,-5.1214,-5.1214,-5.1214,-5.1214,-5.1214,-5.1214,-5.1214,-5.1214,-5.1214,-5.1214,-5.1695,-5.2246,-5.2935,-5.3797,-5.4733,-5.5556,-5.607,-5.6149,-5.5669,-5.5312,-5.4701,-5.3624,-5.3434,-5.2905,-5.2124,-5.1849,-5.1572,-5.1401,-5.1214,-5.1214,-5.1214,-5.1214,-5.1214,-5.1214,-5.1214,-5.1026,-5.0567,-4.996,-4.9459,-4.905,-4.8223,-4.7717,-4.7499,-4.6867,-4.636,-4.6164,-4.6791,-4.6478,-4.5714,-4.4864,-4.4118,-4.354,-4.3097,-4.2779,-4.2525,-4.2296,-4.2005,-4.1751,-4.1619,-4.1449,-4.1342,-4.1342,-4.1342,-4.1342,-4.1342,-4.1091,-4.0865,-4.0865,-4.0614,-4.0388,-4.0388,-4.0388,-4.0388,-4.0388,-4.0187,-4.0111,-4.035,-4.0388,-4.0388,-4.0388,-4.0388,-4.0388,-4.0388,-4.0388,-4.0388,-4.0388,-4.0492,-4.0897,-4.1595,-4.2396,-4.3565,-4.5004,-4.6082,-4.6938,-4.7733,-4.8029,-4.8312,-4.8701,-4.8701,-4.8895,-4.9269,-4.9821,-5.0375,-4.7308,-4.8639,-4.9669,-5.0168,-5.0632,-5.0917,-5.0917,-5.1011,-5.1214,-5.1214,-5.1214,-5.1214,-5.1214,-5.1214,-5.1214,-5.1214,-5.1214,-5.1214,-5.1214,-5.1602,-5.2155,-5.2846,-5.3465,-5.4157,-5.4998,-5.5409,-5.5491,-5.4832,-5.4481,-5.3766,-5.2742,-5.2652,-5.2306,-5.1494,-5.1494,-5.1401,-5.1214,-5.1214,-5.1214,-5.1214,-5.112,-5.112,-5.112,-5.0822,-5.0456,-5.0004,-4.9079,-4.8467,-4.805,-4.6909,-4.6387,-4.6072,-4.5422,-4.4914,-4.4689,-4.4996,-4.4783,-4.4395,-4.342,-4.2703,-4.2207,-4.1802,-4.1449,-4.1317,-4.1153,-4.1116,-4.1078,-4.0927,-4.089,-4.089,-4.089,-4.089,-4.089,-4.089,-4.0576,-4.0287,-4.0287,-3.9973,-3.9697,-3.9697,-3.9697,-3.9697,-3.9697,-3.9697,-3.9697,-3.9697,-3.9697,-3.9697,-3.9697,-3.9697,-3.9697,-3.9697,-3.9697,-3.9697,-3.9697,-3.9697,-3.9993,-4.0681,-4.1285,-4.2248,-4.3829,-4.4805,-4.5656,-4.658,-4.6946,-4.7359,-4.7909,-4.7909,-4.8163,-4.873,-4.9174,-4.9437,-4.8021,-4.9262,-5.0168,-5.0618,-5.1011,-5.1214,-5.1214,-5.1214,-5.1214,-5.1214,-5.1214,-5.1214,-5.1214,-5.1214,-5.1214,-5.1214,-5.1214,-5.1214,-5.1214,-5.1401,-5.1864,-5.2667,-5.3082,-5.3521,-5.4087,-5.4481,-5.4533,-5.404,-5.3434,-5.2742,-5.1926,-5.1757,-5.1494,-5.1214,-5.1214,-5.1214,-5.1214,-5.1214,-5.1214,-5.1214,-5.0917,-5.0807,-5.0807,-4.9834,-4.9178,-4.8895,-4.7801,-4.7405,-4.7301,-4.6126,-4.5595,-4.5488,-4.4626,-4.3976,-4.3497,-4.2958,-4.2837,-4.2964,-4.2093,-4.1594,-4.1367,-4.1342,-4.1342,-4.1241,-4.0701,-4.0538,-4.0425,-3.9885,-3.9747,-3.9747,-3.9747,-3.9747,-3.9747,-3.9747,-3.9735,-3.9722,-3.9722,-3.9697,-3.9697,-3.9697,-3.9697,-3.9697,-3.9697,-3.9697,-3.9697,-3.9697,-3.9697,-3.9697,-3.9697,-3.9697,-3.9697,-3.9697,-3.9697,-3.9697,-3.9697,-3.9697,-3.9788,-4.0083,-4.087,-4.1743,-4.2792,-4.4031,-4.5081,-4.588,-4.6417,-4.6683,-4.6946,-4.6946,-4.7063,-4.7369,-4.7613,-4.7785,-4.905,-4.9849,-5.0632,-5.1011,-5.112,-5.1214,-5.1214,-5.1214,-5.1214,-5.1214,-5.1214,-5.1214,-5.1214,-5.1214,-5.1214,-5.1214,-5.1214,-5.1214,-5.1214,-5.1401,-5.1757,-5.2109,-5.2472,-5.2742,-5.3113,-5.3695,-5.3852,-5.3346,-5.2831,-5.2291,-5.1757,-5.168,-5.1494,-5.1214,-5.1214,-5.1214,-5.1214,-5.1214,-5.112,-5.0917,-5.0346,-4.996,-4.9737,-4.8838,-4.8338,-4.7948,-4.6922,-4.6204,-4.5795,-4.4843,-4.43,-4.4016,-4.322,-4.2759,-4.2506,-4.1556,-4.1279,-4.1253,-4.1077,-4.0895,-4.0727,-4.0362,-4.0249,-4.0212,-4.0023,-3.9973,-3.9936,-3.9747,-3.9697,-3.9697,-3.9697,-3.9697,-3.9697,-3.9697,-3.9697,-3.9697,-3.9697,-3.9697,-3.9697,-3.9697,-3.9697,-3.9697,-3.9697,-3.9697,-3.9697,-3.9697,-3.9697,-3.9697,-3.9697,-3.9697,-3.9697,-3.9697,-3.9697,-3.9697,-3.9697,-3.9697,-3.9788,-4.007,-4.0681,-4.1458,-4.2501,-4.3668,-4.4634,-4.5595,-4.6135,-4.6491,-4.6916,-4.6916,-4.7019,-4.7294,-4.7553,-4.7624,-4.9781,-5.0346,-5.0902,-5.112,-5.1214,-5.1214,-5.1214,-5.1214,-5.1214,-5.1214,-5.1214,-5.1214,-5.1214,-5.1214,-5.1214,-5.1214,-5.1214,-5.1214,-5.1214,-5.1308,-5.1587,-5.1757,-5.1941,-5.2124,-5.2412,-5.2742,-5.2815,-5.2652,-5.2306,-5.1849,-5.1494,-5.1494,-5.1401,-5.1214,-5.112,-5.1011,-5.1011,-5.0932,-5.0552,-5.0139,-4.9556,-4.8951,-4.8338,-4.7615,-4.7102,-4.6687,-4.5755,-4.514,-4.4722,-4.3971,-4.3526,-4.3077,-4.2393,-4.1919,-4.148,-4.0777,-4.0388,-4.0224,-4.0224,-4.0224,-4.0162,-3.981,-3.9697,-3.9697,-3.9697,-3.9697,-3.9697,-3.9697,-3.9697,-3.9697,-3.9697,-3.9697,-3.9697,-3.9697,-3.9697,-3.9697,-3.9697,-3.9697,-3.9697,-3.9697,-3.9697,-3.9697,-3.9697,-3.9697,-3.9697,-3.9697,-3.9697,-3.9697,-3.9697,-3.9581,-3.9581,-3.9581,-3.9478,-3.9478,-3.9594,-3.9581,-3.9685,-3.9981,-4.0377,-4.1071,-4.215,-4.2999,-4.3965,-4.5244,-4.558,-4.6121,-4.6756,-4.6756,-4.6946,-4.7309,-4.7467,-4.7467,-5.0294,-5.0647,-5.0902,-5.112,-5.1214,-5.1214,-5.1214,-5.1214,-5.1214,-5.1214,-5.1214,-5.1214,-5.1214,-5.1214,-5.1214,-5.1214,-5.1214,-5.1214,-5.1214,-5.1214,-5.1308,-5.1587,-5.1587,-5.1695,-5.1895,-5.1695,-5.1665,-5.1849,-5.1665,-5.1494,-5.1214,-5.1214,-5.1214,-5.1214,-5.0917,-5.0807,-5.0807,-5.0264,-4.96,-4.8795,-4.8453,-4.7717,-4.6687,-4.6177,-4.5555,-4.5033,-4.4518,-4.4203,-4.4203,-4.3628,-4.3077,-4.2498,-4.2242,-4.1455,-4.0513,-4.0488,-4.0149,-3.9697,-3.9697,-3.9697,-3.9697,-3.9697,-3.9697,-3.9697,-3.9697,-3.9697,-3.9697,-3.9697,-3.9697,-3.9697,-3.9697,-3.9697,-3.9697,-3.9697,-3.9697,-3.9697,-3.9697,-3.9697,-3.9697,-3.9697,-3.9697,-3.9697,-3.9697,-3.9697,-3.9697,-3.9697,-3.9697,-3.9697,-3.9685,-3.9478,-3.9258,-3.9258,-3.8945,-3.8945,-3.9258,-3.927,-3.9362,-3.9685,-3.9981,-4.058,-4.1597,-4.215,-4.3108,-4.469,-4.4954,-4.558,-4.6594,-4.6594,-4.6858,-4.7309,-4.7309,-4.7309,-5.0537,-5.0932,-5.112,-5.1214,-5.1214,-5.1214,-5.1214,-5.1214,-5.1214,-5.1214,-5.1214,-5.1214,-5.1214,-5.1214,-5.1214,-5.1214,-5.1214,-5.1214,-5.1214,-5.1214,-5.1214,-5.1308,-5.1308,-5.1308,-5.1416,-5.1308,-5.1308,-5.1401,-5.1308,-5.1308,-5.1214,-5.1214,-5.1214,-5.1214,-5.0917,-5.0728,-5.0581,-4.9459,-4.8539,-4.7934,-4.6998,-4.6387,-4.5901,-4.5046,-4.4626,-4.4518,-4.3848,-4.3628,-4.3628,-4.3308,-4.2758,-4.2229,-4.1706,-4.1128,-4.0463,-4.0061,-3.9823,-3.9697,-3.9697,-3.9697,-3.9697,-3.9697,-3.9697,-3.9697,-3.9697,-3.9697,-3.9697,-3.9697,-3.9697,-3.9697,-3.9697,-3.9697,-3.9697,-3.9697,-3.9697,-3.9697,-3.9697,-3.9697,-3.9697,-3.9697,-3.9697,-3.9697,-3.9697,-3.9697,-3.9697,-3.9697,-3.9697,-3.9581,-3.9478,-3.9154,-3.8841,-3.8631,-3.8514,-3.8631,-3.8945,-3.9154,-3.9362,-3.9685,-3.9981,-4.0377,-4.1097,-4.1769,-4.2736,-4.3899,-4.4569,-4.5321,-4.6314,-4.6506,-4.6858,-4.7309,-4.7309,-4.7309,-5.0917,-5.112,-5.1214,-5.1214,-5.1214,-5.1214,-5.1214,-5.1214,-5.1214,-5.1214,-5.1214,-5.1214,-5.1214,-5.1214,-5.1214,-5.1214,-5.1214,-5.1214,-5.1214,-5.1214,-5.1214,-5.1214,-5.1214,-5.1214,-5.1214,-5.1214,-5.1214,-5.1214,-5.1214,-5.1214,-5.1214,-5.1214,-5.112,-5.1011,-5.0632,-5.0042,-4.905,-4.8021,-4.7205,-4.6478,-4.5755,-4.5248,-4.4856,-4.419,-4.3861,-4.3751,-4.3406,-4.3184,-4.3159,-4.2821,-4.2296,-4.1743,-4.1191,-4.0639,-4.0124,-3.981,-3.9697,-3.9697,-3.9697,-3.9697,-3.9697,-3.9697,-3.9697,-3.9697,-3.9697,-3.9697,-3.9697,-3.9697,-3.9697,-3.9697,-3.9697,-3.9697,-3.9697,-3.9697,-3.9697,-3.9697,-3.9697,-3.9697,-3.9697,-3.9697,-3.9697,-3.9697,-3.9697,-3.9697,-3.9697,-3.9697,-3.9697,-3.9478,-3.8945,-3.8631,-3.8303,-3.8092,-3.7773,-3.7773,-3.8198,-3.8631,-3.905,-3.9478,-3.9788,-4.0185,-4.0883,-4.1385,-4.2164,-4.341,-4.3993,-4.4833,-4.6016,-4.6314,-4.6771,-4.7309,-4.7309,-4.7309,-5.112,-5.1214,-5.1214,-5.1214,-5.1214,-5.1214,-5.1214,-5.1214,-5.1214,-5.1214,-5.1214,-5.1214,-5.1214,-5.1214,-5.1214,-5.1214,-5.1214,-5.1214,-5.1214,-5.1214,-5.1214,-5.1214,-5.1214,-5.1214,-5.1214,-5.1214,-5.1214,-5.1214,-5.1214,-5.1214,-5.1214,-5.1214,-5.1026,-5.0713,-5.0154,-4.8951,-4.7102,-4.6478,-4.5861,-4.5033,-4.4722,-4.43,-4.3776,-4.353,-4.3184,-4.2974,-4.2974,-4.2974,-4.2936,-4.2384,-4.1831,-4.1171,-4.0621,-4.007,-3.9594,-3.9581,-3.9697,-3.9697,-3.9697,-3.9697,-3.9697,-3.9697,-3.9697,-3.9697,-3.9697,-3.9697,-3.9697,-3.9697,-3.9697,-3.9697,-3.9697,-3.9697,-3.9697,-3.9697,-3.9697,-3.9697,-3.9697,-3.9697,-3.9697,-3.9697,-3.9697,-3.9697,-3.9697,-3.9697,-3.9697,-3.9697,-3.9697,-3.9374,-3.8514,-3.8092,-3.7761,-3.7441,-3.6904,-3.6916,-3.7441,-3.8092,-3.8631,-3.9258,-3.9581,-3.9993,-4.0782,-4.0795,-4.1571,-4.2929,-4.3314,-4.4247,-4.5642,-4.5941,-4.6491,-4.7207,-4.7207,-4.7309,-5.1041,-5.1214,-5.1214,-5.1214,-5.1214,-5.1214,-5.1214,-5.1214,-5.1214,-5.1214,-5.1214,-5.1214,-5.1214,-5.1214,-5.1214,-5.1214,-5.1214,-5.1214,-5.1214,-5.1214,-5.1214,-5.1214,-5.1214,-5.1214,-5.1214,-5.1214,-5.1214,-5.1214,-5.1214,-5.1214,-5.1214,-5.1214,-5.0837,-4.996,-4.9149,-4.8021,-4.6583,-4.5755,-4.5033,-4.4422,-4.3848,-4.3615,-4.3517,-4.3184,-4.3085,-4.2974,-4.2974,-4.2974,-4.2936,-4.2384,-4.171,-4.0944,-4.0396,-3.9637,-3.8945,-3.927,-3.9374,-3.9374,-3.9581,-3.9697,-3.9697,-3.9697,-3.9697,-3.9697,-3.9697,-3.9697,-3.9697,-3.9697,-3.9697,-3.9697,-3.9697,-3.9697,-3.9697,-3.9697,-3.9697,-3.9697,-3.9697,-3.9697,-3.9697,-3.9697,-3.9697,-3.9697,-3.9697,-3.9697,-3.9697,-3.9697,-3.9697,-3.9374,-3.8514,-3.7962,-3.7203,-3.6243,-3.6254,-3.6483,-3.6808,-3.7761,-3.8631,-3.9258,-3.9581,-3.989,-4.0173,-4.0491,-4.0997,-4.198,-4.2555,-4.3586,-4.4883,-4.5384,-4.6121,-4.6931,-4.6931,-4.7106,-5.0822,-5.1011,-5.1011,-5.1214,-5.112,-5.1011,-5.1011,-5.0932,-5.0852,-5.1011,-5.1011,-5.1011,-5.1214,-5.1214,-5.1214,-5.1214,-5.1214,-5.1214,-5.1214,-5.1214,-5.1214,-5.1214,-5.1214,-5.1214,-5.1214,-5.1214,-5.1214,-5.1214,-5.1214,-5.1214,-5.1214,-5.0837,-5.0154,-4.905,-4.792,-4.6791,-4.5555,-4.4696,-4.4068,-4.3653,-4.3295,-4.3184,-4.3184,-4.3085,-4.2974,-4.2974,-4.2974,-4.2811,-4.2509,-4.1957,-4.1297,-4.0413,-3.9867,-3.9284,-3.8841,-3.8945,-3.9154,-3.9374,-3.9478,-3.9581,-3.9697,-3.9697,-3.9697,-3.9697,-3.9697,-3.9697,-3.9697,-3.9697,-3.9697,-3.9697,-3.9697,-3.9697,-3.9697,-3.9697,-3.9697,-3.9697,-3.9697,-3.9697,-3.9697,-3.9697,-3.9697,-3.9697,-3.9697,-3.9697,-3.9697,-3.9697,-3.9697,-3.9374,-3.8303,-3.7643,-3.6869,-3.5916,-3.5829,-3.6059,-3.6483,-3.7358,-3.8327,-3.905,-3.9374,-3.9672,-4.007,-4.0185,-4.0694,-4.1511,-4.198,-4.2929,-4.434,-4.4727,-4.5475,-4.6565,-4.6565,-4.6756,-5.0537,-5.0728,-5.0837,-5.1041,-5.0932,-5.0728,-5.0728,-5.0567,-5.0581,-5.0728,-5.0807,-5.0902,-5.112,-5.1214,-5.1214,-5.1214,-5.1214,-5.1214,-5.1214,-5.1214,-5.1214,-5.1214,-5.1214,-5.1214,-5.1214,-5.1214,-5.1214,-5.112,-5.1026,-5.1026,-5.112,-5.0456,-4.9473,-4.8338,-4.6998,-4.5755,-4.4626,-4.3835,-4.3295,-4.2974,-4.2974,-4.2974,-4.2974,-4.2974,-4.2974,-4.2974,-4.2974,-4.2672,-4.2108,-4.1568,-4.0802,-3.9922,-3.9377,-3.8945,-3.8631,-3.8736,-3.8945,-3.9154,-3.927,-3.9478,-3.9697,-3.9697,-3.9697,-3.9697,-3.9697,-3.9697,-3.9697,-3.9697,-3.9697,-3.9697,-3.9697,-3.9697,-3.9697,-3.9697,-3.9697,-3.9697,-3.9697,-3.9697,-3.9697,-3.9697,-3.9697,-3.9697,-3.9697,-3.9697,-3.9697,-3.9697,-3.9697,-3.927,-3.8198,-3.7418,-3.6773,-3.5708,-3.5511,-3.5632,-3.6157,-3.7047,-3.7904,-3.8736,-3.9154,-3.9465,-3.9981,-3.9981,-4.0389,-4.101,-4.1298,-4.2164,-4.3586,-4.3885,-4.4727,-4.5927,-4.6031,-4.6388,-4.996,-5.039,-5.0486,-5.0596,-5.0596,-5.0486,-5.0486,-5.0501,-5.0581,-5.0728,-5.0807,-5.0902,-5.112,-5.1214,-5.1214,-5.1214,-5.1214,-5.1214,-5.1214,-5.1214,-5.1214,-5.1214,-5.1214,-5.1214,-5.1214,-5.1214,-5.112,-5.0902,-5.0456,-5.0361,-5.0807,-5.0154,-4.9262,-4.8021,-4.6791,-4.5449,-4.4313,-4.3738,-4.3295,-4.2974,-4.2974,-4.2974,-4.2974,-4.2974,-4.2974,-4.2974,-4.2974,-4.2672,-4.2108,-4.1568,-4.0694,-3.9627,-3.9062,-3.8514,-3.8092,-3.8303,-3.8631,-3.8841,-3.9154,-3.9478,-3.9697,-3.9697,-3.9697,-3.9697,-3.9697,-3.9697,-3.9697,-3.9697,-3.9697,-3.9697,-3.9697,-3.9697,-3.9697,-3.9697,-3.9697,-3.9697,-3.9697,-3.9697,-3.9697,-3.9697,-3.9697,-3.9697,-3.9697,-3.9697,-3.9697,-3.9697,-3.9697,-3.927,-3.8198,-3.7418,-3.6557,-3.5202,-3.5312,-3.5511,-3.5806,-3.6928,-3.7904,-3.8736,-3.9154,-3.9478,-3.9685,-3.9685,-3.989,-4.0173,-4.0491,-4.1185,-4.2222,-4.2736,-4.3681,-4.5173,-4.5475,-4.6031,-4.8838,-4.9375,-4.981,-4.999,-4.9892,-4.981,-4.981,-4.981,-4.9892,-5.0264,-5.0552,-5.0757,-5.1135,-5.1214,-5.1214,-5.1214,0.0,0.0,-5.1214,-5.1214,-5.1214,-5.1214,-5.1214,-5.1214,-5.1214,-5.1011,-5.0728,-5.0154,-4.9863,-4.9459,-4.912,-4.8838,-4.8122,-4.6895,-4.5755,-4.4709,-4.3738,-4.3406,-4.3085,-4.2974,-4.2974,-4.2974,-4.2974,-4.2974,-4.2974,-4.2961,-4.2622,-4.217,-4.1618,-4.1065,-4.0302,-3.9371,-3.8927,-3.8514,-3.8198,-3.8198,-3.8409,-3.8841,-3.8945,-3.927,-3.9697,-3.9697,-3.9697,-3.9697,-3.9697,-3.9697,-3.9697,-3.9697,-3.9697,-3.9697,-3.9697,-3.9697,-3.9697,-3.9697,-3.9697,-3.9697,-3.9697,-3.9697,-3.9697,-3.9697,-3.9697,-3.9697,-3.9697,-3.9581,-3.9478,-3.9478,-3.9154,-3.8514,-3.7548,-3.6785,-3.5795,-3.4491,-3.4858,-3.5301,-3.5598,-3.6483,-3.7465,-3.8526,-3.8841,-3.9166,-3.9697,-3.9697,-3.9788,-4.007,-4.0185,-4.0782,-4.1769,-4.2164,-4.3122,-4.4434,-4.4847,-4.5595,-4.7847,-4.8481,-4.8994,-4.9079,-4.8994,-4.8895,-4.8895,-4.9108,-4.9404,-4.999,-5.0294,-5.0581,-5.1026,-5.112,-5.1026,0.0,0.0,-5.1026,-5.1041,-5.1026,-5.1026,-5.1041,-5.0947,-5.0947,-5.0947,-5.0632,-5.0042,-4.936,-4.8852,-4.8223,-4.741,-4.7205,-4.6687,-4.5847,-4.5033,-4.4177,-4.3394,-4.3073,-4.2974,-4.2974,-4.2862,-4.2862,-4.2862,-4.2762,-4.2762,-4.2837,-4.2286,-4.1735,-4.1304,-4.0752,-4.0082,-3.927,-3.9062,-3.8761,-3.8445,-3.827,-3.853,-3.8976,-3.8995,-3.927,-3.9697,-3.9697,-3.9697,-3.9697,-3.9697,-3.9697,-3.9697,-3.9697,-3.9697,-3.9697,-3.9697,-3.9697,-3.9697,-3.9697,-3.9697,-3.9697,-3.9697,-3.9697,-3.9697,-3.9697,-3.9697,-3.9697,-3.9697,-3.9478,-3.927,-3.9166,-3.8631,-3.7974,-3.7012,-3.6134,-3.5135,-3.3909,-3.4278,-3.4747,-3.5256,-3.6036,-3.7131,-3.8303,-3.8631,-3.905,-3.9697,-3.9697,-3.9788,-3.9981,-3.9981,-4.0377,-4.1185,-4.1683,-4.2444,-4.3681,-4.4383,-4.5413,-4.7067,-4.7685,-4.8078,-4.7759,-4.7875,-4.8078,-4.8078,-4.8495,-4.9093,-4.9892,-5.0294,-5.0581,-5.0728,-5.0807,-5.0728,-5.0501,0.0,0.0,-5.0501,-5.0647,-5.0728,-5.0486,-5.0501,-5.0501,-5.0501,-4.9766,-4.905,-4.8438,-4.741,-4.6583,-4.6072,-4.5248,-4.4912,-4.5502,-4.4709,-4.3971,-4.3394,-4.3073,-4.2974,-4.2974,-4.2638,-4.2525,-4.2525,-4.2211,-4.2199,-4.2488,-4.1941,-4.1504,-4.1304,-4.0752,-4.0082,-3.927,-3.9308,-3.9124,-3.8846,-3.877,-3.901,-3.9283,-3.9303,-3.9503,-3.9697,-3.9697,-3.9697,-3.9697,-3.9697,-3.9697,-3.9697,-3.9697,-3.9697,-3.9697,-3.9697,-3.9697,-3.9697,-3.9697,-3.9697,-3.9697,-3.9697,-3.9697,-3.9697,-3.9697,-3.9697,-3.9697,-3.9697,-3.9478,-3.9154,-3.8841,-3.8303,-3.7548,-3.634,-3.5697,-3.4803,-3.3233,-3.3378,-3.3942,-3.4803,-3.5806,-3.6916,-3.8303,-3.8631,-3.905,-3.9697,-3.9697,-3.9697,-3.9697,-3.9697,-3.989,-4.007,-4.0971,-4.1842,-4.2889,-4.4153,-4.5656,-4.5675,-4.6323,-4.6832,-4.6637,-4.6637,-4.6637,-4.6637,-4.7129,-4.7731,-4.8539,-4.9262,-4.9766,-4.996,-5.0168,-5.0264,-4.9975,0.0,0.0,-4.9975,-4.9863,-4.9752,-4.9669,-4.9444,-4.9233,-4.8852,-4.8438,-4.7717,-4.6791,-4.6296,-4.5675,-4.483,-4.4626,-4.4409,-4.4396,-4.3958,-4.3517,-4.3073,-4.3085,-4.2974,-4.2974,-4.2638,-4.2525,-4.2525,-4.2211,-4.2199,-4.2476,-4.1556,-4.1168,-4.1266,-4.0337,-3.9848,-3.9594,-3.9411,-3.9258,-3.9092,-3.889,-3.9013,-3.9334,-3.934,-3.9461,-3.9697,-3.9697,-3.9697,-3.9697,-3.9697,-3.9697,-3.9697,-3.9697,-3.9697,-3.9697,-3.9697,-3.9697,-3.9697,-3.9697,-3.9697,-3.9697,-3.9697,-3.9697,-3.9697,-3.9697,-3.9697,-3.9697,-3.9697,-3.927,-3.8841,-3.8514,-3.756,-3.6472,-3.5466,-3.4458,-3.3459,-3.2561,-3.2799,-3.3367,-3.4235,-3.5356,-3.658,-3.7974,-3.8526,-3.905,-3.9697,-3.9697,-3.9697,-3.9697,-3.9697,-3.9788,-4.007,-4.087,-4.2222,-4.4153,-4.5003,-4.6121,-4.4722,-4.5261,-4.5688,-4.5381,-4.5475,-4.5582,-4.5688,-4.6085,-4.6791,-4.7615,-4.8338,-4.8852,-4.9178,-4.9375,-4.9389,-4.898,-4.9079,-4.9178,-4.8852,-4.8753,-4.8738,-4.8539,-4.831,-4.8007,-4.741,-4.7205,-4.6583,-4.5555,-4.5154,-4.4639,-4.3971,-4.3861,-4.3764,-4.3555,-4.3419,-4.3295,-4.2974,-4.2974,-4.2974,-4.2974,-4.24,-4.2174,-4.2174,-4.1618,-4.1509,-4.1604,-4.0942,-4.0666,0.0,-4.0061,-3.9697,-3.9697,-3.9503,-3.9453,-3.939,-3.9245,-3.932,-3.9499,-3.9499,-3.9553,-3.9697,-3.9697,-3.9697,-3.9697,-3.9697,-3.9697,-3.9697,-3.9697,-3.9697,-3.9697,-3.9697,-3.9697,-3.9697,-3.9697,-3.9697,-3.9697,-3.9697,-3.9697,-3.9697,-3.9697,-3.9697,-3.9697,-3.9697,-3.9166,-3.8631,-3.8303,-3.7012,-3.5708,-3.4681,-3.3572,-3.2675,-3.2113,-3.2571,-3.3233,-3.4134,-3.5245,-3.6569,-3.8092,-3.8631,-3.9154,-3.9697,-3.9697,-3.9697,-3.9697,-3.9697,-3.9788,-4.007,-4.1246,-4.2889,-4.4911,-4.5656,-4.6476,0.0,-4.4409,-4.4626,-4.43,-4.4409,-4.4722,-4.4925,-4.5449,0.0,-4.7205,-4.7615,-4.7934,-4.8266,-4.838,-4.8179,-4.7657,-4.7976,-4.8064,-4.7205,-4.7513,-4.7615,-4.7102,-4.6998,-4.6791,-4.6269,-4.6072,-4.5555,-4.4722,-4.4094,-4.3764,-4.3394,-4.3184,-4.2974,-4.2974,-4.3295,-4.3295,-4.2974,-4.2974,-4.2974,-4.2974,-4.2061,-4.1606,-4.148,-4.0571,-4.0183,-4.0367,-4.0023,-4.0035,-4.0053,-3.9819,-3.9697,-3.9697,-3.9697,-3.9697,-3.9697,-3.9697,-3.9697,-3.9697,-3.9697,-3.9697,-3.9697,-3.9697,-3.9697,-3.9697,-3.9697,-3.9697,-3.9697,-3.9697,-3.9697,-3.9697,-3.9697,-3.9697,-3.9697,-3.9697,-3.9697,-3.9697,-3.9697,-3.9697,-3.9697,-3.9697,-3.9697,-3.9697,-3.9697,-3.9166,-3.8631,-3.8092,-3.6677,-3.5356,-3.4123,-3.3243,-3.2467,-3.1903,-3.2675,-3.3572,-3.4591,-3.5576,-3.6893,-3.8303,-3.8945,-3.9374,-3.9697,-3.9697,-3.9697,-3.9697,-3.9697,-3.989,-4.0173,-4.1914,-4.364,-4.5173,-4.5837,-4.658,-4.3308,0.0,-4.3984,-4.3738,-4.3615,-4.3725,0.0,-4.4068,-4.4626,-4.5248,-4.5966,-4.6492,-4.6519,-4.6936,-4.704,-4.6533,-4.6533,-4.6401,-4.5939,-4.5847,-4.5648,-4.5342,-4.5235,-4.514,-4.483,-4.4722,-4.4396,-4.3725,-4.3628,-4.3406,-4.3085,-4.2974,-4.2974,-4.2974,-4.3085,-4.3085,-4.2974,-4.2974,-4.2974,-4.2974,-4.2061,-4.1492,-4.1148,-4.0339,-3.9941,-3.9992,-3.969,-3.9782,-4.0108,-3.9765,-3.9697,-3.9697,-3.9697,-3.9697,-3.9697,-3.9697,-3.9697,-3.9697,-3.9697,-3.9697,-3.9697,-3.9697,-3.9697,-3.9697,-3.9697,-3.9697,-3.9697,-3.9697,-3.9697,-3.9697,-3.9697,-3.9697,-3.9697,-3.9697,-3.9697,-3.9697,-3.9697,-3.9697,-3.9697,-3.9697,-3.9697,-3.9697,-3.9697,-3.9166,-3.8514,-3.7749,-3.6449,-3.4925,-3.3459,-3.2799,-3.2363,-3.2113,-3.3119,-3.4346,-3.5685,-3.6254,-3.712,-3.8303,-3.8945,-3.9374,-3.9697,-3.9697,-3.9697,-3.9697,-3.989,-4.0478,-4.1298,-4.2319,-4.3654,-4.5398,-4.5941,-4.658,-4.2974,-4.3209,-4.3432,-4.3308,-4.3184,-4.3295,-4.3394,-4.3517,-4.3861,-4.4409,-4.4938,-4.5248,-4.5368,-4.5675,-4.5675,-4.5274,-4.5368,-4.5261,-4.5006,-4.4722,-4.4518,-4.4313,-4.4313,-4.4203,-4.3971,-4.3861,-4.3738,-4.3295,-4.3184,-4.3184,-4.2974,-4.2974,-4.2974,-4.2974,-4.2974,-4.2974,-4.2974,-4.2974,-4.2974,-4.2974,-4.1948,-4.1263,-4.0906,-3.9861,-3.9163,-3.8882,-3.9137,-3.932,-3.932,-3.9615,-3.9697,-3.9697,-3.9697,-3.9697,-3.9697,-3.9697,-3.9697,-3.9697,-3.9697,-3.9697,-3.9697,-3.9697,-3.9697,-3.9697,-3.9697,-3.9697,-3.9697,-3.9697,-3.9697,-3.9697,-3.9697,-3.9697,-3.9697,-3.9697,-3.9697,-3.9697,-3.9697,-3.9697,-3.9697,-3.9697,-3.9697,-3.9697,-3.9581,-3.905,-3.8303,-3.7322,-3.5904,-3.458,-3.3233,-3.2571,-3.2352,-3.2561,-3.3674,-3.4902,-3.6352,-3.712,-3.788,-3.8736,-3.9258,-3.9581,-3.9685,-3.9697,-3.9788,-3.989,-4.0478,-4.1285,-4.2052,-4.3081,-4.4326,-4.5671,-4.621,-4.6844,-4.2974,-4.2974,-4.2974,-4.2974,-4.2974,-4.3085,-4.3295,-4.3283,-4.3517,-4.3984,-4.4094,-4.419,-4.4505,-4.4505,-4.4518,-4.419,-4.43,-4.4409,-4.4094,-4.3887,-4.3789,-4.3789,-4.3789,-4.3653,-4.3394,-4.3283,-4.3295,-4.2974,-4.2974,-4.2974,-4.2974,-4.2974,-4.2974,-4.2974,-4.2974,-4.2974,-4.2974,-4.2974,-4.2974,-4.2974,-4.172,-4.0906,-4.0559,-3.9251,-3.8241,-3.7644,-3.847,-3.8599,-3.8416,-3.9324,-3.9672,-3.9697,-3.9697,-3.9697,-3.9697,-3.9697,-3.9697,-3.9697,-3.9697,-3.9697,-3.9697,-3.9697,-3.9697,-3.9697,-3.9697,-3.9697,-3.9697,-3.9697,-3.9697,-3.9697,-3.9697,-3.9697,-3.9697,-3.9697,-3.9697,-3.9697,-3.9697,-3.9697,-3.9697,-3.9697,-3.9697,-3.9581,-3.9374,-3.8736,-3.7986,-3.6796,-3.5367,-3.4134,-3.3119,-3.2561,-3.2561,-3.3119,-3.4346,-3.5576,-3.6808,-3.788,-3.8736,-3.9374,-3.9581,-3.9697,-3.9697,-3.9685,-3.989,-4.0185,-4.1185,-4.1967,-4.2514,-4.4031,-4.5067,-4.5837,-4.6565,-4.7019,-4.2974,-4.2974,-4.2974,-4.2974,-4.2974,-4.2974,-4.3085,-4.3085,-4.3085,-4.3197,-4.3406,-4.3504,-4.3615,-4.3861,-4.3887,-4.3628,-4.3406,-4.3197,-4.3209,-4.3197,-4.3098,-4.3098,-4.3098,-4.3085,-4.3085,-4.3085,-4.3085,-4.2974,-4.2974,-4.2974,-4.2974,-4.2974,-4.2974,-4.2974,-4.2974,-4.2974,-4.2974,-4.2974,-4.2974,-4.2974,-4.172,-4.0779,-4.0176,-3.8664,-3.782,-3.7365,-3.7655,-3.7985,-3.84,-3.9092,-3.9506,-3.9697,-3.9697,-3.9697,-3.9697,-3.9697,-3.9697,-3.9697,-3.9697,-3.9697,-3.9697,-3.9697,-3.9697,-3.9697,-3.9697,-3.9697,-3.9697,-3.9697,-3.9697,-3.9697,-3.9697,-3.9697,-3.9697,-3.9697,-3.9697,-3.9697,-3.9697,-3.9697,-3.9697,-3.9697,-3.9697,-3.9581,-3.9374,-3.8619,-3.7655,-3.646,-3.5013,-3.3797,-3.2913,-3.2685,-3.2903,-3.3786,-3.5124,-3.6449,-3.7667,-3.8619,-3.9258,-3.9581,-3.9697,-3.9697,-3.9697,-3.9878,-4.0185,-4.0402,-4.1298,-4.2164,-4.3108,-4.4139,-4.5173,-4.6121,-4.6653,-4.7019,-4.2974,-4.2974,-4.2974,-4.2974,-4.2974,-4.2974,-4.2974,-4.2974,-4.2974,-4.2974,-4.3085,-4.3184,-4.3184,-4.3308,-4.3321,-4.3184,-4.3085,-4.2974,-4.2974,-4.2974,-4.2974,-4.2974,-4.2974,-4.2974,-4.2974,-4.2974,-4.2974,-4.2974,-4.2974,-4.2974,-4.2974,-4.2974,-4.2974,-4.2974,-4.2974,-4.2974,-4.2974,-4.2974,-4.2974,-4.2974,-4.172,-4.0834,-4.0103,-3.8388,-3.7284,-3.6848,-3.7107,-3.7485,-3.795,-3.8926,-3.9494,-3.9697,-3.9697,-3.9697,-3.9697,-3.9697,-3.9697,-3.9697,-3.9697,-3.9697,-3.9697,-3.9697,-3.9697,-3.9697,-3.9697,-3.9697,-3.9697,-3.9697,-3.9697,-3.9697,-3.9697,-3.9697,-3.9697,-3.9697,-3.9697,-3.9697,-3.9697,-3.9697,-3.9697,-3.9697,-3.9697,-3.9581,-3.9166,-3.8291,-3.7311,-3.6025,-3.4458,-3.3356,-3.282,-3.281,-3.3346,-3.4346,-3.5795,-3.712,-3.8092,-3.8828,-3.9362,-3.9685,-3.9697,-3.9697,-3.9697,-4.0096,-4.0389,-4.0694,-4.1796,-4.2763,-4.36,-4.4712,-4.5642,-4.6403,-4.6931,-4.7207,-4.2974,-4.2974,-4.2974,-4.2974,-4.2974,-4.2974,-4.2974,-4.2974,-4.2974,-4.2974,-4.2974,-4.2974,-4.2974,-4.2974,-4.2974,-4.2974,-4.2974,-4.2974,-4.2974,-4.2974,-4.2974,-4.2974,-4.2974,-4.2974,-4.2974,-4.2974,-4.2974,-4.2974,-4.2974,-4.2974,-4.2974,-4.2974,-4.2974,-4.2974,-4.2974,-4.2974,-4.2974,-4.2974,-4.2974,-4.2974,-4.1684,-4.0739,-4.018,-3.7938,-3.6785,-3.6456,-3.6535,-3.6894,-3.7582,-3.862,-3.934,-3.9697,-3.9697,-3.9697,-3.9697,-3.9697,-3.9697,-3.9697,-3.9697,-3.9697,-3.9697,-3.9697,-3.9697,-3.9697,-3.9697,-3.9697,-3.9697,-3.9697,-3.9697,-3.9697,-3.9697,-3.9697,-3.9697,-3.9697,-3.9697,-3.9697,-3.9697,-3.9697,-3.9697,-3.9697,-3.9697,-3.9478,-3.8945,-3.8068,-3.6977,-3.5587,-3.4022,-3.2913,-3.2727,-3.2924,-3.3459,-3.4792,-3.6134,-3.7453,-3.8514,-3.905,-3.9478,-3.9697,-3.9697,-3.9697,-3.9697,-4.0198,-4.0593,-4.0883,-4.2177,-4.3245,-4.3979,-4.5187,-4.6121,-4.6594,-4.7033,-4.7309,-4.2974,-4.2974,-4.2974,-4.2974,-4.2974,-4.2974,-4.2974,-4.2974,-4.2974,-4.2974,-4.2974,-4.2974,-4.2974,-4.2974,-4.2974,-4.2974,-4.2974,-4.2974,-4.2974,-4.2974,-4.2974,-4.2974,-4.2974,-4.2974,-4.2974,-4.2974,-4.2974,-4.2974,-4.2974,-4.2974,-4.2974,-4.2974,-4.2974,-4.2974,-4.2974,-4.2974,-4.2974,-4.2974,-4.2974,-4.2974,-4.1675,-4.0745,-4.0053,-3.7423,-3.6318,-3.6381,-3.5528,-3.6109,-3.757,-3.8228,-3.8972,-3.9697,-3.9697,-3.9697,-3.9697,-3.9697,-3.9697,-3.9697,-3.9697,-3.9697,-3.9697,-3.9697,-3.9697,-3.9697,-3.9697,-3.9697,-3.9697,-3.9697,-3.9697,-3.9697,-3.9697,-3.9697,-3.9697,-3.9697,-3.9697,-3.9697,-3.9697,-3.9697,-3.9697,-3.9697,-3.9697,-3.9478,-3.8945,-3.7856,-3.6762,-3.5587,-3.392,-3.2696,-3.2727,-3.2706,-3.3243,-3.4692,-3.6025,-3.7453,-3.905,-3.9478,-3.9697,-3.9697,-3.9697,-3.9697,-3.9697,-3.9981,-4.0377,-4.0883,-4.1967,-4.3026,-4.3979,-4.5187,-4.6121,-4.6594,-4.7033,-4.7309,-4.2974,-4.2974,-4.2974,-4.2974,-4.2974,-4.2974,-4.2974,-4.2974,-4.2974,-4.2974,-4.2974,-4.2974,-4.2974,-4.2974,-4.2974,-4.2974,-4.2974,-4.2974,-4.2974,-4.2974,-4.2974,-4.2974,-4.2974,-4.2974,-4.2974,-4.2974,-4.2974,-4.2974,-4.2974,-4.2974,-4.2974,-4.2974,-4.2974,-4.2974,-4.2974,-4.2974,-4.2974,-4.2974,-4.2974,-4.2974,-4.1975,-4.1003,-4.0093,-3.7556,-3.6328,-3.6145,-3.5483,-3.6033,-3.7321,-3.8258,-3.9022,-3.9697,-3.9697,-3.9697,-3.9697,-3.9697,-3.9697,-3.9697,-3.9697,-3.9697,-3.9697,-3.9697,-3.9697,-3.9697,-3.9697,-3.9697,-3.9697,-3.9697,-3.9697,-3.9697,-3.9697,-3.9697,-3.9697,-3.9697,-3.9697,-3.9697,-3.9697,-3.9697,-3.9697,-3.9697,-3.9581,-3.927,-3.8631,-3.7655,-3.646,-3.5245,-3.3695,-3.2696,-3.2727,-3.2706,-3.3243,-3.4692,-3.6557,-3.8198,-3.9258,-3.9594,-3.9697,-3.9697,-3.9697,-3.9697,-3.9697,-3.9981,-4.0377,-4.0883,-4.1782,-4.2833,-4.3979,-4.511,-4.5956,-4.6594,-4.7033,-4.7309,-4.2974,-4.2974,-4.2974,-4.2974,-4.2974,-4.2974,-4.2974,-4.2974,-4.2974,-4.2974,-4.2974,-4.2974,-4.2974,-4.2974,-4.2974,-4.2974,-4.2974,-4.2974,-4.2974,-4.2974,-4.2974,-4.2974,-4.2974,-4.2974,-4.2974,-4.2974,-4.2974,-4.2974,-4.2974,-4.2974,-4.2974,-4.2974,-4.2974,-4.2974,-4.2936,-4.2799,-4.2799,-4.2762,-4.2762,-4.2799,-4.2014,-4.1108,-4.025,-3.7646,-3.6424,-3.6291,-3.5566,-3.6033,-3.7345,-3.8282,-3.9125,-3.9697,-3.9697,-3.9697,-3.9697,-3.9697,-3.9697,-3.9697,-3.9697,-3.9697,-3.9697,-3.9697,-3.9697,-3.9697,-3.9697,-3.9697,-3.9697,-3.9697,-3.9697,-3.9697,-3.9697,-3.9697,-3.9697,-3.9697,-3.9697,-3.9697,-3.9697,-3.9697,-3.9697,-3.9581,-3.9374,-3.8945,-3.8303,-3.7227,-3.6025,-3.4803,-3.3459,-3.2467,-3.2373,-3.2363,-3.3016,-3.458,-3.6665,-3.8092,-3.8724,-3.9258,-3.9581,-3.9581,-3.9697,-3.9697,-3.9697,-3.989,-4.0185,-4.0795,-4.1584,-4.2555,-4.3885,-4.494,-4.5866,-4.6594,-4.7033,-4.7309,-4.2974,-4.2974,-4.2974,-4.2974,-4.2974,-4.2974,-4.2974,-4.2974,-4.2974,-4.2974,-4.2974,-4.2974,-4.2974,-4.2974,-4.2974,-4.2974,-4.2974,-4.2974,-4.2974,-4.2974,-4.2974,-4.2974,-4.2974,-4.2974,-4.2974,-4.2974,-4.2974,-4.2974,-4.2974,-4.2974,-4.2974,-4.2974,-4.2974,-4.2974,-4.2613,-4.255,-4.255,-4.2215,-4.2215,-4.255,-4.1855,-4.1286,-4.0619,-3.7736,-3.6631,-3.6825,-3.5445,-3.595,-3.757,-3.8112,-3.896,-3.9697,-3.9697,-3.9697,-3.9697,-3.9697,-3.9697,-3.9697,-3.9697,-3.9697,-3.9697,-3.9697,-3.9697,-3.9697,-3.9697,-3.9697,-3.9697,-3.9697,-3.9697,-3.9697,-3.9697,-3.9697,-3.9697,-3.9697,-3.9697,-3.9697,-3.9697,-3.9697,-3.9581,-3.9362,-3.905,-3.8514,-3.7773,-3.6569,-3.5356,-3.4123,-3.3006,-3.2123,-3.1787,-3.1787,-3.2457,-3.4256,-3.5806,-3.6916,-3.7548,-3.8619,-3.9258,-3.9258,-3.9581,-3.9697,-3.9697,-3.9697,-3.9993,-4.0504,-4.1298,-4.236,-4.36,-4.4833,-4.5866,-4.6594,-4.7033,-4.7309,-4.2974,-4.2974,-4.2974,-4.2974,-4.2974,-4.2974,-4.2974,-4.2974,-4.2974,-4.2974,-4.2974,-4.2974,-4.2974,-4.2974,-4.2974,-4.2974,-4.2974,-4.2974,-4.2974,-4.2974,-4.2974,-4.2974,-4.2974,-4.2974,-4.2974,-4.2974,-4.2974,-4.2974,-4.2974,-4.2974,-4.2974,-4.2974,-4.2974,-4.2974,-4.2613,-4.2526,-4.2487,-4.2263,-4.2289,-4.255,-4.1855,-4.1382,-4.0884,-3.8741,-3.7729,-3.7448,-3.6794,-3.6925,-3.7926,-3.8926,-3.9494,-3.9697,-3.9697,-3.9697,-3.9697,-3.9697,-3.9697,-3.9697,-3.9697,-3.9697,-3.9697,-3.9697,-3.9697,-3.9697,-3.9697,-3.9697,-3.9697,-3.9697,-3.9697,-3.9697,-3.9697,-3.9697,-3.9697,-3.9697,-3.9697,-3.9697,-3.9697,-3.9581,-3.9374,-3.905,-3.8409,-3.7655,-3.6785,-3.5685,-3.458,-3.3572,-3.2571,-3.1777,-3.1441,-3.2227,-3.3119,-3.4022,-3.5466,-3.6677,-3.7548,-3.8409,-3.905,-3.927,-3.9581,-3.9697,-3.9697,-3.9697,-3.9993,-4.0504,-4.1084,-4.215,-4.36,-4.4712,-4.5656,-4.6594,-4.7033,-4.7309,-4.2974,-4.2974,-4.2974,-4.2974,-4.2974,-4.2974,-4.2974,-4.2974,-4.2974,-4.2974,-4.2974,-4.2974,-4.2974,-4.2974,-4.2974,-4.2974,-4.2974,-4.2974,-4.2974,-4.2974,-4.2974,-4.2974,-4.2974,-4.2974,-4.2974,-4.2974,-4.2974,-4.2974,-4.2974,-4.2974,-4.2974,-4.2974,-4.2949,-4.2787,-4.255,-4.2314,-4.2188,-4.1834,-4.1984,-4.2324,-4.1817,-4.1516,-4.122,-3.9279,-3.8377,-3.8295,-3.7953,-3.8092,-3.857,-3.9362,-3.9697,-3.9697,-3.9697,-3.9697,-3.9697,-3.9697,-3.9697,-3.9697,-3.9697,-3.9697,-3.9697,-3.9697,-3.9697,-3.9697,-3.9697,-3.9697,-3.9697,-3.9697,-3.9697,-3.9697,-3.9697,-3.9697,-3.9697,-3.9697,-3.9581,-3.9581,-3.9581,-3.927,-3.8841,-3.8409,-3.7655,-3.6677,-3.5685,-3.4692,-3.3685,-3.2675,-3.1893,-3.1334,-3.1218,-3.1893,-3.2675,-3.3233,-3.4458,-3.5783,-3.6785,-3.7868,-3.8631,-3.905,-3.9478,-3.9697,-3.9697,-3.9697,-3.9993,-4.0504,-4.1084,-4.215,-4.36,-4.4727,-4.5747,-4.6594,-4.7033,-4.7309,-4.2974,-4.2974,-4.2974,-4.2974,-4.2974,-4.2974,-4.2974,-4.2974,-4.2974,-4.2974,-4.2974,-4.2974,-4.2974,-4.2974,-4.2974,-4.2974,-4.2974,-4.2974,-4.2974,-4.2974,-4.2974,-4.2974,-4.2974,-4.2974,-4.2974,-4.2974,-4.2974,-4.2974,-4.2974,-4.2974,-4.2974,-4.2974,-4.2799,-4.255,-4.2264,-4.1941,-4.1582,-4.1359,-4.1535,-4.2098,-4.1828,-4.1666,-4.1638,-3.9694,-3.8918,-3.9079,-3.8926,-3.9009,-3.9353,-3.9544,-3.9697,-3.9697,-3.9697,-3.9697,-3.9697,-3.9697,-3.9735,-3.9785,-3.9772,-3.9798,-3.9848,-3.9848,-3.9848,-3.9848,-3.9848,-3.9848,-3.9835,-3.9785,-3.9772,-3.976,-3.971,-3.9697,-3.9697,-3.9581,-3.9374,-3.9258,-3.9154,-3.8724,-3.8092,-3.7548,-3.6677,-3.5685,-3.458,-3.3572,-3.2675,-3.1903,-3.1228,-3.0889,-3.0889,-3.1102,-3.1556,-3.2113,-3.3233,-3.4458,-3.5697,-3.7108,-3.8198,-3.8736,-3.9374,-3.9697,-3.9697,-3.9697,-3.9993,-4.0504,-4.1298,-4.236,-4.3695,-4.4926,-4.5866,-4.6683,-4.7121,-4.7309,-4.2974,-4.2974,-4.2974,-4.2974,-4.2974,-4.2974,-4.2974,-4.2974,-4.2974,-4.2974,-4.2974,-4.2974,-4.2974,-4.2974,-4.2974,-4.2974,-4.2974,-4.2974,-4.2974,-4.2974,-4.2974,-4.2974,-4.2974,-4.2974,-4.2974,-4.2974,-4.2974,-4.2974,-4.2974,-4.2974,-4.2974,-4.2974,-4.2799,-4.255,-4.2261,-4.1891,-4.1643,-4.1486,-4.1722,-4.2098,-4.2039,-4.1904,-4.1717,-4.0559,-3.9741,-3.9233,-3.9225,-3.934,-3.9659,-3.9685,-3.9697,-3.9697,-3.9697,-3.9697,-3.9697,-3.9697,-4.0011,-4.0345,-4.0362,-4.0626,-4.099,-4.099,-4.099,-4.099,-4.099,-4.099,-4.0902,-4.0463,-4.0337,-4.0132,-3.959,-3.9374,-3.927,-3.8841,-3.8841,-3.8841,-3.8409,-3.7667,-3.6904,-3.6352,-3.5245,-3.4235,-3.3572,-3.2685,-3.1903,-3.1228,-3.1005,-3.0889,-3.0889,-3.1102,-3.1556,-3.2113,-3.313,-3.4246,-3.5697,-3.6881,-3.7962,-3.8736,-3.9374,-3.9697,-3.9697,-3.989,-4.0287,-4.0795,-4.1756,-4.2902,-4.4125,-4.5173,-4.6106,-4.6844,-4.7121,-4.7309,-4.2974,-4.2974,-4.2974,-4.2974,-4.2974,-4.2974,-4.2974,-4.2974,-4.2974,-4.2974,-4.2974,-4.2974,-4.2974,-4.2974,-4.2974,-4.2974,-4.2974,-4.2974,-4.2974,-4.2974,-4.2974,-4.2974,-4.2974,-4.2974,-4.2974,-4.2974,-4.2974,-4.2974,-4.2974,-4.2974,-4.2974,-4.2974,-4.2774,-4.2364,-4.2221,-4.1898,-4.1384,-4.1547,-4.174,-4.2098,-4.2015,-4.1643,-4.1076,-4.0572,-3.9931,-3.9328,-3.9481,-3.9531,-3.9697,-3.9697,-3.9697,-3.9697,-3.9697,-3.9885,-4.0057,-4.0057,-4.0408,-4.0871,-4.0927,-4.1103,-4.1342,-4.1342,-4.1342,-4.1342,-4.1342,-4.1342,-4.1279,-4.099,-4.0727,-4.0345,-3.9835,-3.9352,-3.8828,-3.7962,-3.7974,-3.8092,-3.7548,-3.658,-3.5685,-3.5024,-3.4134,-3.3243,-3.2561,-3.1903,-3.1228,-3.1005,-3.0889,-3.0889,-3.0889,-3.0995,-3.1334,-3.1777,-3.2571,-3.3695,-3.5024,-3.6437,-3.7631,-3.8514,-3.927,-3.9697,-3.9697,-4.0096,-4.058,-4.1071,-4.2124,-4.3259,-4.4499,-4.5551,-4.6284,-4.6916,-4.7207,-4.7309,-4.2974,-4.2974,-4.2974,-4.2974,-4.2974,-4.2974,-4.2974,-4.2974,-4.2974,-4.2974,-4.2974,-4.2974,-4.2974,-4.2974,-4.2974,-4.2974,-4.2974,-4.2974,-4.2974,-4.2974,-4.2974,-4.2974,-4.2974,-4.2974,-4.2974,-4.2974,-4.2974,-4.2974,-4.2974,-4.2974,-4.2974,-4.2974,-4.2762,-4.2202,-4.2221,-4.191,-4.1359,-4.1571,-4.1895,-4.2177,-4.1817,-4.1247,-4.0541,-4.0196,-3.9838,-3.9353,-3.9544,-3.9697,-3.9697,-3.9697,-3.9785,-3.9819,-3.9885,-4.0132,-4.0671,-4.0671,-4.0971,-4.148,-4.148,-4.1543,-4.1618,-4.1618,-4.1618,-4.1618,-4.1618,-4.1618,-4.1593,-4.1505,-4.0984,-4.052,-4.0103,-3.9246,-3.8185,-3.7096,-3.6881,-3.6893,-3.6363,-3.5356,-3.4458,-3.3797,-3.3016,-3.2238,-3.1787,-3.1228,-3.0889,-3.0889,-3.0889,-3.0889,-3.0889,-3.0889,-3.0995,-3.1208,-3.2123,-3.3243,-3.4368,-3.6111,-3.7524,-3.8303,-3.927,-3.9697,-3.9697,-4.0198,-4.0795,-4.1372,-4.2417,-4.3559,-4.4791,-4.5837,-4.6491,-4.6931,-4.7207,-4.7309,-4.2974,-4.2974,-4.2974,-4.2974,-4.2974,-4.2974,-4.2974,-4.2974,-4.2974,-4.2974,-4.2974,-4.2974,-4.2974,-4.2974,-4.2974,-4.2974,-4.2974,-4.2974,-4.2974,-4.2974,-4.2974,-4.2974,-4.2974,-4.2974,-4.2974,-4.2974,-4.2974,-4.2974,-4.2974,-4.2974,-4.2974,-4.2974,-4.2799,-4.2426,-4.2445,-4.2299,-4.1947,-4.2274,-4.2433,-4.2401,-4.1732,-4.1052,-4.0438,-4.0017,-3.9697,-3.9672,-3.9685,-3.9697,-3.9697,-3.9697,-3.9927,-4.0388,-4.0402,-4.0721,-4.1146,-4.1146,-4.1593,-4.2045,-4.2045,-4.2359,-4.276,-4.276,-4.276,-4.276,-4.276,-4.276,-4.266,-4.2183,-4.1535,-4.0566,-3.9548,-3.8359,-3.7096,-3.5916,-3.5024,-3.4458,-3.4346,-3.3786,-3.3119,-3.2561,-3.1893,-3.1441,-3.1112,-3.1005,-3.0889,-3.0889,-3.0889,-3.0889,-3.0889,-3.0889,-3.0995,-3.1208,-3.2123,-3.3243,-3.4368,-3.6111,-3.7524,-3.8303,-3.927,-3.9697,-3.9697,-4.0198,-4.0909,-4.1584,-4.2833,-4.4167,-4.5398,-4.6135,-4.6771,-4.7207,-4.7309,-4.7309,-4.2974,-4.2974,-4.2974,-4.2974,-4.2974,-4.2974,-4.2974,-4.2974,-4.2974,-4.2974,-4.2974,-4.2974,-4.2974,-4.2974,-4.2974,-4.2974,-4.2974,-4.2974,-4.2974,-4.2974,-4.2974,-4.2974,-4.2974,-4.2974,-4.2974,-4.2974,-4.2974,-4.2974,-4.2974,-4.2974,-4.2974,-4.2974,-4.2799,-4.255,-4.2538,-4.2374,-4.215,-4.2374,-4.2226,-4.1818,-4.1127,-4.058,-4.0042,-3.9838,-3.9697,-3.9697,-3.9697,-3.9697,-3.9735,-4.0015,-4.0239,-4.048,-4.0814,-4.1354,-4.1794,-4.1794,-4.2145,-4.2622,-4.2622,-4.2773,-4.2974,-4.2974,-4.2974,-4.2974,-4.2974,-4.2974,-4.2924,-4.2463,-4.1767,-4.0783,-3.9576,-3.8138,-3.6686,-3.4969,-3.4022,-3.3346,-3.2675,-3.2457,-3.2227,-3.1556,-3.1218,-3.0995,-3.0889,-3.0889,-3.0889,-3.0889,-3.0889,-3.0889,-3.0889,-3.0889,-3.1005,-3.1112,-3.1893,-3.2903,-3.392,-3.5564,-3.7096,-3.8092,-3.8945,-3.9581,-3.9685,-4.0096,-4.0681,-4.1484,-4.2833,-4.4261,-4.5504,-4.6225,-4.6858,-4.7309,-4.7309,-4.7309,-4.2974,-4.2974,-4.2974,-4.2974,-4.2974,-4.2974,-4.2974,-4.2974,-4.2974,-4.2974,-4.2974,-4.2974,-4.2974,-4.2974,-4.2974,-4.2974,-4.2974,-4.2974,-4.2974,-4.2974,-4.2974,-4.2974,-4.2974,-4.2974,-4.2974,-4.2974,-4.2974,-4.2974,-4.2974,-4.2974,-4.2974,-4.2974,-4.2936,-4.26,-4.26,-4.2563,-4.2364,-4.2389,-4.209,-4.1345,-4.0799,-4.0221,-3.9697,-3.9697,-3.9697,-3.9697,-3.9697,-3.9697,-3.976,-4.0333,-4.0542,-4.0761,-4.1334,-4.1882,-4.2359,-4.2359,-4.2622,-4.2974,-4.2974,-4.2974,-4.2974,-4.2974,-4.2974,-4.2974,-4.2974,-4.2974,-4.275,-4.2538,-4.168,-4.0571,-3.9236,-3.7592,-3.596,-3.4129,-3.3119,-3.2446,-3.1441,-3.1441,-3.145,-3.1005,-3.0889,-3.0889,-3.0889,-3.0889,-3.0889,-3.0889,-3.0889,-3.0889,-3.0889,-3.0889,-3.0889,-3.0889,-3.1672,-3.2561,-3.347,-3.5245,-3.6677,-3.788,-3.8841,-3.9374,-3.9697,-3.9981,-4.0478,-4.1172,-4.2528,-4.3871,-4.5307,-4.5956,-4.6594,-4.7207,-4.7207,-4.7312,-4.2974,-4.2974,-4.2974,-4.2974,-4.2974,-4.2974,-4.2974,-4.2974,-4.2974,-4.2974,-4.2974,-4.2974,-4.2974,-4.2974,-4.2974,-4.2974,-4.2974,-4.2974,-4.2974,-4.2974,-4.2974,-4.2974,-4.2974,-4.2974,-4.2974,-4.2974,-4.2974,-4.2974,-4.2974,-4.2974,-4.2974,-4.2974,-4.2974,-4.2961,-4.2961,-4.2961,-4.2961,-4.2426,-4.1919,-4.1285,-4.0785,-4.0221,-3.9697,-3.9697,-3.9697,-3.9697,-3.9697,-3.9697,-3.976,-4.0333,-4.0811,-4.1317,-4.1873,-4.2446,-4.2936,-4.2936,-4.2949,-4.2974,-4.2974,-4.2974,-4.2974,-4.2974,-4.2974,-4.2974,-4.2974,-4.275,-4.2413,-4.2211,-4.1116,-3.9658,-3.8213,-3.634,-3.45,-3.3131,-3.2008,-3.1325,-3.1325,-3.1112,-3.0889,-3.0898,-3.0889,-3.0889,-3.0889,-3.0889,-3.0889,-3.0889,-3.0889,-3.0889,-3.0889,-3.0889,-3.0889,-3.0889,-3.1672,-3.2561,-3.347,-3.5245,-3.6677,-3.788,-3.8841,-3.9374,-3.9697,-3.9981,-4.0377,-4.0883,-4.1657,-4.2985,-4.4791,-4.5293,-4.6031,-4.6916,-4.6916,-4.7361,-4.2974,-4.2974,-4.2974,-4.2974,-4.2974,-4.2974,-4.2974,-4.2974,-4.2974,-4.2974,-4.2974,-4.2974,-4.2974,-4.2974,-4.2974,-4.2974,-4.2974,-4.2974,-4.2974,-4.2974,-4.2974,-4.2974,-4.2974,-4.2974,-4.2974,-4.2974,-4.2974,-4.2974,-4.2974,-4.2974,-4.2974,-4.2974,-4.2974,-4.2974,-4.2974,-4.2799,-4.255,-4.1867,-4.1317,-4.0772,-4.0234,-3.9876,-3.9697,-3.9697,-3.9697,-3.9697,-3.9697,-3.9935,-4.0291,-4.0774,-4.1317,-4.1977,-4.2461,-4.2798,-4.2974,-4.2974,-4.2974,-4.2974,-4.2974,-4.2974,-4.2974,-4.2974,-4.2974,-4.2974,-4.275,-4.2513,-4.2061,-4.1378,-4.0429,-3.9105,-3.7417,-3.5786,-3.4212,-3.2296,-3.145,-3.0995,-3.0995,-3.1005,-3.0889,-3.0889,-3.0889,-3.0889,-3.0889,-3.0889,-3.0889,-3.0889,-3.0889,-3.0889,-3.0889,-3.0889,-3.0889,-3.0889,-3.1566,-3.2342,-3.3233,-3.4803,-3.6243,-3.7631,-3.8502,-3.9166,-3.9697,-3.9788,-3.9981,-4.0377,-4.0782,-4.2039,-4.3965,-4.462,-4.5662,-4.681,-4.7199,-4.7837,-4.2974,-4.2974,-4.2974,-4.2974,-4.2974,-4.2974,-4.2974,-4.2974,-4.2974,-4.2974,-4.2974,-4.2974,-4.2974,-4.2974,-4.2974,-4.2974,-4.2974,-4.2974,-4.2974,-4.2974,-4.2974,-4.2974,-4.2974,-4.2974,-4.2974,-4.2974,-4.2974,-4.2974,-4.2974,-4.2974,-4.2974,-4.2974,-4.2974,-4.2974,-4.2974,-4.2762,-4.2202,-4.1641,-4.0984,-4.0541,-4.0004,-3.9697,-3.9697,-3.9697,-3.9697,-3.9697,-3.9697,-3.9966,-4.0538,-4.1034,-4.1638,-4.23,-4.2737,-4.2974,-4.2974,-4.2974,-4.2974,-4.2974,-4.2974,-4.2974,-4.2974,-4.2974,-4.2974,-4.275,-4.2413,-4.2061,-4.148,-4.0432,-3.9498,-3.832,-3.6513,-3.4875,-3.3295,-3.162,-3.0995,-3.0889,-3.0889,-3.0889,-3.0889,-3.0889,-3.0889,-3.0889,-3.0889,-3.0889,-3.0889,-3.0889,-3.0889,-3.0889,-3.0889,-3.0889,-3.0889,-3.0889,-3.145,-3.2123,-3.3006,-3.4469,-3.6013,-3.7406,-3.8291,-3.905,-3.9697,-3.9697,-3.9788,-4.007,-4.0479,-4.1357,-4.2922,-4.3876,-4.5021,-4.6397,-4.7197,-4.8047,0.0,0.0,0.0,-4.2974,-4.2974,-4.2974,-4.2974,-4.2974,-4.2974,-4.2974,-4.2974,-4.2974,-4.2974,-4.2974,-4.2974,-4.2974,-4.2974,-4.2974,-4.2974,-4.2974,-4.2974,-4.2974,-4.2974,-4.2974,-4.2974,-4.2974,-4.2974,-4.2974,-4.2974,-4.2974,-4.2974,-4.2974,-4.2974,-4.2974,-4.2974,-4.2749,-4.219,-4.1542,-4.0977,-4.0426,-3.9901,-3.9697,-3.9697,-3.9697,-3.9697,-3.9697,-3.9697,-3.9969,-4.0527,-4.1056,-4.1626,-4.2233,-4.2773,-4.2974,-4.2974,-4.2974,-4.2974,-4.2974,-4.2974,-4.2974,-4.2974,-4.2974,-4.275,-4.24,-4.2174,-4.1366,-4.0443,-3.9498,-3.8313,-3.7023,-3.5565,-3.3585,-3.1781,-3.1113,-3.0889,-3.0889,-3.0889,-3.0889,-3.0889,-3.0889,-3.0889,-3.0889,-3.0889,-3.0889,-3.0889,-3.0889,-3.0889,-3.0889,-3.0889,-3.0889,-3.0889,-3.0889,-3.145,-3.2123,-3.3006,-3.4469,-3.6013,-3.7406,-3.8291,-3.9062,-3.9697,-3.971,-3.9813,-4.0108,-4.0654,-4.1129,-4.166,-4.3058,-4.4331,-4.5595,-4.6833,-4.8145,-4.2974,0.0,0.0,0.0,0.0,0.0,-4.2974,-4.2974,-4.2974,-4.2974,-4.2974,-4.2974,-4.2974,-4.2974,-4.2974,-4.2974,-4.2974,-4.2974,-4.2974,-4.2974,-4.2974,-4.2974,-4.2974,-4.2974,-4.2974,-4.2974,-4.2974,-4.2974,-4.2974,-4.2974,-4.2974,-4.2974,-4.2974,-4.2974,-4.2974,-4.2563,-4.1607,-4.1347,-4.0797,-3.9888,-3.9722,-3.9697,-3.9697,-3.9697,-3.9697,-3.9697,-3.9697,-4.0249,-4.1071,-4.1289,-4.1851,-4.276,-4.2924,-4.2974,-4.2974,-4.2974,-4.2974,-4.2974,-4.2974,-4.2974,-4.2974,-4.275,-4.2413,-4.2086,-4.1378,-4.0432,-3.9498,-3.8205,-3.7132,-3.5855,-3.3862,-3.2764,-3.1927,-3.1064,-3.0762,-3.0509,-3.0509,-3.0401,-3.0284,-3.0772,-3.0889,-3.0889,-3.0889,-3.0889,-3.0889,-3.0889,-3.0889,-3.0889,-3.0889,-3.0889,-3.0889,-3.0889,-3.1218,-3.1777,-3.2685,-3.4032,-3.5454,-3.7084,-3.808,-3.8841,-3.9697,-4.0074,-4.0287,-4.0379,-4.0933,-4.1304,-4.1715,-4.2852,-4.4178,-4.5596,-4.756,-4.8747,-4.3161,-4.3123,-4.2974,-4.2974,0.0,0.0,-4.2974,-4.2974,-4.2974,-4.2974,-4.2974,-4.2974,-4.2974,-4.2974,-4.2974,-4.2974,-4.2974,-4.2974,-4.2974,-4.2974,-4.2974,-4.2974,-4.2974,-4.2974,-4.2974,-4.2974,-4.2974,-4.2974,-4.2974,-4.2974,-4.2974,-4.2974,-4.2974,-4.2974,-4.2974,-4.2413,-4.1286,-4.1322,-4.0759,-3.9697,-3.9697,-3.9697,-3.9697,-3.9697,-3.9697,-3.9697,-3.9697,-4.0187,-4.1015,-4.1151,-4.1985,-4.2974,-4.2974,-4.2974,-4.2974,-4.2974,-4.2974,-4.2974,-4.2862,-4.275,-4.275,-4.2287,-4.1846,-4.139,-4.0443,-3.938,-3.8324,-3.7121,-3.5911,-3.4758,-3.3089,-3.2417,-3.1992,-3.118,-3.0526,-3.0147,-3.003,-2.9677,-2.9568,-3.0284,-3.0528,-3.0528,-3.0645,-3.0635,-3.0762,-3.0889,-3.0889,-3.0889,-3.0889,-3.0889,-3.0889,-3.0889,-3.1102,-3.1672,-3.2571,-3.3979,-3.5536,-3.7293,-3.8503,-3.9505,-4.0375,-4.0689,-4.0865,-4.0865,-4.1404,-4.189,-4.243,-4.2938,-4.4058,-4.5768,-4.7272,-4.8266,-4.3361,-4.3174,-4.2974,-4.2974,-4.2974,0.0,-4.2974,-4.2974,-4.2974,-4.2974,-4.2974,-4.2974,-4.2974,-4.2974,-4.2974,-4.2974,-4.2974,-4.2974,-4.2974,-4.2974,-4.2974,-4.2974,-4.2974,-4.2974,-4.2974,-4.2974,-4.2974,-4.2974,-4.2974,-4.2974,-4.2974,-4.2974,-4.2974,-4.2974,-4.2974,-4.2426,-4.1447,-4.1334,-4.0772,-3.9838,-3.971,-3.9697,-3.9697,-3.9697,-3.9697,-3.9697,-3.9697,-4.0011,-4.0563,-4.104,-4.1894,-4.2898,-4.2949,-4.2974,-4.2974,-4.2974,-4.2974,-4.2862,-4.2525,-4.2413,-4.2287,-4.1606,-4.1021,-4.0327,-3.938,-3.8194,-3.7011,-3.5911,-3.4797,-3.3697,-3.29,-3.249,-3.193,-3.1113,-3.0334,-2.9677,-2.9303,-2.871,-2.848,-2.9322,-2.9568,-2.9804,-3.0265,-3.0265,-3.0392,-3.0772,-3.0889,-3.0889,-3.0889,-3.0928,-3.0957,-3.0957,-3.123,-3.1812,-3.2726,-3.4218,-3.5925,-3.7722,-3.9175,-4.0342,-4.1234,-4.1404,-4.143,-4.143,-4.1969,-4.2595,-4.3394,-4.313,-4.3998,-4.5861,-4.6401,-4.6936,-4.3508,-4.3174,-4.2974,-4.2974,-4.2974,0.0,-4.2974,-4.2974,-4.2974,-4.2974,-4.2974,-4.2974,-4.2974,-4.2974,-4.2974,-4.2974,-4.2974,-4.2974,-4.2974,-4.2974,-4.2974,-4.2974,-4.2974,-4.2974,-4.2974,-4.2974,-4.2974,-4.2974,-4.2974,-4.2974,-4.2974,-4.2974,-4.2974,-4.2974,-4.2974,-4.2737,-4.2028,-4.1529,-4.0952,-4.0375,-3.9888,-3.9697,-3.9697,-3.9697,-3.9697,-3.9697,-3.9697,-4.0011,-4.0526,-4.0626,-4.1329,-4.2359,-4.2798,-4.2974,-4.2974,-4.2974,-4.2862,-4.2525,-4.2287,-4.1822,-4.1251,-4.0304,-3.9615,-3.8919,-3.7714,-3.6878,-3.5921,-3.4673,-3.3922,-3.333,-3.2536,-3.2121,-3.1575,-3.04,-2.9499,-2.86,-2.7993,-2.7392,-2.6918,-2.6796,-2.7882,-2.8957,-2.9549,-2.954,-2.9785,-3.0392,-3.0509,-3.0635,-3.0889,-3.1182,-3.1396,-3.1396,-3.1829,-3.2385,-3.3319,-3.4454,-3.5769,-3.7598,-3.8935,-4.0111,-4.0898,-4.1647,-4.1995,-4.1995,-4.2534,-4.2861,-4.3085,-4.3551,-4.3991,-4.4626,-4.514,-4.5675,-4.3908,-4.3386,-4.2974,-4.2974,-4.2974,0.0,0.0,-4.2974,-4.2974,-4.2974,-4.2974,-4.2974,-4.2974,-4.2974,-4.2974,-4.2974,-4.2974,-4.2974,-4.2974,-4.2974,-4.2974,-4.2974,-4.2974,-4.2974,-4.2974,-4.2974,-4.2974,-4.2974,-4.2974,-4.2974,-4.2974,-4.2974,-4.2974,-4.2974,-4.2974,-4.2762,-4.2202,-4.1647,-4.0983,-4.0541,-4.0004,-3.9697,-3.9697,-3.9697,-3.9697,-3.9697,-3.9697,-3.9848,-4.0124,-4.04,-4.084,-4.1417,-4.2246,-4.2735,-4.2974,-4.2862,-4.2525,-4.2174,-4.1594,-4.1021,-4.0199,-3.9121,-3.8302,-3.7594,-3.6513,-3.5407,-3.4423,-3.367,-3.3038,-3.2552,-3.1891,-3.1236,-3.0454,-2.9419,-2.8277,-2.7254,-2.6537,-2.5815,-2.521,-2.5071,-2.5676,-2.6529,-2.7975,-2.8343,-2.871,-2.9568,-3.022,-3.0591,-3.0946,-3.1453,-3.1846,-3.1846,-3.2041,-3.2522,-3.3465,-3.4497,-3.5918,-3.7781,-3.9055,-4.0129,-4.125,-4.1632,-4.2004,-4.2338,-4.2724,-4.2974,-4.2974,-4.3321,-4.3543,-4.3848,-4.43,-4.4626,-4.4622,-4.3911,-4.331,-4.331,-4.3161,-4.3123,0.0,0.0,0.0,-4.2974,-4.2974,-4.2974,-4.2974,-4.2974,-4.2974,-4.2974,-4.2974,-4.2974,-4.2974,-4.2974,-4.2974,-4.2974,-4.2974,-4.2974,-4.2974,-4.2974,-4.2974,-4.2974,-4.2974,-4.2974,-4.2974,-4.2974,-4.2974,-4.2974,-4.2974,-4.2774,-4.2376,-4.1805,-4.1159,-4.0605,-4.0067,-3.9838,-3.9697,-3.9697,-3.9697,-3.9697,-3.9697,-3.9697,-3.9619,-4.007,-4.032,-4.052,-4.1731,-4.2421,-4.2712,-4.2488,-4.2174,-4.172,-4.0791,-3.9966,-3.9015,-3.7812,-3.6978,-3.6135,-3.5294,-3.4173,-3.3165,-3.2657,-3.2091,-3.1431,-3.0972,-3.0031,-2.9101,-2.7911,-2.692,-2.5912,-2.4949,-2.4224,-2.3867,-2.3796,-2.3569,-2.4067,-2.6394,-2.7011,-2.7652,-2.8706,-2.973,-3.054,-3.1003,-3.176,-3.2285,-3.2295,-3.2363,-3.2769,-3.3599,-3.4652,-3.6057,-3.7708,-3.8927,-4.0095,-4.1251,-4.148,-4.1948,-4.2525,-4.2862,-4.2974,-4.2974,-4.2974,-4.3085,-4.3283,-4.3653,-4.3887,-4.5611,-4.4866,-4.4125,-4.4125,-4.3736,-4.3348,-4.3348,0.0,-4.2974,-4.2974,0.0,-4.2974,-4.2974,0.0,0.0,-4.2974,-4.2974,-4.2974,-4.2974,-4.2974,-4.2974,-4.2974,-4.2974,-4.2974,-4.2974,-4.2974,-4.2974,-4.2974,-4.2974,-4.2974,-4.2974,-4.2974,-4.2974,-4.2974,-4.2974,-4.2961,-4.2936,-4.2389,-4.1831,-4.1157,-4.0721,-4.0196,-3.9697,-3.9697,-3.9697,-3.9697,-3.9697,-3.9581,-3.9374,-3.9436,-3.955,-3.9894,-4.1622,-4.2086,-4.1854,-4.2114,-4.1594,-4.0675,-3.9732,-3.867,-3.7495,-3.6401,-3.5284,-3.4163,-3.3796,-3.3048,-3.2412,-3.1763,-3.0984,-3.0311,-2.9357,-2.8563,-2.7638,-2.6338,-2.5442,-2.4571,-2.3596,-2.2981,-2.2817,-2.2716,-2.2773,-2.3403,-2.5415,-2.6048,-2.6778,-2.8347,-2.919,-3.0085,-3.0945,-3.1826,-3.2353,-3.2725,-3.3057,-3.3407,-3.3773,-3.4809,-3.5704,-3.6539,-3.8041,-3.9274,-3.9838,-4.1239,-4.2174,-4.2513,-4.2862,-4.2974,-4.2974,-4.2974,-4.2974,-4.3085,-4.3085,-4.3197,-4.625,-4.5286,-4.4457,-4.4364,-4.3907,-4.3339,-4.3409,-4.3174,-4.2974,-4.2974,0.0,0.0,0.0,0.0,0.0,0.0,-4.2974,-4.2974,-4.2974,-4.2974,-4.2974,-4.2974,-4.2974,-4.2974,-4.2974,-4.2974,-4.2974,-4.2974,-4.2974,-4.2974,-4.2974,-4.2974,-4.2974,-4.2974,-4.2974,-4.2974,-4.2974,-4.2426,-4.1851,-4.1339,-4.073,-4.0221,-3.9697,-3.9697,-3.9697,-3.9697,-3.9697,-3.9581,-3.9258,-3.9258,-3.9186,-3.9059,-3.9913,-4.0403,-4.0722,-4.0474,-3.9873,-3.8838,-3.78,-3.664,-3.5604,-3.4156,-3.3178,-3.2572,-3.1942,-3.1308,-3.0681,-3.004,-2.902,-2.8078,-2.7217,-2.6307,-2.5407,-2.4469,-2.3818,-2.3223,-2.2355,-2.2251,-2.2291,-2.2038,-2.2203,-2.2634,-2.3847,-2.463,-2.5571,-2.6853,-2.8449,-2.9744,-3.0766,-3.1891,-3.2787,-3.3154,-3.332,-3.3544,-3.3922,-3.4423,-3.517,-3.5777,-3.7341,-3.854,-3.9144,-4.0327,-4.1136,-4.1492,-4.1948,-4.2174,-4.2174,-4.2513,-4.275,-4.275,-4.2862,-4.3085,-4.7184,-4.6225,-4.5261,-4.4912,-4.4201,-4.3624,-4.3546,-4.331,-4.2974,-4.2974,-4.2974,0.0,0.0,0.0,-4.2974,-4.2974,0.0,-4.2974,-4.2974,-4.2974,-4.2974,-4.2974,-4.2974,-4.2974,-4.2974,-4.2974,-4.2974,-4.2974,-4.2974,-4.2974,-4.2974,-4.2974,-4.2974,-4.2974,-4.2974,-4.2974,-4.2974,-4.2588,-4.2175,-4.1572,-4.0942,-4.0464,-3.991,-3.976,-3.9697,-3.9697,-3.9697,-3.9478,-3.9154,-3.905,-3.8619,-3.7916,-3.8084,-3.8247,-3.8615,-3.8665,-3.8074,-3.7052,-3.6038,-3.488,-3.3714,-3.228,-3.1549,-3.1181,-3.0424,-2.9671,-2.9039,-2.8143,-2.7057,-2.5914,-2.5148,-2.4394,-2.3517,-2.2914,-2.2487,-2.2111,-2.1607,-2.1726,-2.1964,-2.1787,-2.1904,-2.2331,-2.2896,-2.3622,-2.4617,-2.5742,-2.7514,-2.9249,-3.0437,-3.1705,-3.2785,-3.3175,-3.3292,-3.3544,-3.3796,-3.4047,-3.4548,-3.5294,-3.6613,-3.7703,-3.8574,-3.9403,-3.9978,-4.0443,-4.1021,-4.1366,-4.1492,-4.2061,-4.24,-4.2525,-4.2862,-4.2974,-4.8908,-4.7757,-4.6686,-4.645,-4.5322,-4.4196,-4.3934,-4.3386,-4.2974,-4.2974,-4.2974,-4.2974,-4.2974,-4.2974,-4.2974,-4.2974,-4.2974,0.0,0.0,-4.2974,-4.2974,-4.2974,-4.2974,-4.2974,-4.2974,-4.2974,-4.2974,-4.2974,-4.2974,-4.2974,-4.2974,-4.2974,-4.2974,-4.2974,-4.2974,-4.2974,-4.2974,-4.2974,-4.2737,-4.214,-4.1597,-4.1027,-4.0475,-3.9936,-3.9697,-3.9697,-3.9697,-3.9374,-3.8841,-3.8526,-3.7773,-3.67,-3.6506,-3.5632,-3.4856,-3.6816,-3.6708,-3.5445,-3.489,-3.3595,-3.2168,-3.1058,-3.0547,-3.0034,-2.9155,-2.8395,-2.7504,-2.6224,-2.5358,-2.4485,-2.3468,-2.2983,-2.2495,-2.1859,-2.1607,-2.1488,-2.1235,-2.1343,-2.1637,-2.1917,-2.2205,-2.2498,-2.2799,-2.3281,-2.3975,-2.5353,-2.6879,-2.8213,-2.9657,-3.1092,-3.2138,-3.2794,-3.3175,-3.3418,-3.3418,-3.367,-3.4298,-3.5294,-3.5788,-3.6534,-3.7878,-3.8574,-3.9144,-3.9721,-4.0443,-4.0918,-4.1148,-4.1834,-4.2287,-4.2525,-4.2862,-4.2974,0.0,0.0,-4.7298,-4.675,-4.5688,-4.477,-4.4498,-4.395,-4.3561,-4.3561,-4.3561,-4.3536,-4.3336,-4.331,-4.3174,-4.2986,-4.2974,-4.2974,0.0,-4.2974,-4.2974,-4.2974,-4.2974,-4.2974,-4.2974,-4.2974,-4.2974,-4.2974,-4.2974,-4.2974,-4.2974,-4.2974,-4.2974,-4.2974,-4.2974,-4.2974,-4.2974,-4.2974,-4.2749,-4.219,-4.1594,-4.1005,-4.0501,-3.9948,-3.9697,-3.9697,-3.9478,-3.905,-3.8514,-3.8092,-3.7227,-3.6025,-3.5367,-3.4469,-3.3717,-3.4717,-3.4382,-3.313,-3.1868,-3.0815,-2.9869,-2.8886,-2.8392,-2.7887,-2.666,-2.6034,-2.5413,-2.4303,-2.3473,-2.2889,-2.2265,-2.1809,-2.1607,-2.1362,-2.1235,-2.1235,-2.1109,-2.1496,-2.1864,-2.1964,-2.2378,-2.2746,-2.2846,-2.3052,-2.3562,-2.4745,-2.6092,-2.7551,-2.8897,-3.0343,-3.1506,-3.2138,-3.2785,-3.3048,-3.3048,-3.3418,-3.3796,-3.4423,-3.4673,-3.5294,-3.6156,-3.6624,-3.722,-3.7823,-3.8659,-3.938,-3.9873,-4.1136,-4.196,-4.2199,-4.2762,-4.2974,-5.0116,-4.9198,0.0,-4.7666,-4.6645,-4.5633,-4.5226,-4.4681,-4.4254,-4.4066,-4.404,-4.3879,-4.3479,-4.3359,-4.3336,-4.2999,-4.2974,-4.2974,0.0,-4.2974,-4.2974,-4.2974,-4.2974,-4.2974,-4.2974,-4.2974,-4.2974,-4.2974,-4.2974,-4.2974,-4.2974,-4.2974,-4.2974,-4.2974,-4.2974,-4.2974,-4.2974,-4.2974,-4.2799,-4.2413,-4.1663,-4.1034,-4.0671,-3.9919,-3.9478,-3.9374,-3.905,-3.8619,-3.8092,-3.7322,-3.634,-3.5135,-3.4357,-3.3346,-3.2436,-3.3006,-3.2322,-3.1063,-2.9549,-2.8719,-2.8122,-2.7021,-2.6407,-2.592,-2.4702,-2.4209,-2.3713,-2.2856,-2.2237,-2.1859,-2.1488,-2.1235,-2.1109,-2.1109,-2.1109,-2.1109,-2.1109,-2.157,-2.1984,-2.1984,-2.2458,-2.2859,-2.2859,-2.2859,-2.314,-2.3952,-2.5158,-2.6494,-2.77,-2.929,-3.0593,-3.123,-3.2147,-3.2794,-3.3048,-3.3292,-3.3544,-3.3922,-3.4047,-3.4548,-3.517,-3.5531,-3.6013,-3.6767,-3.7714,-3.867,-3.9403,-4.0906,-4.1846,-4.2199,-4.2762,-4.2974]},{"header":{"parameterUnit":"m.s-1","parameterCategory":1,"la1":30.6,"la2":29.2853,"lo1":-89.7004,"lo2":-87.6739,"dy":0.0162,"dx":0.0183,"nx":112,"ny":82,"refTime":"2024-02-24T06:00:00:Z","depth":0,"parameterNumber":3,"parameterNumberName":"V-component_of_WINDS"},"data":[0.0,0.0,0.0,0.0,0.0,0.0,0.0,0.0,0.0,0.0,0.0,0.0,0.0,0.0,0.0,0.0,0.0,0.0,0.0,0.0,0.0,0.0,0.0,0.0,0.0,0.0,0.0,0.0,0.0,0.0,0.0,0.0,0.0,0.0,0.0,0.0,0.0,0.0,0.0,0.0,0.0,0.0,0.0,0.0,0.0,0.0,0.0,0.0,0.0,0.0,0.0,0.0,0.0,0.0,0.0,0.0,0.0,0.0,0.0,0.0,0.0,0.0,0.0,0.0,0.0,0.0,0.0,0.0,0.0,0.0,0.0,0.0,0.0,0.0,0.0,0.0,0.0,0.0,0.0,0.0,0.0,0.0,0.0,0.0,0.0,0.0,0.0,0.0,0.0,0.0,-4.7481,-4.6913,-4.6554,-4.6313,-4.6313,-4.6313,-4.6313,-4.6313,0.0,0.0,0.0,0.0,0.0,0.0,0.0,0.0,0.0,0.0,0.0,0.0,0.0,0.0,0.0,0.0,0.0,0.0,0.0,0.0,0.0,0.0,0.0,0.0,0.0,0.0,0.0,0.0,0.0,0.0,0.0,0.0,0.0,0.0,0.0,0.0,0.0,0.0,0.0,0.0,0.0,0.0,0.0,0.0,0.0,0.0,0.0,0.0,0.0,0.0,0.0,0.0,0.0,0.0,0.0,0.0,0.0,0.0,0.0,0.0,0.0,0.0,0.0,0.0,0.0,0.0,0.0,0.0,0.0,0.0,0.0,0.0,0.0,0.0,0.0,0.0,0.0,0.0,0.0,0.0,0.0,0.0,0.0,0.0,0.0,0.0,0.0,0.0,0.0,0.0,0.0,0.0,0.0,0.0,0.0,0.0,0.0,0.0,0.0,0.0,0.0,0.0,0.0,0.0,-4.7834,-4.6913,-4.6806,-4.6554,-4.6313,-4.6313,-4.6313,-4.6313,0.0,0.0,0.0,0.0,0.0,0.0,0.0,0.0,0.0,0.0,0.0,0.0,0.0,0.0,0.0,0.0,0.0,0.0,0.0,0.0,0.0,0.0,0.0,0.0,0.0,0.0,0.0,0.0,0.0,0.0,0.0,0.0,0.0,0.0,0.0,0.0,0.0,0.0,0.0,0.0,0.0,0.0,0.0,0.0,0.0,0.0,0.0,0.0,0.0,0.0,0.0,0.0,0.0,0.0,0.0,0.0,0.0,0.0,0.0,0.0,0.0,0.0,0.0,0.0,0.0,0.0,0.0,0.0,0.0,0.0,0.0,0.0,0.0,0.0,0.0,0.0,0.0,0.0,0.0,0.0,0.0,0.0,0.0,0.0,0.0,0.0,0.0,0.0,0.0,0.0,0.0,0.0,0.0,0.0,0.0,0.0,0.0,0.0,0.0,0.0,0.0,0.0,0.0,-4.9186,-4.8289,-4.7362,-4.7125,-4.6887,-4.6554,-4.6434,-4.6313,-4.6313,-4.6313,0.0,0.0,0.0,0.0,0.0,0.0,0.0,0.0,0.0,0.0,0.0,0.0,0.0,0.0,0.0,0.0,0.0,0.0,0.0,0.0,0.0,0.0,0.0,0.0,0.0,0.0,0.0,0.0,0.0,0.0,0.0,0.0,0.0,0.0,0.0,0.0,0.0,0.0,0.0,0.0,0.0,0.0,0.0,0.0,0.0,0.0,0.0,0.0,0.0,0.0,0.0,0.0,0.0,0.0,0.0,0.0,0.0,0.0,0.0,0.0,0.0,0.0,0.0,0.0,0.0,0.0,0.0,0.0,0.0,0.0,0.0,0.0,0.0,0.0,0.0,0.0,0.0,0.0,0.0,0.0,0.0,0.0,0.0,0.0,0.0,0.0,0.0,0.0,0.0,0.0,0.0,0.0,0.0,0.0,0.0,0.0,0.0,0.0,0.0,0.0,0.0,0.0,-4.9743,-4.9072,-4.8042,-4.7573,-4.7231,-4.6806,-4.6434,-4.6313,-4.6313,-4.6313,0.0,0.0,0.0,0.0,0.0,0.0,0.0,0.0,0.0,0.0,0.0,0.0,0.0,0.0,0.0,0.0,0.0,0.0,0.0,0.0,0.0,0.0,0.0,0.0,0.0,0.0,0.0,0.0,0.0,0.0,0.0,0.0,0.0,0.0,0.0,0.0,0.0,0.0,0.0,0.0,0.0,0.0,0.0,0.0,0.0,0.0,0.0,0.0,0.0,0.0,0.0,0.0,0.0,0.0,0.0,0.0,0.0,0.0,0.0,0.0,0.0,0.0,0.0,0.0,0.0,0.0,0.0,0.0,0.0,0.0,0.0,0.0,0.0,0.0,0.0,0.0,0.0,0.0,0.0,0.0,0.0,0.0,0.0,0.0,0.0,0.0,0.0,0.0,0.0,0.0,0.0,0.0,0.0,0.0,0.0,0.0,0.0,0.0,0.0,0.0,0.0,0.0,-5.0531,-4.9843,-4.8624,-4.8042,-4.7468,-4.6793,-4.6434,-4.6313,-4.6313,-4.6313,0.0,0.0,0.0,0.0,0.0,0.0,0.0,0.0,0.0,0.0,0.0,0.0,0.0,0.0,0.0,0.0,0.0,0.0,0.0,0.0,0.0,0.0,0.0,0.0,0.0,0.0,0.0,0.0,0.0,0.0,0.0,0.0,0.0,0.0,0.0,0.0,0.0,0.0,0.0,0.0,0.0,0.0,0.0,0.0,0.0,0.0,0.0,0.0,0.0,0.0,0.0,0.0,0.0,0.0,0.0,0.0,0.0,0.0,0.0,0.0,0.0,0.0,0.0,0.0,0.0,0.0,0.0,0.0,0.0,0.0,0.0,0.0,0.0,0.0,0.0,0.0,0.0,0.0,0.0,0.0,0.0,0.0,0.0,0.0,0.0,0.0,0.0,0.0,0.0,0.0,0.0,0.0,0.0,0.0,0.0,0.0,0.0,0.0,0.0,0.0,0.0,0.0,-5.129,-5.0256,-4.8578,-4.7986,-4.7405,-4.6614,-4.6352,-4.6313,-4.6313,0.0,0.0,0.0,0.0,0.0,0.0,0.0,0.0,0.0,0.0,0.0,0.0,0.0,0.0,0.0,0.0,0.0,0.0,0.0,0.0,0.0,0.0,0.0,0.0,0.0,0.0,0.0,0.0,0.0,0.0,0.0,0.0,0.0,0.0,0.0,0.0,0.0,0.0,0.0,0.0,0.0,0.0,0.0,0.0,0.0,0.0,0.0,0.0,0.0,0.0,0.0,0.0,0.0,0.0,0.0,0.0,0.0,0.0,0.0,0.0,0.0,0.0,0.0,0.0,0.0,0.0,0.0,0.0,0.0,0.0,0.0,0.0,0.0,0.0,0.0,0.0,0.0,0.0,0.0,0.0,0.0,0.0,0.0,0.0,0.0,0.0,0.0,0.0,0.0,0.0,0.0,0.0,0.0,0.0,0.0,0.0,0.0,0.0,0.0,0.0,0.0,0.0,-5.2393,-5.1628,-5.0488,-4.8667,-4.7909,-4.7263,-4.6373,-4.6184,-4.6157,-4.605,0.0,0.0,0.0,0.0,0.0,0.0,0.0,0.0,0.0,0.0,0.0,0.0,0.0,0.0,0.0,0.0,0.0,0.0,0.0,0.0,0.0,0.0,0.0,0.0,0.0,0.0,0.0,0.0,0.0,0.0,0.0,0.0,0.0,0.0,0.0,0.0,0.0,0.0,0.0,0.0,0.0,0.0,0.0,0.0,0.0,0.0,0.0,0.0,0.0,0.0,0.0,0.0,0.0,0.0,0.0,0.0,0.0,0.0,0.0,0.0,0.0,0.0,0.0,0.0,0.0,0.0,0.0,0.0,0.0,0.0,0.0,0.0,0.0,0.0,0.0,0.0,0.0,0.0,0.0,0.0,0.0,0.0,0.0,0.0,0.0,0.0,0.0,0.0,0.0,0.0,0.0,0.0,0.0,0.0,0.0,0.0,0.0,0.0,0.0,0.0,0.0,0.0,-5.266,-5.1463,-5.0218,-4.9135,-4.796,-4.6994,-4.6108,-4.5936,-4.5813,0.0,0.0,0.0,0.0,0.0,0.0,0.0,0.0,0.0,0.0,0.0,0.0,0.0,0.0,0.0,0.0,0.0,0.0,0.0,0.0,0.0,0.0,0.0,0.0,0.0,0.0,0.0,0.0,0.0,0.0,0.0,0.0,0.0,0.0,0.0,0.0,0.0,0.0,0.0,0.0,0.0,0.0,0.0,0.0,0.0,0.0,0.0,0.0,0.0,0.0,0.0,0.0,0.0,0.0,0.0,0.0,0.0,0.0,0.0,0.0,0.0,0.0,0.0,0.0,0.0,0.0,0.0,0.0,0.0,0.0,0.0,0.0,0.0,0.0,0.0,0.0,0.0,0.0,0.0,0.0,0.0,0.0,0.0,0.0,0.0,0.0,0.0,0.0,0.0,0.0,0.0,0.0,0.0,0.0,0.0,0.0,0.0,0.0,0.0,0.0,0.0,0.0,0.0,-5.2221,-5.1432,-5.0313,-4.8523,-4.7708,-4.6797,-4.5748,-4.5703,-4.5615,-4.58,0.0,0.0,0.0,0.0,0.0,0.0,0.0,0.0,0.0,0.0,0.0,0.0,0.0,0.0,0.0,0.0,0.0,0.0,0.0,0.0,0.0,0.0,0.0,0.0,0.0,0.0,0.0,0.0,0.0,0.0,0.0,0.0,0.0,0.0,0.0,0.0,0.0,0.0,0.0,0.0,0.0,0.0,0.0,0.0,0.0,0.0,0.0,0.0,0.0,0.0,0.0,0.0,0.0,0.0,0.0,0.0,0.0,0.0,0.0,0.0,0.0,0.0,0.0,0.0,0.0,0.0,0.0,0.0,0.0,0.0,0.0,0.0,0.0,0.0,0.0,0.0,0.0,0.0,0.0,0.0,0.0,0.0,0.0,0.0,0.0,0.0,0.0,0.0,0.0,0.0,0.0,0.0,0.0,0.0,0.0,0.0,0.0,0.0,0.0,0.0,0.0,0.0,-5.1936,-5.1111,-5.0104,-4.8495,-4.7668,-4.6851,-4.5803,-4.5669,-4.5688,-4.5591,0.0,0.0,0.0,0.0,0.0,0.0,0.0,0.0,0.0,0.0,0.0,0.0,0.0,0.0,0.0,0.0,0.0,0.0,0.0,0.0,0.0,0.0,0.0,0.0,0.0,0.0,0.0,0.0,0.0,0.0,0.0,0.0,0.0,0.0,0.0,0.0,0.0,0.0,0.0,0.0,0.0,0.0,0.0,0.0,0.0,0.0,0.0,0.0,0.0,0.0,0.0,0.0,0.0,0.0,0.0,0.0,0.0,0.0,0.0,0.0,0.0,0.0,0.0,0.0,0.0,0.0,0.0,0.0,0.0,0.0,0.0,0.0,0.0,0.0,0.0,0.0,0.0,0.0,0.0,0.0,0.0,0.0,0.0,0.0,0.0,0.0,0.0,0.0,0.0,0.0,0.0,0.0,0.0,0.0,0.0,0.0,0.0,0.0,0.0,0.0,0.0,0.0,-5.1743,-5.084,-4.9795,-4.8994,-4.799,-4.6977,-4.6112,-4.598,-4.5779,-4.5167,0.0,0.0,0.0,0.0,0.0,0.0,0.0,0.0,0.0,0.0,0.0,0.0,0.0,0.0,0.0,0.0,0.0,0.0,0.0,0.0,0.0,0.0,0.0,0.0,0.0,0.0,0.0,0.0,0.0,0.0,0.0,0.0,0.0,0.0,0.0,0.0,0.0,0.0,0.0,0.0,0.0,0.0,0.0,0.0,0.0,0.0,0.0,0.0,0.0,0.0,0.0,0.0,0.0,0.0,0.0,0.0,0.0,0.0,0.0,0.0,-4.1879,-4.2667,0.0,0.0,0.0,0.0,0.0,0.0,0.0,0.0,0.0,0.0,0.0,0.0,0.0,0.0,0.0,0.0,0.0,0.0,0.0,0.0,0.0,0.0,0.0,0.0,0.0,0.0,0.0,0.0,0.0,0.0,0.0,0.0,0.0,0.0,0.0,0.0,0.0,0.0,0.0,0.0,-5.1404,-5.0751,-5.0086,-4.9277,-4.8266,-4.726,-4.6428,-4.5929,-4.5671,-4.5487,-4.5617,0.0,0.0,0.0,0.0,0.0,0.0,0.0,0.0,0.0,0.0,0.0,0.0,0.0,0.0,0.0,0.0,0.0,0.0,0.0,0.0,0.0,0.0,0.0,0.0,0.0,0.0,0.0,0.0,0.0,0.0,0.0,0.0,0.0,0.0,0.0,0.0,0.0,0.0,0.0,0.0,0.0,0.0,0.0,0.0,0.0,0.0,0.0,0.0,0.0,0.0,0.0,0.0,0.0,0.0,0.0,0.0,0.0,0.0,0.0,-4.0906,-4.1891,0.0,0.0,0.0,0.0,0.0,0.0,0.0,0.0,0.0,0.0,0.0,0.0,0.0,0.0,0.0,0.0,0.0,0.0,0.0,0.0,0.0,0.0,0.0,0.0,0.0,0.0,0.0,0.0,0.0,0.0,0.0,0.0,0.0,0.0,0.0,0.0,0.0,0.0,0.0,0.0,-5.1259,-5.0772,-5.0294,-4.9781,-4.8681,-4.7875,-4.7246,-4.6651,-4.6048,-4.5832,-4.5629,0.0,0.0,0.0,0.0,0.0,0.0,0.0,0.0,0.0,0.0,0.0,0.0,0.0,0.0,0.0,0.0,0.0,0.0,0.0,0.0,0.0,0.0,0.0,0.0,0.0,0.0,0.0,0.0,0.0,0.0,0.0,0.0,0.0,0.0,0.0,0.0,0.0,0.0,0.0,0.0,0.0,0.0,0.0,0.0,0.0,0.0,0.0,0.0,0.0,0.0,0.0,0.0,0.0,-3.7121,-3.7011,-3.6889,-3.7506,-3.8227,-3.8919,-4.0327,-4.1378,-4.2049,-4.2287,0.0,0.0,0.0,0.0,0.0,0.0,0.0,0.0,0.0,0.0,0.0,0.0,0.0,0.0,0.0,0.0,0.0,0.0,0.0,0.0,0.0,0.0,-4.9565,-4.9594,-4.9595,-4.9875,-5.1119,0.0,0.0,0.0,0.0,0.0,0.0,0.0,0.0,0.0,0.0,0.0,-5.1214,-5.0772,-5.039,-5.0086,-4.9192,-4.8481,-4.8179,-4.7391,-4.6665,-4.6007,-4.5702,-4.5283,0.0,0.0,0.0,0.0,0.0,0.0,0.0,0.0,0.0,0.0,0.0,0.0,0.0,0.0,0.0,0.0,0.0,0.0,0.0,0.0,0.0,0.0,0.0,0.0,0.0,0.0,0.0,0.0,0.0,0.0,0.0,0.0,-4.7205,-4.6269,0.0,0.0,0.0,0.0,0.0,0.0,0.0,0.0,0.0,0.0,0.0,0.0,0.0,-3.7703,-3.7583,-3.6735,-3.6247,-3.6125,-3.6146,-3.629,-3.6534,-3.7143,-3.7976,-3.88,-3.9873,0.0,-4.172,-4.1972,0.0,0.0,0.0,0.0,0.0,0.0,0.0,0.0,0.0,0.0,0.0,0.0,0.0,0.0,0.0,0.0,0.0,0.0,0.0,0.0,0.0,0.0,-4.8709,-4.8723,-4.8852,-4.9037,-4.8995,-4.9944,-5.0751,-5.0751,-5.1119,-5.1454,0.0,0.0,0.0,0.0,0.0,0.0,-5.1214,-5.0772,-5.039,-5.0086,-4.9389,-4.8595,-4.8179,-4.7596,-4.6873,-4.6007,-4.5502,-4.4896,-4.4002,-4.424,0.0,0.0,0.0,0.0,0.0,0.0,0.0,0.0,0.0,0.0,0.0,0.0,0.0,0.0,0.0,0.0,0.0,0.0,0.0,0.0,0.0,0.0,0.0,0.0,0.0,0.0,0.0,0.0,0.0,-4.7335,-4.6085,-4.5342,-4.4492,-4.3848,0.0,0.0,0.0,0.0,0.0,0.0,0.0,0.0,0.0,-3.7932,-3.6967,-3.6369,-3.589,-3.5777,-3.5407,-3.5025,-3.5788,-3.6167,-3.6167,-3.7363,-3.8194,-3.88,-3.9755,-4.0699,-4.139,-4.2086,-4.265,-4.2974,0.0,0.0,0.0,0.0,-4.2974,-4.2974,-4.2974,-4.3184,-4.3394,-4.353,0.0,0.0,0.0,0.0,0.0,0.0,0.0,-4.7596,-4.7596,-4.7685,-4.7801,-4.7801,-4.8294,-4.8595,-4.828,-4.9178,-5.0086,-5.0086,-5.0552,-5.1011,-5.1011,-5.112,0.0,0.0,0.0,-5.1214,-5.1214,-5.0932,-5.0647,-5.0537,-4.9975,-4.9389,-4.9079,-4.8395,-4.7568,-4.6533,-4.5808,-4.4964,-4.3899,-4.3771,-4.3662,0.0,0.0,0.0,0.0,0.0,0.0,0.0,0.0,0.0,0.0,0.0,0.0,0.0,0.0,0.0,0.0,0.0,0.0,0.0,0.0,0.0,0.0,0.0,0.0,0.0,0.0,0.0,0.0,-4.6323,-4.5274,-4.4518,-4.3738,-4.3283,0.0,0.0,0.0,0.0,0.0,0.0,-3.9133,-3.8052,-3.7099,-3.6513,-3.589,-3.5397,-3.4922,-3.517,-3.5046,-3.4673,-3.5921,-3.6524,-3.6391,-3.7943,-3.8778,-3.9156,-4.0095,-4.0815,-4.1402,-4.196,-4.2525,-4.2862,-4.2862,-4.2974,-4.2974,-4.2974,-4.2974,-4.2974,-4.2974,-4.3073,-4.3283,-4.3283,-4.3848,-4.4735,-4.5488,0.0,0.0,0.0,0.0,-4.7095,-4.7095,-4.7198,-4.7301,-4.7198,-4.7699,-4.8092,-4.7875,-4.8581,-4.9375,-4.9683,-5.0346,-5.0807,-5.0807,-5.1011,0.0,-5.1214,-5.1214,-5.1214,-5.1214,-5.1011,-5.0807,-5.0807,-5.0456,-5.0086,-4.9878,-4.9079,-4.8266,-4.704,-4.6204,-4.5167,-4.3997,-4.3628,-4.3295,-4.2974,0.0,0.0,0.0,0.0,0.0,0.0,0.0,0.0,0.0,0.0,0.0,0.0,0.0,0.0,0.0,0.0,0.0,0.0,0.0,0.0,0.0,0.0,0.0,0.0,0.0,0.0,0.0,0.0,0.0,-4.3997,-4.3432,0.0,0.0,0.0,0.0,-4.1148,-3.9989,-3.8823,-3.7616,-3.69,-3.6167,-3.5541,-3.517,-3.4922,-3.4922,-3.4922,-3.5046,-3.5418,-3.6391,-3.7231,-3.7801,-3.9003,-3.9849,-4.0223,-4.1136,-4.1606,-4.1606,-4.1606,-4.1948,-4.2525,-4.2525,-4.275,-4.2974,-4.2974,-4.2974,-4.2974,-4.2974,-4.2974,-4.2974,-4.2974,-4.364,-4.4518,-4.5595,-4.6455,0.0,0.0,-4.7712,-4.761,-4.761,-4.7507,-4.7198,-4.6991,-4.7198,-4.7301,-4.6991,-4.7582,-4.8467,-4.9473,-5.0346,-5.0807,-5.0807,0.0,-5.1214,-5.1214,-5.1214,-5.1214,-5.1214,-5.1011,-5.0807,-5.0807,-5.0567,-5.039,-5.0086,-4.9571,-4.8753,-4.7615,-4.6583,-4.5449,-4.4313,-4.3738,-4.3295,-4.2974,-4.2999,0.0,0.0,0.0,0.0,0.0,0.0,0.0,0.0,0.0,0.0,0.0,0.0,0.0,0.0,0.0,0.0,0.0,0.0,0.0,0.0,0.0,0.0,0.0,0.0,0.0,0.0,0.0,0.0,-4.364,-4.3085,0.0,-4.2638,-4.1972,-4.1287,-4.0571,-3.938,-3.8074,-3.6868,-3.6156,-3.5418,-3.4797,-3.4797,-3.4922,-3.4922,-3.5777,-3.6268,-3.6391,-3.7943,-3.8778,-3.9121,-4.0304,-4.0906,-4.0826,-4.1378,-4.1492,-4.1287,-4.1287,-4.1846,-4.2525,-4.2525,-4.275,-4.2974,-4.2974,-4.2974,-4.2974,-4.2974,-4.2974,-4.3085,-4.364,-4.4409,-4.5274,-4.6007,-4.6651,-4.7198,-4.7198,-4.7198,-4.7198,-4.6991,-4.6991,-4.6991,-4.6887,-4.7391,-4.7787,-4.7671,-4.828,-4.9009,-4.9404,-4.9975,-5.0361,-5.0567,-5.0947,-5.1214,-5.1214,-5.1214,-5.1214,-5.1214,-5.112,-5.1011,-5.1011,-5.1026,-5.0837,-5.0537,-5.0057,-4.936,-4.8223,-4.7102,-4.5966,-4.483,-4.4081,-4.353,-4.3295,-4.3085,-4.2974,0.0,0.0,0.0,0.0,0.0,0.0,0.0,0.0,0.0,0.0,0.0,0.0,0.0,0.0,0.0,0.0,0.0,0.0,0.0,0.0,0.0,0.0,0.0,0.0,0.0,-4.4613,-4.3984,-4.3504,-4.2849,-4.2413,-4.24,-4.1492,-4.0571,-3.9755,-3.8421,-3.7099,-3.6013,-3.5407,-3.5046,-3.4548,-3.517,-3.5541,-3.5777,-3.6989,-3.7594,-3.7823,-3.9368,-4.0199,-4.0432,-4.148,-4.1732,-4.1402,-4.1618,-4.1516,-4.1184,-4.1287,-4.1745,-4.2425,-4.2425,-4.265,-4.2974,-4.2974,-4.2974,-4.2974,-4.2974,-4.3085,-4.3308,-4.3984,-4.4639,-4.5381,-4.6112,-4.6651,-4.7198,-4.7288,-4.7288,-4.7198,-4.7081,-4.7095,-4.6991,-4.6991,-4.748,-4.799,-4.799,-4.8495,-4.9108,-4.9108,-4.9698,-5.0294,-5.0501,-5.0852,-5.1214,-5.1214,-5.1214,-5.1214,-5.1214,-5.1214,-5.1214,-5.1214,-5.1214,-5.112,-5.0917,-5.0537,-4.996,-4.8951,-4.792,-4.6791,-4.5449,-4.4626,-4.3984,-4.3394,-4.3184,-4.2974,-4.2974,0.0,0.0,0.0,0.0,0.0,0.0,0.0,0.0,0.0,0.0,0.0,0.0,0.0,0.0,0.0,0.0,0.0,0.0,0.0,0.0,0.0,0.0,0.0,-4.4722,-4.4203,-4.3776,-4.3394,-4.2849,-4.2287,-4.2049,-4.0882,-3.9721,-3.88,-3.722,-3.589,-3.4922,-3.4922,-3.4922,-3.4922,-3.5921,-3.6778,-3.7385,-3.8324,-3.9144,-3.9721,-4.0675,-4.1263,-4.1606,-4.2287,-4.2174,-4.1606,-4.1972,-4.1757,-4.1299,-4.1504,-4.1846,-4.211,-4.211,-4.2425,-4.2974,-4.2974,-4.2974,-4.2974,-4.2974,-4.3184,-4.3517,-4.3776,-4.4313,-4.4938,-4.5808,-4.6442,-4.7081,-4.7875,-4.7889,-4.7801,-4.8078,-4.7685,-4.7405,-4.7405,-4.761,-4.7815,-4.7815,-4.8193,-4.8595,-4.8895,-4.9795,-5.0501,-5.0501,-5.0852,-5.1214,-5.1214,-5.1214,0.0,-5.1214,-5.1214,-5.1214,-5.1214,-5.1214,-5.1214,-5.1214,-5.0917,-5.0522,-4.9766,-4.8852,-4.7717,-4.6072,-4.514,-4.4274,-4.3394,-4.3073,-4.2974,-4.2974,0.0,0.0,0.0,0.0,0.0,0.0,0.0,0.0,0.0,0.0,0.0,0.0,0.0,0.0,0.0,0.0,0.0,0.0,0.0,0.0,0.0,-4.4055,-4.3823,-4.3725,-4.3419,-4.3085,-4.2737,-4.1822,-4.1009,-4.0767,-3.9345,-3.8171,-3.7473,-3.6391,-3.5294,-3.4548,-3.4797,-3.4922,-3.4922,-3.6401,-3.7385,-3.7758,-3.9391,-4.0211,-4.0443,-4.1594,-4.2174,-4.2287,-4.2638,-4.2638,-4.2287,-4.23,-4.2199,-4.1871,-4.1984,-4.2086,-4.2413,-4.2413,-4.2638,-4.2974,-4.2974,-4.2974,-4.2974,-4.2974,-4.3321,-4.3776,-4.4107,-4.4843,-4.5808,-4.6455,-4.7171,-4.7787,-4.8078,-4.8193,-4.8294,-4.838,-4.8395,-4.8495,-4.8667,-4.9079,-4.9389,-4.9389,-4.9698,-5.0004,-5.0004,-5.0471,-5.0647,-5.0501,-5.0852,-5.1214,-5.1214,-5.1214,-5.1214,-5.1214,-5.1214,-5.1214,-5.1214,-5.1214,-5.1214,-5.1214,-5.0917,-5.0537,-4.9975,-4.9192,-4.8064,-4.661,-4.5569,-4.4383,-4.3073,-4.3085,-4.2974,0.0,0.0,0.0,0.0,0.0,0.0,0.0,0.0,0.0,0.0,0.0,0.0,0.0,0.0,0.0,0.0,0.0,0.0,0.0,0.0,0.0,0.0,-4.3517,-4.3394,-4.3295,-4.2974,-4.2638,-4.24,-4.1366,-4.0443,-3.9838,-3.841,-3.7099,-3.6524,-3.5418,-3.4673,-3.4423,-3.4673,-3.5036,-3.5531,-3.6989,-3.8085,-3.8823,-4.0327,-4.1251,-4.1492,-4.2287,-4.275,-4.275,-4.2862,-4.2862,-4.2525,-4.2525,-4.2312,-4.211,-4.2211,-4.2312,-4.2525,0.0,0.0,0.0,0.0,-4.3085,-4.3184,-4.3184,-4.364,-4.4203,-4.4422,-4.5154,-4.6126,-4.6665,-4.7391,-4.799,-4.8495,-4.8695,-4.8895,-4.9093,-4.9192,-4.9277,-4.9473,-4.9781,-5.0086,-5.0086,-5.0294,-5.0501,-5.0501,-5.0647,0.0,-5.0662,-5.0947,-5.1214,-5.1214,-5.1214,-5.1214,-5.1214,-5.1214,-5.1214,-5.1214,-5.1214,-5.1214,-5.1214,-5.1011,0.0,0.0,0.0,-4.8352,-4.6387,-4.514,0.0,0.0,0.0,-4.2974,-4.2974,-4.2974,0.0,0.0,-4.2974,-4.2974,0.0,0.0,0.0,0.0,0.0,0.0,0.0,0.0,0.0,0.0,0.0,0.0,0.0,0.0,0.0,0.0,-4.3394,-4.3295,-4.2974,-4.2638,-4.23,-4.2061,-4.1136,-4.0083,-3.9133,-3.7583,-3.6391,-3.5798,-3.4548,-3.4047,-3.4423,-3.4797,0.0,0.0,0.0,-3.9026,-4.0223,-4.1263,-4.1948,-4.2525,-4.2862,-4.2974,-4.2974,-4.2974,-4.2862,-4.2525,-4.2525,-4.2425,-4.2211,-4.2413,-4.2525,-4.2525,-4.2525,-4.275,-4.3085,-4.3085,-4.3184,-4.3504,-4.3504,0.0,0.0,-4.483,-4.5475,-4.6231,-4.6769,-4.7405,-4.8106,-4.9108,-4.9404,-4.9502,-5.0086,-4.9975,-4.9863,-4.9863,-5.0072,-5.0183,-5.0183,-5.039,-5.0596,-5.0596,-5.0742,-5.0807,-5.0807,-5.1011,-5.1214,-5.1214,-5.1214,-5.1214,-5.1214,-5.1214,-5.1214,-5.1214,-5.1214,0.0,-5.1214,-5.1214,-5.1041,-5.0501,-4.9781,-4.8209,-4.5608,-4.4505,-4.3666,-4.2974,-4.2974,-4.2974,-4.2974,-4.2974,-4.2974,-4.2974,-4.2974,-4.2862,0.0,0.0,0.0,0.0,0.0,0.0,0.0,0.0,0.0,0.0,0.0,0.0,0.0,0.0,0.0,-4.3073,-4.3085,-4.3085,-4.2974,-4.2538,-4.2086,-4.172,-4.0199,-3.8789,-3.7823,-3.6258,-3.516,-3.4673,-3.4173,-3.4173,-3.4797,-3.5418,-3.6156,-3.7132,-3.8659,-3.9849,-4.0571,-4.172,-4.24,-4.2525,-4.2862,0.0,-4.2974,-4.2974,-4.2974,-4.2862,-4.2862,-4.2862,-4.2874,-4.2862,-4.2862,-4.2862,-4.2862,-4.3073,-4.3283,-4.3283,-4.3628,-4.419,-4.4396,-4.4843,-4.5488,-4.5688,-4.6337,-4.7081,-4.7466,-4.8266,0.0,-4.9473,-4.9892,-5.0294,-5.0632,-5.0618,-5.0618,-5.0837,-5.0932,-5.1026,-5.1026,-5.1041,-5.1026,-5.1026,-5.112,-5.112,-5.112,-5.1214,-5.1214,-5.1214,-5.1214,-5.1214,-5.1214,-5.1214,-5.1214,-5.1214,-5.1214,-5.1214,-5.1214,-5.1214,-5.1041,-5.0501,-4.8738,-4.6985,-4.5608,-4.4505,-4.3666,-4.2974,-4.2974,-4.2974,-4.2974,-4.2974,-4.2974,-4.2974,-4.2974,-4.2862,0.0,0.0,0.0,0.0,0.0,0.0,0.0,0.0,0.0,0.0,0.0,-4.3958,-4.3751,0.0,-4.3184,-4.2974,-4.2974,-4.2974,-4.2974,-4.2425,-4.1859,-4.1378,-3.9849,-3.8444,-3.7484,-3.6023,-3.5046,-3.4922,-3.4548,-3.4787,-3.59,-3.6401,-3.7242,-3.8551,-3.9615,-4.0548,-4.1366,-4.2174,-4.2638,-4.275,-4.2974,-4.2974,-4.2974,-4.2974,-4.2974,-4.2974,-4.2974,-4.3085,-4.3184,-4.353,-4.364,-4.364,-4.3751,-4.3751,-4.364,-4.3958,-4.4492,-4.514,-4.5449,-4.6072,-4.6818,-4.6922,-4.7438,-4.8151,-4.8366,-4.8966,-4.9571,-4.999,-5.0375,-5.0742,-5.0917,-5.1011,-5.1011,-5.1214,-5.096,-5.0735,-5.0735,-5.0466,-5.0242,-5.0242,-5.0242,-5.0242,-5.0242,-5.0242,-5.0346,-5.0676,-5.0451,-5.0242,-5.0242,-5.0242,-5.0242,-5.0242,-5.0242,-5.0242,-5.0242,-5.015,-4.9779,-4.923,-4.7616,-4.6091,-4.4767,-4.3766,-4.2933,-4.2158,-4.2158,-4.2296,-4.2572,-4.2572,-4.271,-4.2974,-4.2862,-4.2525,0.0,0.0,0.0,0.0,0.0,0.0,0.0,-4.4422,-4.4094,-4.4094,-4.3628,-4.3283,-4.3283,-4.3184,-4.2974,-4.2974,-4.2974,-4.2974,-4.2974,-4.2425,-4.1859,-4.1148,-3.9615,-3.8324,-3.7253,-3.6156,-3.5418,-3.5541,-3.5418,-3.59,-3.7231,-3.7605,-3.8551,-3.9966,-4.0675,-4.1366,-4.2174,-4.2413,-4.275,-4.2974,-4.2974,-4.2974,-4.2974,-4.2974,-4.2974,-4.3085,-4.3197,-4.3419,-4.3628,-4.419,-4.4409,-4.4518,-4.483,-4.483,-4.4518,-4.483,-4.5555,-4.6374,-4.6687,-4.741,-4.8237,-4.8338,-4.8624,-4.9106,-4.9216,-4.948,-4.9771,-5.0147,-5.0372,-5.053,-5.0747,-5.084,-5.084,-5.084,-5.0436,-5.0047,-5.0047,-4.9628,-4.9269,-4.9269,-4.9269,-4.9269,-4.9269,-4.9164,-4.9299,-4.9957,-4.9598,-4.9269,-4.9269,-4.9269,-4.9269,-4.9269,-4.9269,-4.9269,-4.9269,-4.9088,-4.8632,-4.7861,-4.6789,-4.5495,-4.4015,-4.3127,-4.2195,-4.1436,-4.1342,-4.1555,-4.1995,-4.1995,-4.2221,-4.266,-4.2326,-4.1977,-4.996,-4.8122,-4.6177,-4.5449,-4.4479,-4.3615,0.0,-4.3406,-4.3209,-4.3209,-4.3085,-4.3085,-4.3085,-4.2974,-4.2974,-4.2974,-4.2974,-4.2974,-4.2974,-4.2425,-4.1745,-4.0803,-3.9368,-3.7823,-3.6624,-3.5777,-3.5552,-3.5798,-3.6401,-3.7231,-3.8563,-3.9144,-3.9849,-4.0906,-4.1594,-4.2061,-4.2413,-4.275,-4.2974,-4.2974,-4.2974,-4.2974,-4.2974,-4.2974,-4.3073,-4.3394,-4.3971,-4.4203,-4.4203,-4.483,-4.5033,-4.514,-4.5861,-4.6269,-4.6478,-4.5966,-4.6478,-4.7513,-4.8021,-4.8639,-4.9164,-4.9459,-4.9669,-4.9873,-4.9303,-4.9522,-4.9779,-4.9215,-4.9312,-4.9479,-4.9479,-4.9479,-4.9479,-4.9479,-4.9434,-4.9374,-4.9374,-4.9314,-4.9269,-4.9269,-4.9269,-4.9269,-4.9269,-4.8775,-4.8626,-4.9269,-4.9314,-4.9269,-4.9269,-4.9269,-4.9269,-4.9269,-4.9269,-4.9269,-4.9269,-4.9088,-4.8617,-4.8126,-4.6871,-4.5692,-4.461,-4.3322,-4.2288,-4.1638,-4.1436,-4.1367,-4.143,-4.143,-4.1467,-4.1517,-4.0988,-4.1053,-4.8424,-4.6791,-4.5342,-4.483,-4.4068,-4.3394,-4.3394,-4.3184,-4.2974,-4.2974,-4.2974,-4.2974,-4.2974,-4.2974,-4.2974,-4.2974,-4.2974,-4.2974,-4.2974,-4.2425,-4.1745,-4.0803,-3.9627,-3.8324,-3.7121,-3.6412,-3.629,-3.7021,-3.7484,-3.8302,-3.9861,-4.0083,-4.0779,-4.1834,-4.2174,-4.2513,-4.275,-4.2974,-4.2974,-4.2974,-4.2974,-4.2974,-4.2974,-4.2974,-4.3197,-4.3764,-4.4396,-4.4925,-4.5342,-4.6164,-4.6687,-4.6881,-4.7485,-4.8007,-4.8223,-4.7615,-4.792,-4.8596,-4.8747,-4.9213,-4.9648,-4.936,-4.943,-4.9571,-4.9304,-4.9399,-4.9537,-4.9163,-4.9179,-4.9269,-4.9269,-4.9269,-4.9269,-4.9269,-4.897,-4.8701,-4.8701,-4.8401,-4.8132,-4.8132,-4.8132,-4.8132,-4.8132,-4.7893,-4.7803,-4.8087,-4.8132,-4.8132,-4.8132,-4.8132,-4.8132,-4.8132,-4.8132,-4.8132,-4.8132,-4.8044,-4.7674,-4.7014,-4.6267,-4.5113,-4.365,-4.2597,-4.171,-4.0768,-4.048,-4.0538,-4.0865,-4.0865,-4.1028,-4.1342,-4.0706,-4.0612,-4.7102,-4.5755,-4.4722,-4.419,-4.3628,-4.3295,-4.3295,-4.3184,-4.2974,-4.2974,-4.2974,-4.2974,-4.2974,-4.2974,-4.2974,-4.2974,-4.2974,-4.2974,-4.2974,-4.2538,-4.1859,-4.0918,-4.0106,-3.9167,-3.7976,-3.7374,-3.7253,-3.8216,-3.8682,-3.9603,-4.1021,-4.1136,-4.1606,-4.2638,-4.2638,-4.275,-4.2974,-4.2974,-4.2974,-4.2974,-4.3085,-4.3085,-4.3085,-4.3406,-4.3861,-4.4435,-4.5368,-4.5993,-4.6401,-4.7527,-4.8035,-4.8338,-4.8923,-4.9231,-4.9198,-4.889,-4.9086,-4.9306,-4.9077,-4.9341,-4.9637,-4.9161,-4.9179,-4.9239,-4.9045,-4.9,-4.8955,-4.8775,-4.873,-4.873,-4.873,-4.873,-4.873,-4.873,-4.8356,-4.8012,-4.8012,-4.7638,-4.7309,-4.7309,-4.7309,-4.7309,-4.7309,-4.7309,-4.7309,-4.7309,-4.7309,-4.7309,-4.7309,-4.7309,-4.7309,-4.7309,-4.7309,-4.7309,-4.7309,-4.7309,-4.7033,-4.6388,-4.5851,-4.4911,-4.3259,-4.2333,-4.1471,-4.0491,-4.0096,-4.0092,-4.0379,-4.0379,-4.0593,-4.089,-4.0356,-4.0033,-4.6374,-4.514,-4.419,-4.3615,-4.3184,-4.2974,-4.2974,-4.2974,-4.2974,-4.2974,-4.2974,-4.2974,-4.2974,-4.2974,-4.2974,-4.2974,-4.2974,-4.2974,-4.2974,-4.275,-4.2187,-4.1148,-4.0548,-3.9966,-3.9297,-3.8682,-3.854,-3.9262,-4.0083,-4.1021,-4.2049,-4.2287,-4.2638,-4.2974,-4.2974,-4.2974,-4.2974,-4.2974,-4.2974,-4.2974,-4.3295,-4.3394,-4.3394,-4.4479,-4.5261,-4.5595,-4.6769,-4.7198,-4.7301,-4.8395,-4.8895,-4.8994,-4.9781,-4.9706,-4.9165,-4.9636,-4.9715,-4.9425,-4.9067,-4.9133,-4.9299,-4.9269,-4.9269,-4.9149,-4.8506,-4.8312,-4.8177,-4.7534,-4.7369,-4.7369,-4.7369,-4.7369,-4.7369,-4.7369,-4.7354,-4.7339,-4.7339,-4.7309,-4.7309,-4.7309,-4.7309,-4.7309,-4.7309,-4.7309,-4.7309,-4.7309,-4.7309,-4.7309,-4.7309,-4.7309,-4.7309,-4.7309,-4.7309,-4.7309,-4.7309,-4.7309,-4.7207,-4.6931,-4.6195,-4.5355,-4.4312,-4.3081,-4.2039,-4.1311,-4.0707,-4.0402,-4.0096,-4.0096,-4.0019,-3.9747,-3.9424,-3.9216,-4.5342,-4.4492,-4.3628,-4.3184,-4.3085,-4.2974,-4.2974,-4.2974,-4.2974,-4.2974,-4.2974,-4.2974,-4.2974,-4.2974,-4.2974,-4.2974,-4.2974,-4.2974,-4.2974,-4.275,-4.2287,-4.1822,-4.1366,-4.1021,-4.0571,-3.9732,-3.9486,-4.0199,-4.0906,-4.1594,-4.2287,-4.2413,-4.2638,-4.2974,-4.2974,-4.2974,-4.2974,-4.2974,-4.3085,-4.3295,-4.3958,-4.4396,-4.4587,-4.5542,-4.6072,-4.6506,-4.7541,-4.8266,-4.8681,-4.9585,-5.0072,-5.0191,-5.0159,-5.0065,-4.9768,-4.9088,-4.876,-4.873,-4.8522,-4.8522,-4.8536,-4.8102,-4.7967,-4.7923,-4.7698,-4.7638,-4.7593,-4.7369,-4.7309,-4.7309,-4.7309,-4.7309,-4.7309,-4.7309,-4.7309,-4.7309,-4.7309,-4.7309,-4.7309,-4.7309,-4.7309,-4.7309,-4.7309,-4.7309,-4.7309,-4.7309,-4.7309,-4.7309,-4.7309,-4.7309,-4.7309,-4.7309,-4.7309,-4.7309,-4.7309,-4.7309,-4.7207,-4.6916,-4.6388,-4.5642,-4.4591,-4.3477,-4.2541,-4.1597,-4.0997,-4.0593,-4.007,-4.007,-3.9981,-3.9685,-3.9374,-3.9258,-4.4626,-4.3958,-4.3283,-4.3085,-4.2974,-4.2974,-4.2974,-4.2974,-4.2974,-4.2974,-4.2974,-4.2974,-4.2974,-4.2974,-4.2974,-4.2974,-4.2974,-4.2974,-4.2974,-4.2862,-4.2525,-4.2287,-4.2061,-4.1834,-4.1504,-4.1021,-4.0894,-4.1136,-4.1606,-4.2174,-4.2638,-4.2638,-4.275,-4.2974,-4.3085,-4.3184,-4.3184,-4.3308,-4.3751,-4.4165,-4.4817,-4.5449,-4.6072,-4.6791,-4.7308,-4.7717,-4.8639,-4.9262,-4.9669,-5.0361,-5.0514,-5.0436,-5.0299,-4.9957,-4.9434,-4.8596,-4.8132,-4.7938,-4.7938,-4.7938,-4.7863,-4.7444,-4.7309,-4.7309,-4.7309,-4.7309,-4.7309,-4.7309,-4.7309,-4.7309,-4.7309,-4.7309,-4.7309,-4.7309,-4.7309,-4.7309,-4.7309,-4.7309,-4.7309,-4.7309,-4.7309,-4.7309,-4.7309,-4.7309,-4.7309,-4.7309,-4.7309,-4.7309,-4.7309,-4.7381,-4.7381,-4.7381,-4.7467,-4.7467,-4.7396,-4.7381,-4.7294,-4.7019,-4.6653,-4.6016,-4.5003,-4.4139,-4.3204,-4.2007,-4.1584,-4.0984,-4.0287,-4.0287,-4.0096,-3.9697,-3.9478,-3.9478,-4.4107,-4.364,-4.3283,-4.3085,-4.2974,-4.2974,-4.2974,-4.2974,-4.2974,-4.2974,-4.2974,-4.2974,-4.2974,-4.2974,-4.2974,-4.2974,-4.2974,-4.2974,-4.2974,-4.2974,-4.2862,-4.2525,-4.2525,-4.2425,-4.2211,-4.2425,-4.24,-4.2174,-4.24,-4.2638,-4.2974,-4.2974,-4.2974,-4.2974,-4.3295,-4.3394,-4.3394,-4.4081,-4.4856,-4.5702,-4.598,-4.6687,-4.7717,-4.8237,-4.8852,-4.936,-4.9878,-5.0183,-5.0183,-5.0632,-5.0436,-4.998,-5.012,-4.9404,-4.8282,-4.8252,-4.7848,-4.7309,-4.7309,-4.7309,-4.7309,-4.7309,-4.7309,-4.7309,-4.7309,-4.7309,-4.7309,-4.7309,-4.7309,-4.7309,-4.7309,-4.7309,-4.7309,-4.7309,-4.7309,-4.7309,-4.7309,-4.7309,-4.7309,-4.7309,-4.7309,-4.7309,-4.7309,-4.7309,-4.7309,-4.7309,-4.7309,-4.7309,-4.7294,-4.7467,-4.7624,-4.7624,-4.788,-4.788,-4.7624,-4.7639,-4.7538,-4.7294,-4.7019,-4.6476,-4.5595,-4.5003,-4.4059,-4.2595,-4.2289,-4.1584,-4.0504,-4.0504,-4.0198,-3.9697,-3.9697,-3.9697,-4.3738,-4.3308,-4.3085,-4.2974,-4.2974,-4.2974,-4.2974,-4.2974,-4.2974,-4.2974,-4.2974,-4.2974,-4.2974,-4.2974,-4.2974,-4.2974,-4.2974,-4.2974,-4.2974,-4.2974,-4.2974,-4.2862,-4.2862,-4.2862,-4.2762,-4.2862,-4.2862,-4.275,-4.2862,-4.2862,-4.2974,-4.2974,-4.2974,-4.2974,-4.3295,-4.3517,-4.3776,-4.4925,-4.5861,-4.6492,-4.741,-4.8035,-4.8581,-4.9375,-4.9781,-4.9878,-5.0442,-5.0632,-5.0632,-5.0932,-5.0732,-5.0105,-4.9703,-4.9015,-4.8222,-4.7743,-4.7459,-4.7309,-4.7309,-4.7309,-4.7309,-4.7309,-4.7309,-4.7309,-4.7309,-4.7309,-4.7309,-4.7309,-4.7309,-4.7309,-4.7309,-4.7309,-4.7309,-4.7309,-4.7309,-4.7309,-4.7309,-4.7309,-4.7309,-4.7309,-4.7309,-4.7309,-4.7309,-4.7309,-4.7309,-4.7309,-4.7309,-4.7381,-4.7467,-4.7709,-4.7964,-4.8133,-4.8202,-4.8133,-4.788,-4.7709,-4.7538,-4.7294,-4.7019,-4.6653,-4.6046,-4.5384,-4.4448,-4.3328,-4.2666,-4.1895,-4.0795,-4.0605,-4.0198,-3.9697,-3.9697,-3.9697,-4.3295,-4.3085,-4.2974,-4.2974,-4.2974,-4.2974,-4.2974,-4.2974,-4.2974,-4.2974,-4.2974,-4.2974,-4.2974,-4.2974,-4.2974,-4.2974,-4.2974,-4.2974,-4.2974,-4.2974,-4.2974,-4.2974,-4.2974,-4.2974,-4.2974,-4.2974,-4.2974,-4.2974,-4.2974,-4.2974,-4.2974,-4.2974,-4.3085,-4.3184,-4.3628,-4.4274,-4.5342,-4.6374,-4.7205,-4.792,-4.8639,-4.9164,-4.96,-5.0168,-5.0456,-5.0552,-5.0822,-5.1011,-5.0981,-5.0807,-5.0406,-4.9748,-4.909,-4.8431,-4.7818,-4.7444,-4.7309,-4.7309,-4.7309,-4.7309,-4.7309,-4.7309,-4.7309,-4.7309,-4.7309,-4.7309,-4.7309,-4.7309,-4.7309,-4.7309,-4.7309,-4.7309,-4.7309,-4.7309,-4.7309,-4.7309,-4.7309,-4.7309,-4.7309,-4.7309,-4.7309,-4.7309,-4.7309,-4.7309,-4.7309,-4.7309,-4.7309,-4.7467,-4.788,-4.8133,-4.837,-4.8537,-4.8785,-4.8785,-4.8453,-4.8133,-4.7794,-4.7467,-4.7207,-4.6844,-4.621,-4.5761,-4.5018,-4.379,-4.3232,-4.236,-4.1071,-4.0795,-4.03,-3.9697,-3.9697,-3.9697,-4.3085,-4.2974,-4.2974,-4.2974,-4.2974,-4.2974,-4.2974,-4.2974,-4.2974,-4.2974,-4.2974,-4.2974,-4.2974,-4.2974,-4.2974,-4.2974,-4.2974,-4.2974,-4.2974,-4.2974,-4.2974,-4.2974,-4.2974,-4.2974,-4.2974,-4.2974,-4.2974,-4.2974,-4.2974,-4.2974,-4.2974,-4.2974,-4.3197,-4.3504,-4.4177,-4.5449,-4.7308,-4.792,-4.8539,-4.936,-4.9669,-5.0072,-5.0581,-5.0742,-5.1011,-5.1214,-5.1214,-5.1214,-5.1169,-5.0511,-4.9853,-4.9284,-4.8625,-4.7965,-4.7396,-4.7381,-4.7309,-4.7309,-4.7309,-4.7309,-4.7309,-4.7309,-4.7309,-4.7309,-4.7309,-4.7309,-4.7309,-4.7309,-4.7309,-4.7309,-4.7309,-4.7309,-4.7309,-4.7309,-4.7309,-4.7309,-4.7309,-4.7309,-4.7309,-4.7309,-4.7309,-4.7309,-4.7309,-4.7309,-4.7309,-4.7309,-4.7309,-4.7553,-4.8202,-4.8537,-4.8769,-4.9015,-4.9421,-4.9437,-4.9015,-4.8537,-4.8133,-4.7624,-4.7381,-4.7033,-4.6299,-4.6314,-4.5566,-4.4261,-4.3885,-4.2916,-4.1458,-4.1185,-4.0593,-3.9788,-3.9788,-3.9697,-4.3209,-4.2974,-4.2974,-4.2974,-4.2974,-4.2974,-4.2974,-4.2974,-4.2974,-4.2974,-4.2974,-4.2974,-4.2974,-4.2974,-4.2974,-4.2974,-4.2974,-4.2974,-4.2974,-4.2974,-4.2974,-4.2974,-4.2974,-4.2974,-4.2974,-4.2974,-4.2974,-4.2974,-4.2974,-4.2974,-4.2974,-4.2974,-4.3419,-4.4396,-4.5235,-4.6374,-4.7819,-4.8639,-4.936,-4.999,-5.0442,-5.0618,-5.0728,-5.1011,-5.112,-5.1214,-5.1214,-5.1214,-5.1169,-5.0511,-4.9929,-4.9448,-4.8786,-4.8298,-4.788,-4.7639,-4.7553,-4.7553,-4.7381,-4.7309,-4.7309,-4.7309,-4.7309,-4.7309,-4.7309,-4.7309,-4.7309,-4.7309,-4.7309,-4.7309,-4.7309,-4.7309,-4.7309,-4.7309,-4.7309,-4.7309,-4.7309,-4.7309,-4.7309,-4.7309,-4.7309,-4.7309,-4.7309,-4.7309,-4.7309,-4.7309,-4.7309,-4.7553,-4.8202,-4.8589,-4.9147,-4.9884,-4.99,-4.9757,-4.9517,-4.8769,-4.8133,-4.7624,-4.7381,-4.7121,-4.6829,-4.658,-4.6135,-4.5216,-4.4648,-4.3586,-4.2222,-4.1769,-4.0984,-4.0083,-4.0083,-3.9878,-4.3406,-4.3184,-4.3184,-4.2974,-4.3085,-4.3184,-4.3184,-4.3308,-4.3432,-4.3184,-4.3184,-4.3184,-4.2974,-4.2974,-4.2974,-4.2974,-4.2974,-4.2974,-4.2974,-4.2974,-4.2974,-4.2974,-4.2974,-4.2974,-4.2974,-4.2974,-4.2974,-4.2974,-4.2974,-4.2974,-4.2974,-4.3419,-4.4177,-4.5342,-4.6478,-4.7615,-4.8852,-4.964,-5.025,-5.0662,-5.0917,-5.1011,-5.1011,-5.112,-5.1214,-5.1214,-5.1214,-5.102,-5.0661,-5.0002,-4.9434,-4.9025,-4.8362,-4.8082,-4.7964,-4.788,-4.7709,-4.7553,-4.7467,-4.7381,-4.7309,-4.7309,-4.7309,-4.7309,-4.7309,-4.7309,-4.7309,-4.7309,-4.7309,-4.7309,-4.7309,-4.7309,-4.7309,-4.7309,-4.7309,-4.7309,-4.7309,-4.7309,-4.7309,-4.7309,-4.7309,-4.7309,-4.7309,-4.7309,-4.7309,-4.7309,-4.7309,-4.7553,-4.837,-4.8836,-4.9374,-5.012,-5.023,-5.0089,-4.9757,-4.9128,-4.8401,-4.7794,-4.7553,-4.7279,-4.6916,-4.6844,-4.6403,-4.57,-4.5216,-4.4261,-4.2819,-4.2444,-4.167,-4.0478,-4.0478,-4.0287,-4.3738,-4.3517,-4.3419,-4.3209,-4.3308,-4.3517,-4.3517,-4.3764,-4.3776,-4.3517,-4.3394,-4.3283,-4.3085,-4.2974,-4.2974,-4.2974,-4.2974,-4.2974,-4.2974,-4.2974,-4.2974,-4.2974,-4.2974,-4.2974,-4.2974,-4.2974,-4.2974,-4.3085,-4.3197,-4.3197,-4.3085,-4.3861,-4.4938,-4.6072,-4.741,-4.8639,-4.9781,-5.0427,-5.0917,-5.1214,-5.1214,-5.1214,-5.1214,-5.1214,-5.1214,-5.1214,-5.1214,-5.0855,-5.0182,-4.9538,-4.9059,-4.8645,-4.7981,-4.788,-4.8133,-4.8049,-4.788,-4.7709,-4.7639,-4.7467,-4.7309,-4.7309,-4.7309,-4.7309,-4.7309,-4.7309,-4.7309,-4.7309,-4.7309,-4.7309,-4.7309,-4.7309,-4.7309,-4.7309,-4.7309,-4.7309,-4.7309,-4.7309,-4.7309,-4.7309,-4.7309,-4.7309,-4.7309,-4.7309,-4.7309,-4.7309,-4.7309,-4.7639,-4.8453,-4.8984,-4.947,-5.0292,-5.048,-5.0418,-4.9995,-4.9387,-4.8733,-4.8049,-4.7709,-4.7452,-4.7019,-4.7019,-4.6668,-4.615,-4.5866,-4.5018,-4.3586,-4.3314,-4.2444,-4.1172,-4.1084,-4.0681,-4.4396,-4.3997,-4.3887,-4.3789,-4.3789,-4.3887,-4.3887,-4.3899,-4.3776,-4.3517,-4.3394,-4.3283,-4.3085,-4.2974,-4.2974,-4.2974,-4.2974,-4.2974,-4.2974,-4.2974,-4.2974,-4.2974,-4.2974,-4.2974,-4.2974,-4.2974,-4.3085,-4.3283,-4.3861,-4.3971,-4.3394,-4.4177,-4.514,-4.6374,-4.7615,-4.8951,-5.0086,-5.0537,-5.0917,-5.1214,-5.1214,-5.1214,-5.1214,-5.1214,-5.1214,-5.1214,-5.1214,-5.0855,-5.0182,-4.9538,-4.9148,-4.8936,-4.8238,-4.8202,-4.8537,-4.837,-4.8133,-4.7964,-4.7709,-4.7467,-4.7309,-4.7309,-4.7309,-4.7309,-4.7309,-4.7309,-4.7309,-4.7309,-4.7309,-4.7309,-4.7309,-4.7309,-4.7309,-4.7309,-4.7309,-4.7309,-4.7309,-4.7309,-4.7309,-4.7309,-4.7309,-4.7309,-4.7309,-4.7309,-4.7309,-4.7309,-4.7309,-4.7639,-4.8453,-4.8984,-4.963,-5.0743,-5.0666,-5.048,-5.0198,-4.9452,-4.8733,-4.8049,-4.7709,-4.7467,-4.7294,-4.7294,-4.7121,-4.6829,-4.658,-4.5941,-4.4883,-4.4448,-4.3491,-4.194,-4.167,-4.1084,-4.5542,-4.5046,-4.4653,-4.4422,-4.4531,-4.4653,-4.4653,-4.4653,-4.4531,-4.4081,-4.3751,-4.3543,-4.3098,-4.2974,-4.2974,-4.2974,0.0,0.0,-4.2974,-4.2974,-4.2974,-4.2974,-4.2974,-4.2974,-4.2974,-4.3184,-4.3517,-4.4177,-4.4505,-4.4925,-4.5208,-4.5542,-4.6269,-4.7513,-4.8639,-4.9654,-5.0537,-5.0822,-5.112,-5.1214,-5.1214,-5.1214,-5.1214,-5.1214,-5.1214,-5.1199,-5.0795,-5.0257,-4.9598,-4.894,-4.8458,-4.8188,-4.8071,-4.8202,-4.8453,-4.8453,-4.8286,-4.7964,-4.788,-4.7639,-4.7309,-4.7309,-4.7309,-4.7309,-4.7309,-4.7309,-4.7309,-4.7309,-4.7309,-4.7309,-4.7309,-4.7309,-4.7309,-4.7309,-4.7309,-4.7309,-4.7309,-4.7309,-4.7309,-4.7309,-4.7309,-4.7309,-4.7309,-4.7381,-4.7467,-4.7467,-4.7709,-4.8202,-4.8934,-4.9486,-5.0182,-5.1135,-5.0956,-5.065,-5.037,-4.9757,-4.9047,-4.8218,-4.7964,-4.7724,-4.7309,-4.7309,-4.7207,-4.6916,-4.6844,-4.6299,-4.5384,-4.5018,-4.4073,-4.2722,-4.2373,-4.1597,-4.661,-4.6007,-4.5488,-4.5368,-4.5488,-4.5595,-4.5595,-4.5395,-4.5072,-4.4422,-4.4107,-4.3776,-4.3197,-4.3085,-4.3197,0.0,0.0,-4.3197,-4.3209,-4.3197,-4.3197,-4.3209,-4.3321,-4.3321,-4.3321,-4.3628,-4.4274,-4.5033,-4.5555,-4.6164,-4.6998,-4.7205,-4.7717,-4.8524,-4.936,-5.0154,-5.0807,-5.1105,-5.1214,-5.1214,-5.1308,-5.1308,-5.1308,-5.1416,-5.1416,-5.1278,-5.0618,-4.9959,-4.9224,-4.8566,-4.798,-4.7639,-4.781,-4.8079,-4.8332,-4.8545,-4.8439,-4.8131,-4.794,-4.7639,-4.7309,-4.7309,-4.7309,-4.7309,-4.7309,-4.7309,-4.7309,-4.7309,-4.7309,-4.7309,-4.7309,-4.7309,-4.7309,-4.7309,-4.7309,-4.7309,-4.7309,-4.7309,-4.7309,-4.7309,-4.7309,-4.7309,-4.7309,-4.7467,-4.7639,-4.7724,-4.8133,-4.8604,-4.934,-4.9963,-5.0647,-5.1475,-5.1301,-5.1032,-5.0586,-5.0058,-4.9275,-4.837,-4.8133,-4.7794,-4.7309,-4.7309,-4.7207,-4.7019,-4.7019,-4.6653,-4.5941,-4.5489,-4.4727,-4.3491,-4.286,-4.1796,-4.748,-4.686,-4.6428,-4.6728,-4.6637,-4.6428,-4.6428,-4.602,-4.5381,-4.4531,-4.4107,-4.3776,-4.3517,-4.3394,-4.3517,-4.3899,0.0,0.0,-4.3899,-4.364,-4.3517,-4.3887,-4.3899,-4.3899,-4.3899,-4.4613,-4.5342,-4.5966,-4.6998,-4.7819,-4.8338,-4.9164,-4.9444,-4.8795,-4.9654,-5.0361,-5.0807,-5.1105,-5.1214,-5.1214,-5.1494,-5.1587,-5.1587,-5.1895,-5.188,-5.1542,-5.0879,-5.0125,-4.9224,-4.8566,-4.798,-4.7639,-4.7684,-4.7885,-4.8186,-4.8523,-4.8606,-4.8511,-4.789,-4.7497,-4.7309,-4.7309,-4.7309,-4.7309,-4.7309,-4.7309,-4.7309,-4.7309,-4.7309,-4.7309,-4.7309,-4.7309,-4.7309,-4.7309,-4.7309,-4.7309,-4.7309,-4.7309,-4.7309,-4.7309,-4.7309,-4.7309,-4.7309,-4.7467,-4.7709,-4.7964,-4.837,-4.8934,-4.9789,-5.0276,-5.0876,-5.1915,-5.1891,-5.1524,-5.0876,-5.0198,-4.9437,-4.837,-4.8133,-4.7794,-4.7309,-4.7309,-4.7309,-4.7309,-4.7309,-4.7121,-4.6916,-4.6106,-4.5264,-4.4219,-4.3012,-4.1471,-4.8767,-4.8179,-4.7657,-4.7875,-4.7875,-4.7875,-4.7875,-4.7335,-4.6701,-4.5861,-4.514,-4.4613,-4.4396,-4.419,-4.4081,-4.4409,0.0,0.0,-4.4409,-4.4505,-4.46,-4.4722,-4.4912,-4.5114,-4.5555,-4.5966,-4.6687,-4.7615,-4.8151,-4.8767,-4.9571,-4.9781,-4.9975,-4.996,-5.0346,-5.0728,-5.1105,-5.112,-5.1214,-5.1214,-5.1494,-5.1587,-5.1587,-5.1895,-5.188,-5.1527,-5.0412,-4.9719,-4.9179,-4.8072,-4.7489,-4.7396,-4.7598,-4.7624,-4.7634,-4.8025,-4.8177,-4.8142,-4.7936,-4.7658,-4.7309,-4.7309,-4.7309,-4.7309,-4.7309,-4.7309,-4.7309,-4.7309,-4.7309,-4.7309,-4.7309,-4.7309,-4.7309,-4.7309,-4.7309,-4.7309,-4.7309,-4.7309,-4.7309,-4.7309,-4.7309,-4.7309,-4.7309,-4.7639,-4.7964,-4.8202,-4.8949,-4.9741,-5.0416,-5.1086,-5.1769,-5.2362,-5.2236,-5.1875,-5.1236,-5.0493,-4.9661,-4.8604,-4.8218,-4.7794,-4.7309,-4.7309,-4.7309,-4.7309,-4.7309,-4.7207,-4.6916,-4.6195,-4.4883,-4.3012,-4.215,-4.0984,-4.9669,-4.9178,-4.8781,-4.9093,-4.898,-4.8881,-4.8781,-4.8352,-4.7615,-4.6791,-4.6072,-4.5555,-4.5261,-4.5046,-4.5059,-4.5475,-4.5368,-4.5261,-4.5555,-4.5662,-4.5648,-4.5861,-4.6045,-4.636,-4.6998,-4.7205,-4.7819,-4.8852,-4.9277,-4.9795,-5.0361,-5.0456,-5.0567,-5.0772,-5.0837,-5.0917,-5.1214,-5.1214,-5.1214,-5.1214,-5.1665,-5.1849,-5.1849,-5.2322,-5.2184,-5.1607,-5.0334,-4.9551,0.0,-4.7743,-4.7309,-4.7309,-4.7497,-4.7437,-4.7362,-4.7609,-4.7699,-4.7703,-4.7703,-4.7557,-4.7309,-4.7309,-4.7309,-4.7309,-4.7309,-4.7309,-4.7309,-4.7309,-4.7309,-4.7309,-4.7309,-4.7309,-4.7309,-4.7309,-4.7309,-4.7309,-4.7309,-4.7309,-4.7309,-4.7309,-4.7309,-4.7309,-4.7309,-4.7724,-4.8133,-4.837,-4.934,-5.0292,-5.0935,-5.1696,-5.2291,-5.2661,-5.2378,-5.1915,-5.1327,-5.057,-4.9646,-4.8537,-4.8133,-4.7709,-4.7309,-4.7309,-4.7309,-4.7309,-4.7309,-4.7207,-4.6916,-4.5808,-4.4219,-4.2248,-4.1471,-4.058,0.0,-4.9975,-4.9781,-5.0072,-4.9975,-4.9669,-4.9459,-4.8951,0.0,-4.7205,-4.6791,-4.6492,-4.6204,-4.6112,-4.6323,-4.6832,-4.6533,-4.6414,-4.7205,-4.6895,-4.6791,-4.7308,-4.741,-4.7615,-4.8122,-4.8338,-4.8852,-4.9669,-5.0279,-5.0567,-5.0807,-5.1011,-5.1214,-5.1214,-5.0917,-5.0917,-5.1214,-5.1214,-5.1214,-5.1214,-5.1941,-5.2306,-5.2382,-5.3113,-5.2844,-5.1667,-5.0769,-4.9661,-4.8588,-4.7665,-4.7309,-4.7309,-4.7309,-4.7309,-4.7309,-4.7309,-4.7309,-4.7309,-4.7309,-4.7309,-4.7309,-4.7309,-4.7309,-4.7309,-4.7309,-4.7309,-4.7309,-4.7309,-4.7309,-4.7309,-4.7309,-4.7309,-4.7309,-4.7309,-4.7309,-4.7309,-4.7309,-4.7309,-4.7309,-4.7309,-4.7309,-4.7309,-4.7309,-4.7724,-4.8133,-4.8537,-4.9566,-5.0493,-5.1311,-5.1931,-5.2466,-5.2834,-5.2291,-5.1696,-5.1043,-5.0338,-4.9405,-4.837,-4.788,-4.7553,-4.7309,-4.7309,-4.7309,-4.7309,-4.7309,-4.7121,-4.6829,-4.5144,-4.345,-4.194,-4.1272,-4.0491,-5.0932,0.0,-5.0375,-5.0537,-5.0618,-5.0522,0.0,-5.025,-4.9781,-4.9164,-4.8438,-4.7934,-4.7962,-4.7554,-4.7452,-4.7976,-4.7976,-4.805,-4.841,-4.8524,-4.8738,-4.905,-4.9149,-4.9262,-4.9571,-4.9669,-4.996,-5.0522,-5.0632,-5.0822,-5.112,-5.1214,-5.1214,-5.1214,-5.112,-5.112,-5.1214,-5.1214,-5.1214,-5.1214,-5.1941,-5.2397,-5.2667,-5.329,-5.3003,-5.1884,-5.103,-5.0013,-4.8872,-4.7812,-4.7309,-4.7309,-4.7309,-4.7309,-4.7309,-4.7309,-4.7309,-4.7309,-4.7309,-4.7309,-4.7309,-4.7309,-4.7309,-4.7309,-4.7309,-4.7309,-4.7309,-4.7309,-4.7309,-4.7309,-4.7309,-4.7309,-4.7309,-4.7309,-4.7309,-4.7309,-4.7309,-4.7309,-4.7309,-4.7309,-4.7309,-4.7309,-4.7309,-4.7724,-4.8202,-4.8754,-4.971,-5.0816,-5.1769,-5.2236,-5.2553,-5.2661,-5.1987,-5.1161,-5.026,-4.99,-4.9259,-4.837,-4.788,-4.7553,-4.7309,-4.7309,-4.7309,-4.7309,-4.7121,-4.6565,-4.5866,-4.4791,-4.3464,-4.1782,-4.1185,-4.0491,-5.1214,-5.1041,-5.0852,-5.0932,-5.1011,-5.0917,-5.0807,-5.0728,-5.0456,-4.9975,-4.9473,-4.9164,-4.9079,-4.8767,-4.8767,-4.9192,-4.9079,-4.9178,-4.9332,-4.9669,-4.9878,-5.0086,-5.0086,-5.0183,-5.0361,-5.0456,-5.0537,-5.0917,-5.1011,-5.1011,-5.1214,-5.1214,-5.1214,-5.1214,-5.1214,-5.1214,-5.1214,-5.1214,-5.1214,-5.1214,-5.2033,-5.2577,-5.2831,-5.3624,-5.3411,-5.2307,-5.1701,-5.0328,-4.8556,-4.7632,-4.7309,-4.7309,-4.7309,-4.7309,-4.7309,-4.7309,-4.7309,-4.7309,-4.7309,-4.7309,-4.7309,-4.7309,-4.7309,-4.7309,-4.7309,-4.7309,-4.7309,-4.7309,-4.7309,-4.7309,-4.7309,-4.7309,-4.7309,-4.7309,-4.7309,-4.7309,-4.7309,-4.7309,-4.7309,-4.7309,-4.7309,-4.7309,-4.7381,-4.7794,-4.837,-4.9081,-5.0104,-5.1027,-5.1915,-5.2378,-5.2537,-5.2362,-5.1606,-5.0783,-4.9805,-4.9259,-4.8702,-4.8049,-4.7624,-4.7381,-4.7294,-4.7309,-4.7207,-4.7121,-4.6565,-4.5851,-4.5095,-4.4031,-4.2806,-4.1484,-4.0883,-4.0185,-5.1214,-5.1214,-5.1214,-5.1214,-5.1214,-5.112,-5.0917,-5.0902,-5.0728,-5.0375,-5.0279,-5.0168,-4.9863,-4.9863,-4.9878,-5.0168,-5.0072,-4.9975,-5.0279,-5.0486,-5.0596,-5.0596,-5.0596,-5.0662,-5.0807,-5.0902,-5.0917,-5.1214,-5.1214,-5.1214,-5.1214,-5.1214,-5.1214,-5.1214,-5.1214,-5.1214,-5.1214,-5.1214,-5.1214,-5.1214,-5.2215,-5.2831,-5.3098,-5.4024,-5.386,-5.2774,-5.2466,-5.0761,-4.808,-4.7493,-4.7279,-4.7309,-4.7309,-4.7309,-4.7309,-4.7309,-4.7309,-4.7309,-4.7309,-4.7309,-4.7309,-4.7309,-4.7309,-4.7309,-4.7309,-4.7309,-4.7309,-4.7309,-4.7309,-4.7309,-4.7309,-4.7309,-4.7309,-4.7309,-4.7309,-4.7309,-4.7309,-4.7309,-4.7309,-4.7309,-4.7309,-4.7381,-4.7553,-4.8049,-4.862,-4.9501,-5.0509,-5.1327,-5.1987,-5.2362,-5.2362,-5.1987,-5.1161,-5.0338,-4.9517,-4.8702,-4.8049,-4.7553,-4.7381,-4.7309,-4.7309,-4.7294,-4.7121,-4.6844,-4.5941,-4.5201,-4.4606,-4.3081,-4.2025,-4.1272,-4.0478,-3.9981,-5.1214,-5.1214,-5.1214,-5.1214,-5.1214,-5.1214,-5.112,-5.112,-5.112,-5.1026,-5.0822,-5.0713,-5.0618,-5.0456,-5.0486,-5.0632,-5.0822,-5.1026,-5.1041,-5.1026,-5.1135,-5.1135,-5.1135,-5.112,-5.112,-5.112,-5.112,-5.1214,-5.1214,-5.1214,-5.1214,-5.1214,-5.1214,-5.1214,-5.1214,-5.1214,-5.1214,-5.1214,-5.1214,-5.1214,-5.2215,-5.2905,-5.3315,-5.4205,-5.4013,-5.3115,-5.279,-5.11,-4.8492,-4.7634,-4.7291,-4.7309,-4.7309,-4.7309,-4.7309,-4.7309,-4.7309,-4.7309,-4.7309,-4.7309,-4.7309,-4.7309,-4.7309,-4.7309,-4.7309,-4.7309,-4.7309,-4.7309,-4.7309,-4.7309,-4.7309,-4.7309,-4.7309,-4.7309,-4.7309,-4.7309,-4.7309,-4.7309,-4.7309,-4.7309,-4.7309,-4.7381,-4.7553,-4.8118,-4.8852,-4.9725,-5.0707,-5.1549,-5.2164,-5.2307,-5.2148,-5.1533,-5.0631,-4.971,-4.8867,-4.8118,-4.7624,-4.7381,-4.7309,-4.7309,-4.7309,-4.7106,-4.6844,-4.6683,-4.5866,-4.5018,-4.4059,-4.2999,-4.194,-4.0984,-4.0377,-3.9981,-5.1214,-5.1214,-5.1214,-5.1214,-5.1214,-5.1214,-5.1214,-5.1214,-5.1214,-5.1214,-5.112,-5.1011,-5.1011,-5.0932,-5.0947,-5.1011,-5.112,-5.1214,-5.1214,-5.1214,-5.1214,-5.1214,-5.1214,-5.1214,-5.1214,-5.1214,-5.1214,-5.1214,-5.1214,-5.1214,-5.1214,-5.1214,-5.1214,-5.1214,-5.1214,-5.1214,-5.1214,-5.1214,-5.1214,-5.1214,-5.2215,-5.2738,-5.2978,-5.4067,-5.4503,-5.4374,-5.4245,-5.2071,-4.8573,-4.7643,-4.7276,-4.7309,-4.7309,-4.7309,-4.7309,-4.7309,-4.7309,-4.7309,-4.7309,-4.7309,-4.7309,-4.7309,-4.7309,-4.7309,-4.7309,-4.7309,-4.7309,-4.7309,-4.7309,-4.7309,-4.7309,-4.7309,-4.7309,-4.7309,-4.7309,-4.7309,-4.7309,-4.7309,-4.7309,-4.7309,-4.7309,-4.7381,-4.7724,-4.8355,-4.9066,-5.0042,-5.1086,-5.1858,-5.2269,-5.2252,-5.1842,-5.1161,-5.0182,-4.9259,-4.8537,-4.7949,-4.7538,-4.7294,-4.7309,-4.7309,-4.7309,-4.6946,-4.6668,-4.6403,-4.5413,-4.4476,-4.36,-4.2431,-4.1458,-4.0694,-4.0083,-3.9788,-5.1214,-5.1214,-5.1214,-5.1214,-5.1214,-5.1214,-5.1214,-5.1214,-5.1214,-5.1214,-5.1214,-5.1214,-5.1214,-5.1214,-5.1214,-5.1214,-5.1214,-5.1214,-5.1214,-5.1214,-5.1214,-5.1214,-5.1214,-5.1214,-5.1214,-5.1214,-5.1214,-5.1214,-5.1214,-5.1214,-5.1214,-5.1214,-5.1214,-5.1214,-5.1214,-5.1214,-5.1214,-5.1214,-5.1214,-5.1214,-5.217,-5.2615,-5.2601,-5.393,-5.4793,-5.5341,-5.4679,-5.2204,-4.8538,-4.7691,-4.7302,-4.7309,-4.7309,-4.7309,-4.7309,-4.7309,-4.7309,-4.7309,-4.7309,-4.7309,-4.7309,-4.7309,-4.7309,-4.7309,-4.7309,-4.7309,-4.7309,-4.7309,-4.7309,-4.7309,-4.7309,-4.7309,-4.7309,-4.7309,-4.7309,-4.7309,-4.7309,-4.7309,-4.7309,-4.7309,-4.7309,-4.7467,-4.788,-4.8506,-4.9293,-5.0354,-5.1401,-5.2164,-5.2373,-5.2181,-5.1769,-5.0859,-4.9963,-4.9031,-4.8202,-4.7794,-4.7467,-4.7309,-4.7309,-4.7309,-4.7309,-4.6858,-4.6491,-4.621,-4.5032,-4.4007,-4.3218,-4.1954,-4.0984,-4.0504,-3.9993,-3.9697,-5.1214,-5.1214,-5.1214,-5.1214,-5.1214,-5.1214,-5.1214,-5.1214,-5.1214,-5.1214,-5.1214,-5.1214,-5.1214,-5.1214,-5.1214,-5.1214,-5.1214,-5.1214,-5.1214,-5.1214,-5.1214,-5.1214,-5.1214,-5.1214,-5.1214,-5.1214,-5.1214,-5.1214,-5.1214,-5.1214,-5.1214,-5.1214,-5.1214,-5.1214,-5.1214,-5.1214,-5.1214,-5.1214,-5.1214,-5.1214,-5.1926,-5.2387,-5.2673,-5.3695,-5.4612,-5.5227,-5.2673,-5.039,-4.8522,-4.7631,-4.7277,-4.7309,-4.7309,-4.7309,-4.7309,-4.7309,-4.7309,-4.7309,-4.7309,-4.7309,-4.7309,-4.7309,-4.7309,-4.7309,-4.7309,-4.7309,-4.7309,-4.7309,-4.7309,-4.7309,-4.7309,-4.7309,-4.7309,-4.7309,-4.7309,-4.7309,-4.7309,-4.7309,-4.7309,-4.7309,-4.7309,-4.7467,-4.788,-4.8671,-4.9454,-5.0354,-5.1492,-5.2324,-5.2373,-5.234,-5.1931,-5.0951,-5.0042,-4.9031,-4.7794,-4.7467,-4.7309,-4.7309,-4.7309,-4.7309,-4.7309,-4.7019,-4.6653,-4.621,-4.5201,-4.4167,-4.3218,-4.1954,-4.0984,-4.0504,-3.9993,-3.9697,-5.1214,-5.1214,-5.1214,-5.1214,-5.1214,-5.1214,-5.1214,-5.1214,-5.1214,-5.1214,-5.1214,-5.1214,-5.1214,-5.1214,-5.1214,-5.1214,-5.1214,-5.1214,-5.1214,-5.1214,-5.1214,-5.1214,-5.1214,-5.1214,-5.1214,-5.1214,-5.1214,-5.1214,-5.1214,-5.1214,-5.1214,-5.1214,-5.1214,-5.1214,-5.1214,-5.1214,-5.1214,-5.1214,-5.1214,-5.1214,-5.1835,-5.2012,-5.1781,-5.3387,-5.4112,-5.4094,-5.2114,-5.0516,-4.9303,-4.7882,-4.7337,-4.7309,-4.7309,-4.7309,-4.7309,-4.7309,-4.7309,-4.7309,-4.7309,-4.7309,-4.7309,-4.7309,-4.7309,-4.7309,-4.7309,-4.7309,-4.7309,-4.7309,-4.7309,-4.7309,-4.7309,-4.7309,-4.7309,-4.7309,-4.7309,-4.7309,-4.7309,-4.7309,-4.7309,-4.7309,-4.7381,-4.7639,-4.8133,-4.8852,-4.9725,-5.057,-5.1639,-5.2324,-5.2373,-5.234,-5.1931,-5.0951,-4.963,-4.8453,-4.7624,-4.7396,-4.7309,-4.7309,-4.7309,-4.7309,-4.7309,-4.7019,-4.6653,-4.621,-4.5398,-4.4355,-4.3218,-4.2065,-4.1198,-4.0504,-3.9993,-3.9697,-5.1214,-5.1214,-5.1214,-5.1214,-5.1214,-5.1214,-5.1214,-5.1214,-5.1214,-5.1214,-5.1214,-5.1214,-5.1214,-5.1214,-5.1214,-5.1214,-5.1214,-5.1214,-5.1214,-5.1214,-5.1214,-5.1214,-5.1214,-5.1214,-5.1214,-5.1214,-5.1214,-5.1214,-5.1214,-5.1214,-5.1214,-5.1214,-5.1214,-5.1214,-5.1169,-5.1233,-5.1233,-5.1188,-5.1188,-5.1233,-5.1652,-5.168,-5.1287,-5.3515,-5.4001,-5.3052,-5.1749,-5.0516,-4.9334,-4.7912,-4.7252,-4.7309,-4.7309,-4.7309,-4.7309,-4.7309,-4.7309,-4.7309,-4.7309,-4.7309,-4.7309,-4.7309,-4.7309,-4.7309,-4.7309,-4.7309,-4.7309,-4.7309,-4.7309,-4.7309,-4.7309,-4.7309,-4.7309,-4.7309,-4.7309,-4.7309,-4.7309,-4.7309,-4.7309,-4.7381,-4.7553,-4.788,-4.837,-4.9178,-5.0042,-5.0876,-5.1769,-5.2466,-5.257,-5.2553,-5.2076,-5.1027,-4.955,-4.8537,-4.8034,-4.7624,-4.7381,-4.7381,-4.7309,-4.7309,-4.7309,-4.7121,-4.6844,-4.6314,-4.558,-4.4648,-4.3314,-4.2275,-4.1298,-4.0504,-3.9993,-3.9697,-5.1214,-5.1214,-5.1214,-5.1214,-5.1214,-5.1214,-5.1214,-5.1214,-5.1214,-5.1214,-5.1214,-5.1214,-5.1214,-5.1214,-5.1214,-5.1214,-5.1214,-5.1214,-5.1214,-5.1214,-5.1214,-5.1214,-5.1214,-5.1214,-5.1214,-5.1214,-5.1214,-5.1214,-5.1214,-5.1214,-5.1214,-5.1214,-5.1214,-5.1214,-5.1236,-5.1161,-5.1161,-5.121,-5.121,-5.1161,-5.1228,-5.1212,-5.1294,-5.4143,-5.4308,-5.2349,-5.1572,-5.0168,-4.8522,-4.7699,-4.7262,-4.7309,-4.7309,-4.7309,-4.7309,-4.7309,-4.7309,-4.7309,-4.7309,-4.7309,-4.7309,-4.7309,-4.7309,-4.7309,-4.7309,-4.7309,-4.7309,-4.7309,-4.7309,-4.7309,-4.7309,-4.7309,-4.7309,-4.7309,-4.7309,-4.7309,-4.7309,-4.7309,-4.7381,-4.7538,-4.7794,-4.8202,-4.8785,-4.9646,-5.0493,-5.1311,-5.2059,-5.2677,-5.2903,-5.2903,-5.2449,-5.1268,-5.0198,-4.9437,-4.8934,-4.8118,-4.7624,-4.7624,-4.7381,-4.7309,-4.7309,-4.7309,-4.7033,-4.6594,-4.5866,-4.4833,-4.36,-4.236,-4.1298,-4.0504,-3.9993,-3.9697,-5.1214,-5.1214,-5.1214,-5.1214,-5.1214,-5.1214,-5.1214,-5.1214,-5.1214,-5.1214,-5.1214,-5.1214,-5.1214,-5.1214,-5.1214,-5.1214,-5.1214,-5.1214,-5.1214,-5.1214,-5.1214,-5.1214,-5.1214,-5.1214,-5.1214,-5.1214,-5.1214,-5.1214,-5.1214,-5.1214,-5.1214,-5.1214,-5.1214,-5.1214,-5.1236,-5.1359,-5.177,-5.1727,-5.1529,-5.1161,-5.1228,-5.1561,-5.2329,-5.3814,-5.3385,-5.1543,-5.0642,-4.9674,-4.8543,-4.7643,-4.7276,-4.7309,-4.7309,-4.7309,-4.7309,-4.7309,-4.7309,-4.7309,-4.7309,-4.7309,-4.7309,-4.7309,-4.7309,-4.7309,-4.7309,-4.7309,-4.7309,-4.7309,-4.7309,-4.7309,-4.7309,-4.7309,-4.7309,-4.7309,-4.7309,-4.7309,-4.7309,-4.7381,-4.7553,-4.7794,-4.8286,-4.8852,-4.9486,-5.026,-5.1027,-5.1696,-5.2378,-5.2886,-5.311,-5.259,-5.1987,-5.1401,-5.0416,-4.9566,-4.8934,-4.8286,-4.7794,-4.7639,-4.7381,-4.7309,-4.7309,-4.7309,-4.7033,-4.6594,-4.6031,-4.5003,-4.36,-4.2431,-4.1471,-4.0504,-3.9993,-3.9697,-5.1214,-5.1214,-5.1214,-5.1214,-5.1214,-5.1214,-5.1214,-5.1214,-5.1214,-5.1214,-5.1214,-5.1214,-5.1214,-5.1214,-5.1214,-5.1214,-5.1214,-5.1214,-5.1214,-5.1214,-5.1214,-5.1214,-5.1214,-5.1214,-5.1214,-5.1214,-5.1214,-5.1214,-5.1214,-5.1214,-5.1214,-5.1214,-5.1184,-5.1218,-5.1161,-5.1331,-5.1636,-5.2124,-5.2078,-5.1803,-5.141,-5.1728,-5.276,-5.3326,-5.234,-5.0133,-4.9238,-4.8537,-4.8057,-4.7538,-4.7309,-4.7309,-4.7309,-4.7309,-4.7309,-4.7309,-4.7309,-4.7309,-4.7309,-4.7309,-4.7309,-4.7309,-4.7309,-4.7309,-4.7309,-4.7309,-4.7309,-4.7309,-4.7309,-4.7309,-4.7309,-4.7309,-4.7309,-4.7309,-4.7381,-4.7381,-4.7381,-4.7639,-4.7964,-4.8286,-4.8852,-4.9566,-5.026,-5.0951,-5.1623,-5.2291,-5.2817,-5.3195,-5.3264,-5.2817,-5.2291,-5.1915,-5.1086,-5.0167,-4.9486,-4.8687,-4.8133,-4.7794,-4.7467,-4.7309,-4.7309,-4.7309,-4.7033,-4.6594,-4.6031,-4.5003,-4.36,-4.2444,-4.1372,-4.0504,-3.9993,-3.9697,-5.1214,-5.1214,-5.1214,-5.1214,-5.1214,-5.1214,-5.1214,-5.1214,-5.1214,-5.1214,-5.1214,-5.1214,-5.1214,-5.1214,-5.1214,-5.1214,-5.1214,-5.1214,-5.1214,-5.1214,-5.1214,-5.1214,-5.1214,-5.1214,-5.1214,-5.1214,-5.1214,-5.1214,-5.1214,-5.1214,-5.1214,-5.1214,-5.1233,-5.1161,-5.1271,-5.1334,-5.1349,-5.2228,-5.2687,-5.2688,-5.1653,-5.1683,-5.2581,-5.2676,-5.118,-4.8475,-4.7643,-4.7322,-4.7317,-4.7336,-4.7309,-4.7309,-4.7309,-4.7309,-4.7309,-4.7309,-4.7354,-4.7414,-4.7399,-4.7429,-4.7489,-4.7489,-4.7489,-4.7489,-4.7489,-4.7489,-4.7474,-4.7414,-4.7399,-4.7384,-4.7324,-4.7309,-4.7309,-4.7381,-4.7553,-4.7624,-4.7709,-4.8034,-4.8537,-4.8934,-4.9566,-5.026,-5.1027,-5.1696,-5.2291,-5.2834,-5.328,-5.3501,-5.3501,-5.3332,-5.3041,-5.2661,-5.1915,-5.1086,-5.0276,-4.9244,-4.8453,-4.8049,-4.7553,-4.7309,-4.7309,-4.7309,-4.7033,-4.6594,-4.5866,-4.4833,-4.3505,-4.2262,-4.1298,-4.0402,-3.989,-3.9697,-5.1214,-5.1214,-5.1214,-5.1214,-5.1214,-5.1214,-5.1214,-5.1214,-5.1214,-5.1214,-5.1214,-5.1214,-5.1214,-5.1214,-5.1214,-5.1214,-5.1214,-5.1214,-5.1214,-5.1214,-5.1214,-5.1214,-5.1214,-5.1214,-5.1214,-5.1214,-5.1214,-5.1214,-5.1214,-5.1214,-5.1214,-5.1214,-5.1233,-5.1161,-5.1955,-5.2429,-5.2352,-5.2625,-5.2688,-5.2688,-5.1683,-5.1288,-5.1516,-5.2383,-5.0867,-4.7593,-4.7372,-4.7302,-4.7264,-4.7294,-4.7309,-4.7309,-4.7309,-4.7309,-4.7309,-4.7309,-4.7683,-4.8295,-4.8102,-4.8416,-4.885,-4.885,-4.885,-4.885,-4.885,-4.885,-4.8745,-4.8222,-4.8072,-4.804,-4.7602,-4.7553,-4.7639,-4.7964,-4.7964,-4.7964,-4.8286,-4.8867,-4.9421,-4.9805,-5.057,-5.1236,-5.1696,-5.2307,-5.2834,-5.328,-5.3433,-5.3501,-5.3501,-5.3332,-5.3041,-5.2661,-5.2004,-5.1252,-5.0276,-4.939,-4.8589,-4.8049,-4.7553,-4.7309,-4.7309,-4.7121,-4.6756,-4.6314,-4.537,-4.4233,-4.2985,-4.194,-4.0971,-4.0185,-3.989,-3.9697,-5.1214,-5.1214,-5.1214,-5.1214,-5.1214,-5.1214,-5.1214,-5.1214,-5.1214,-5.1214,-5.1214,-5.1214,-5.1214,-5.1214,-5.1214,-5.1214,-5.1214,-5.1214,-5.1214,-5.1214,-5.1214,-5.1214,-5.1214,-5.1214,-5.1214,-5.1214,-5.1214,-5.1214,-5.1214,-5.1214,-5.1214,-5.1214,-5.1203,-5.1163,-5.2138,-5.2673,-5.2731,-5.2702,-5.2474,-5.1987,-5.1424,-5.0517,-4.9389,-4.988,-4.9092,-4.7287,-4.7261,-4.7321,-4.7309,-4.7309,-4.7309,-4.7309,-4.7309,-4.7534,-4.795,-4.795,-4.837,-4.8925,-4.8775,-4.8985,-4.9269,-4.9269,-4.9269,-4.9269,-4.9269,-4.9269,-4.9194,-4.885,-4.8536,-4.8295,-4.8109,-4.7951,-4.7949,-4.8589,-4.8604,-4.8537,-4.8934,-4.9661,-5.026,-5.0723,-5.1327,-5.1931,-5.2362,-5.2834,-5.328,-5.3433,-5.3501,-5.3501,-5.3501,-5.3416,-5.3195,-5.2886,-5.2378,-5.1639,-5.0723,-4.9694,-4.8821,-4.8202,-4.7639,-4.7309,-4.7309,-4.6946,-4.6476,-4.6016,-4.4975,-4.3829,-4.2598,-4.1558,-4.0769,-4.007,-3.9788,-3.9697,-5.1214,-5.1214,-5.1214,-5.1214,-5.1214,-5.1214,-5.1214,-5.1214,-5.1214,-5.1214,-5.1214,-5.1214,-5.1214,-5.1214,-5.1214,-5.1214,-5.1214,-5.1214,-5.1214,-5.1214,-5.1214,-5.1214,-5.1214,-5.1214,-5.1214,-5.1214,-5.1214,-5.1214,-5.1214,-5.1214,-5.1214,-5.1214,-5.1188,-5.1195,-5.2138,-5.2688,-5.27,-5.2733,-5.22,-5.1165,-5.0728,-4.9374,-4.7259,-4.7271,-4.7267,-4.7317,-4.7336,-4.7309,-4.7309,-4.7309,-4.7414,-4.7665,-4.7534,-4.804,-4.8685,-4.8685,-4.9044,-4.9434,-4.9434,-4.9508,-4.9598,-4.9598,-4.9598,-4.9598,-4.9598,-4.9598,-4.9568,-4.9464,-4.9059,-4.8505,-4.8648,-4.8465,-4.8438,-4.9228,-4.939,-4.9405,-4.9821,-5.0493,-5.1086,-5.1549,-5.2076,-5.2607,-5.2903,-5.328,-5.3501,-5.3501,-5.3501,-5.3501,-5.3501,-5.3501,-5.3416,-5.3247,-5.2677,-5.1931,-5.1194,-4.9931,-4.8903,-4.837,-4.7639,-4.7309,-4.7309,-4.6858,-4.6314,-4.5747,-4.4698,-4.3559,-4.2319,-4.1272,-4.0593,-4.0083,-3.9788,-3.9697,-5.1214,-5.1214,-5.1214,-5.1214,-5.1214,-5.1214,-5.1214,-5.1214,-5.1214,-5.1214,-5.1214,-5.1214,-5.1214,-5.1214,-5.1214,-5.1214,-5.1214,-5.1214,-5.1214,-5.1214,-5.1214,-5.1214,-5.1214,-5.1214,-5.1214,-5.1214,-5.1214,-5.1214,-5.1214,-5.1214,-5.1214,-5.1214,-5.1233,-5.1239,-5.2183,-5.2703,-5.2734,-5.2673,-5.2167,-5.1208,-4.8862,-4.7644,-4.7347,-4.727,-4.7309,-4.7279,-4.7294,-4.7309,-4.7309,-4.7309,-4.8007,-4.8995,-4.8578,-4.8745,-4.9254,-4.9254,-4.9568,-5.0107,-5.0107,-5.0481,-5.096,-5.096,-5.096,-5.096,-5.096,-5.096,-5.084,-5.0272,-4.9719,-4.943,-4.9276,-4.9097,-4.9228,-5.012,-5.0723,-5.1086,-5.1161,-5.1533,-5.1987,-5.2362,-5.2817,-5.311,-5.3348,-5.3433,-5.3501,-5.3501,-5.3501,-5.3501,-5.3501,-5.3501,-5.3416,-5.3247,-5.2677,-5.1931,-5.1194,-4.9931,-4.8903,-4.837,-4.7639,-4.7309,-4.7309,-4.6858,-4.6239,-4.558,-4.4355,-4.3026,-4.1782,-4.0997,-4.03,-3.9788,-3.9697,-3.9697,-5.1214,-5.1214,-5.1214,-5.1214,-5.1214,-5.1214,-5.1214,-5.1214,-5.1214,-5.1214,-5.1214,-5.1214,-5.1214,-5.1214,-5.1214,-5.1214,-5.1214,-5.1214,-5.1214,-5.1214,-5.1214,-5.1214,-5.1214,-5.1214,-5.1214,-5.1214,-5.1214,-5.1214,-5.1214,-5.1214,-5.1214,-5.1214,-5.1233,-5.1161,-5.1602,-5.1863,-5.1819,-5.1863,-5.1682,-5.1182,-4.8581,-4.7303,-4.7299,-4.7267,-4.7309,-4.7309,-4.7309,-4.7309,-4.7354,-4.8113,-4.8814,-4.9325,-4.9074,-4.9284,-4.9808,-4.9808,-5.0227,-5.0795,-5.0795,-5.0975,-5.1214,-5.1214,-5.1214,-5.1214,-5.1214,-5.1214,-5.1154,-5.1056,-5.0668,-5.0363,-5.0202,-5.0154,-5.0262,-5.088,-5.1401,-5.1842,-5.2291,-5.2449,-5.259,-5.3041,-5.3264,-5.3416,-5.3501,-5.3501,-5.3501,-5.3501,-5.3501,-5.3501,-5.3501,-5.3501,-5.3433,-5.3348,-5.2817,-5.2148,-5.1492,-5.0322,-4.9228,-4.8537,-4.788,-4.7381,-4.7294,-4.6946,-4.6388,-4.5671,-4.4355,-4.2929,-4.1696,-4.0896,-4.0198,-3.9697,-3.9697,-3.9697,-5.1214,-5.1214,-5.1214,-5.1214,-5.1214,-5.1214,-5.1214,-5.1214,-5.1214,-5.1214,-5.1214,-5.1214,-5.1214,-5.1214,-5.1214,-5.1214,-5.1214,-5.1214,-5.1214,-5.1214,-5.1214,-5.1214,-5.1214,-5.1214,-5.1214,-5.1214,-5.1214,-5.1214,-5.1214,-5.1214,-5.1214,-5.1214,-5.1169,-5.1221,-5.1221,-5.1176,-5.1163,-5.1193,-5.0832,-5.0155,-4.8194,-4.7301,-4.7309,-4.7309,-4.7309,-4.7309,-4.7309,-4.7309,-4.7384,-4.8711,-4.94,-4.9447,-4.9479,-4.9912,-5.0481,-5.0481,-5.0795,-5.1214,-5.1214,-5.1214,-5.1214,-5.1214,-5.1214,-5.1214,-5.1214,-5.1214,-5.1401,-5.1602,-5.1471,-5.1233,-5.1134,-5.1269,-5.1357,-5.1564,-5.1987,-5.2433,-5.311,-5.311,-5.3127,-5.3433,-5.3501,-5.3501,-5.3501,-5.3501,-5.3501,-5.3501,-5.3501,-5.3501,-5.3501,-5.3501,-5.3501,-5.3501,-5.2972,-5.2362,-5.1786,-5.057,-4.9566,-4.8702,-4.7964,-4.7553,-4.7309,-4.7019,-4.6565,-4.5927,-4.462,-4.33,-4.1881,-4.1198,-4.0504,-3.9788,-3.9788,-3.9876,-5.1214,-5.1214,-5.1214,-5.1214,-5.1214,-5.1214,-5.1214,-5.1214,-5.1214,-5.1214,-5.1214,-5.1214,-5.1214,-5.1214,-5.1214,-5.1214,-5.1214,-5.1214,-5.1214,-5.1214,-5.1214,-5.1214,-5.1214,-5.1214,-5.1214,-5.1214,-5.1214,-5.1214,-5.1214,-5.1214,-5.1214,-5.1214,-5.1214,-5.1199,-5.1199,-5.1199,-5.1199,-5.1239,-4.9957,-4.7494,-4.7333,-4.7301,-4.7309,-4.7309,-4.7309,-4.7309,-4.7309,-4.7309,-4.7384,-4.8711,-4.9507,-4.99,-5.0124,-5.0586,-5.1169,-5.1169,-5.1184,-5.1214,-5.1214,-5.1214,-5.1214,-5.1214,-5.1214,-5.1214,-5.1214,-5.1401,-5.168,-5.1895,-5.1922,-5.1918,-5.1879,-5.214,-5.2372,-5.2257,-5.2747,-5.3179,-5.3179,-5.3348,-5.3501,-5.3518,-5.3501,-5.3501,-5.3501,-5.3501,-5.3501,-5.3501,-5.3501,-5.3501,-5.3501,-5.3501,-5.3501,-5.3501,-5.2972,-5.2362,-5.1786,-5.057,-4.9566,-4.8702,-4.7964,-4.7553,-4.7309,-4.7019,-4.6653,-4.621,-4.5461,-4.4125,-4.2319,-4.1868,-4.1084,-4.007,-4.007,-4.0272,-5.1214,-5.1214,-5.1214,-5.1214,-5.1214,-5.1214,-5.1214,-5.1214,-5.1214,-5.1214,-5.1214,-5.1214,-5.1214,-5.1214,-5.1214,-5.1214,-5.1214,-5.1214,-5.1214,-5.1214,-5.1214,-5.1214,-5.1214,-5.1214,-5.1214,-5.1214,-5.1214,-5.1214,-5.1214,-5.1214,-5.1214,-5.1214,-5.1214,-5.1214,-5.1214,-5.1233,-5.1161,-5.1243,-4.99,-4.7318,-4.7316,-4.7312,-4.7309,-4.7309,-4.7309,-4.7309,-4.7309,-4.823,-4.9755,-4.9462,-4.99,-5.0697,-5.0828,-5.1005,-5.1214,-5.1214,-5.1214,-5.1214,-5.1214,-5.1214,-5.1214,-5.1214,-5.1214,-5.1214,-5.1401,-5.1572,-5.1941,-5.2487,-5.2927,-5.3332,-5.3437,-5.3558,-5.3444,-5.2961,-5.3127,-5.3416,-5.3416,-5.3433,-5.3501,-5.3501,-5.3501,-5.3501,-5.3501,-5.3501,-5.3501,-5.3501,-5.3501,-5.3501,-5.3501,-5.3501,-5.3501,-5.3501,-5.3058,-5.252,-5.1915,-5.0876,-4.9884,-4.8821,-4.8187,-4.7724,-4.7309,-4.7207,-4.7019,-4.6653,-4.6299,-4.5081,-4.3204,-4.2528,-4.1842,-4.1414,-4.1029,-4.1037,-5.1214,-5.1214,-5.1214,-5.1214,-5.1214,-5.1214,-5.1214,-5.1214,-5.1214,-5.1214,-5.1214,-5.1214,-5.1214,-5.1214,-5.1214,-5.1214,-5.1214,-5.1214,-5.1214,-5.1214,-5.1214,-5.1214,-5.1214,-5.1214,-5.1214,-5.1214,-5.1214,-5.1214,-5.1214,-5.1214,-5.1214,-5.1214,-5.1214,-5.1214,-5.1214,-5.1188,-5.1195,-5.0291,-4.9059,-4.7259,-4.7255,-4.7309,-4.7309,-4.7309,-4.7309,-4.7309,-4.7309,-4.8483,-5.0284,-4.9779,-5.0065,-5.0861,-5.1158,-5.1214,-5.1214,-5.1214,-5.1214,-5.1214,-5.1214,-5.1214,-5.1214,-5.1214,-5.1214,-5.1401,-5.168,-5.1941,-5.2382,-5.317,-5.3868,-5.4473,-5.4646,-5.4481,-5.4067,-5.3413,-5.3416,-5.3501,-5.3501,-5.3501,-5.3501,-5.3501,-5.3501,-5.3501,-5.3501,-5.3501,-5.3501,-5.3501,-5.3501,-5.3501,-5.3501,-5.3501,-5.3501,-5.3501,-5.3127,-5.2677,-5.2059,-5.1102,-5.0026,-4.8969,-4.8355,-4.7794,-4.7309,-4.7309,-4.7207,-4.6916,-4.6978,-4.6337,-4.4837,-4.3876,-4.3098,-4.2515,-4.2125,-4.2136,0.0,0.0,0.0,-5.1214,-5.1214,-5.1214,-5.1214,-5.1214,-5.1214,-5.1214,-5.1214,-5.1214,-5.1214,-5.1214,-5.1214,-5.1214,-5.1214,-5.1214,-5.1214,-5.1214,-5.1214,-5.1214,-5.1214,-5.1214,-5.1214,-5.1214,-5.1214,-5.1214,-5.1214,-5.1214,-5.1214,-5.1214,-5.1214,-5.1214,-5.1214,-5.1173,-5.118,-4.8639,-4.7347,-4.7332,-4.7342,-4.7309,-4.7309,-4.7309,-4.7309,-4.7309,-4.7309,-4.7845,-4.8728,-4.9584,-5.005,-5.0331,-5.0975,-5.1214,-5.1214,-5.1214,-5.1214,-5.1214,-5.1214,-5.1214,-5.1214,-5.1214,-5.1401,-5.1665,-5.1849,-5.2472,-5.3186,-5.3868,-5.4717,-5.541,-5.5292,-5.4805,-5.4224,-5.3619,-5.3501,-5.3501,-5.3501,-5.3501,-5.3501,-5.3501,-5.3501,-5.3501,-5.3501,-5.3501,-5.3501,-5.3501,-5.3501,-5.3501,-5.3501,-5.3501,-5.3501,-5.3501,-5.3127,-5.2677,-5.2059,-5.1102,-5.0026,-4.8969,-4.8355,-4.781,-4.7309,-4.7324,-4.7237,-4.6961,-4.76,-4.7732,-4.7296,-4.5973,-4.4719,-4.3458,-4.3482,-4.335,-5.1214,0.0,0.0,0.0,0.0,0.0,-5.1214,-5.1214,-5.1214,-5.1214,-5.1214,-5.1214,-5.1214,-5.1214,-5.1214,-5.1214,-5.1214,-5.1214,-5.1214,-5.1214,-5.1214,-5.1214,-5.1214,-5.1214,-5.1214,-5.1214,-5.1214,-5.1214,-5.1214,-5.1214,-5.1214,-5.1214,-5.1214,-5.1214,-5.1214,-5.1176,-5.1152,-4.8625,-4.7348,-4.7327,-4.7339,-4.7309,-4.7309,-4.7309,-4.7309,-4.7309,-4.7309,-4.7967,-4.9164,-4.9644,-5.032,-5.096,-5.1154,-5.1214,-5.1214,-5.1214,-5.1214,-5.1214,-5.1214,-5.1214,-5.1214,-5.1401,-5.168,-5.1972,-5.2487,-5.317,-5.3868,-5.4816,-5.5572,-5.6011,-5.5529,-5.5345,-5.5021,-5.3805,-5.3551,-5.3651,-5.3651,-5.3734,-5.38,-5.3568,-5.3501,-5.3501,-5.3501,-5.3501,-5.3501,-5.3501,-5.3501,-5.3501,-5.3501,-5.3501,-5.3501,-5.3501,-5.3264,-5.2886,-5.2307,-5.1417,-5.04,-4.9213,-4.8521,-4.7964,-4.7309,-4.7758,-4.8012,-4.7909,-4.8566,-4.879,-4.8413,-4.7384,-4.6554,-4.5995,-4.5331,-4.4864,-5.121,-5.1165,-5.1214,-5.1214,0.0,0.0,-5.1214,-5.1214,-5.1214,-5.1214,-5.1214,-5.1214,-5.1214,-5.1214,-5.1214,-5.1214,-5.1214,-5.1214,-5.1214,-5.1214,-5.1214,-5.1214,-5.1214,-5.1214,-5.1214,-5.1214,-5.1214,-5.1214,-5.1214,-5.1214,-5.1214,-5.1214,-5.1214,-5.1214,-5.1214,-5.1224,-5.1212,-4.8596,-4.7303,-4.7309,-4.7309,-4.7309,-4.7309,-4.7309,-4.7309,-4.7309,-4.7309,-4.7893,-4.888,-4.9479,-5.0259,-5.1214,-5.1214,-5.1214,-5.1214,-5.1214,-5.1214,-5.1214,-5.1308,-5.1401,-5.1401,-5.1757,-5.2139,-5.2503,-5.3186,-5.3954,-5.4733,-5.5556,-5.6369,-5.672,-5.6174,-5.5866,-5.5412,-5.4279,-5.3955,-5.3832,-5.3898,-5.4093,-5.4175,-5.38,-5.3685,-5.3685,-5.3618,-5.3601,-5.3551,-5.3501,-5.3501,-5.3501,-5.3501,-5.3501,-5.3501,-5.3501,-5.3332,-5.2972,-5.2378,-5.1827,-5.0987,-4.9715,-4.9281,-4.8784,-4.8117,-4.8491,-4.8701,-4.8701,-4.9344,-4.9702,-4.9679,-4.8747,-4.8081,-4.7602,-4.6861,-4.6204,-5.122,-5.1225,-5.1214,-5.1214,-5.1214,0.0,-5.1214,-5.1214,-5.1214,-5.1214,-5.1214,-5.1214,-5.1214,-5.1214,-5.1214,-5.1214,-5.1214,-5.1214,-5.1214,-5.1214,-5.1214,-5.1214,-5.1214,-5.1214,-5.1214,-5.1214,-5.1214,-5.1214,-5.1214,-5.1214,-5.1214,-5.1214,-5.1214,-5.1214,-5.1214,-5.1239,-5.1182,-4.8611,-4.7318,-4.7267,-4.7324,-4.7309,-4.7309,-4.7309,-4.7309,-4.7309,-4.7309,-4.7683,-4.8341,-4.891,-4.9927,-5.1124,-5.1184,-5.1214,-5.1214,-5.1214,-5.1214,-5.1308,-5.1587,-5.168,-5.1757,-5.2306,-5.2742,-5.3274,-5.3954,-5.48,-5.5653,-5.6369,-5.7063,-5.7493,-5.6985,-5.6275,-5.5583,-5.4992,-5.4444,-5.4093,-5.4252,-5.4568,-5.471,-5.4286,-5.4175,-5.4045,-5.3766,-5.3766,-5.3717,-5.3568,-5.3501,-5.3501,-5.3501,-5.3568,-5.3619,-5.3619,-5.3551,-5.3207,-5.2627,-5.2441,-5.1786,-5.0516,-5.0367,-5.0041,-4.9359,-4.9344,-4.9374,-4.9374,-5.0017,-5.0538,-5.0807,-5.0055,-4.9295,-4.8539,-4.805,-4.7554,-5.0941,-5.1225,-5.1214,-5.1214,-5.1214,0.0,-5.1214,-5.1214,-5.1214,-5.1214,-5.1214,-5.1214,-5.1214,-5.1214,-5.1214,-5.1214,-5.1214,-5.1214,-5.1214,-5.1214,-5.1214,-5.1214,-5.1214,-5.1214,-5.1214,-5.1214,-5.1214,-5.1214,-5.1214,-5.1214,-5.1214,-5.1214,-5.1214,-5.1214,-5.1214,-5.1158,-5.1212,-4.8624,-4.7318,-4.7273,-4.7327,-4.7309,-4.7309,-4.7309,-4.7309,-4.7309,-4.7309,-4.7683,-4.8297,-4.8416,-4.9254,-5.0481,-5.1005,-5.1214,-5.1214,-5.1214,-5.1308,-5.1587,-5.1757,-5.2109,-5.2562,-5.3243,-5.3782,-5.4311,-5.5131,-5.5717,-5.6385,-5.7139,-5.7588,-5.7729,-5.7216,-5.6486,-5.5808,-5.5412,-5.4901,-5.4648,-5.4939,-5.5242,-5.5496,-5.5555,-5.5018,-5.446,-5.4141,-5.4124,-5.4011,-5.3717,-5.3651,-5.3601,-5.3501,-5.4008,-5.438,-5.438,-5.4852,-5.4979,-5.4372,-5.3823,-5.3029,-5.1749,-5.0971,-5.0201,-4.9613,-4.9854,-5.0047,-5.0047,-5.069,-5.1079,-5.112,-5.0544,-5.0162,-4.9781,-4.9262,-4.8767,-5.0958,-5.125,-5.1214,-5.1214,-5.1214,0.0,0.0,-5.1214,-5.1214,-5.1214,-5.1214,-5.1214,-5.1214,-5.1214,-5.1214,-5.1214,-5.1214,-5.1214,-5.1214,-5.1214,-5.1214,-5.1214,-5.1214,-5.1214,-5.1214,-5.1214,-5.1214,-5.1214,-5.1214,-5.1214,-5.1214,-5.1214,-5.1214,-5.1214,-5.1214,-5.1188,-5.1195,-4.9854,-4.8626,-4.7259,-4.7255,-4.7309,-4.7309,-4.7309,-4.7309,-4.7309,-4.7309,-4.7489,-4.7818,-4.8147,-4.8671,-4.9359,-5.0346,-5.093,-5.1214,-5.1308,-5.1587,-5.1849,-5.2291,-5.2742,-5.3346,-5.4094,-5.4701,-5.5213,-5.5957,-5.6663,-5.7289,-5.7735,-5.8099,-5.8127,-5.7533,-5.6936,-5.6383,-5.5917,-5.5496,-5.5266,-5.5636,-5.5996,-5.6292,-5.6311,-5.6017,-5.5618,-5.4905,-5.4738,-5.4568,-5.4175,-5.4239,-5.4345,-5.4144,-5.4753,-5.5158,-5.5158,-5.5497,-5.5488,-5.4878,-5.4675,-5.401,-5.2724,-5.23,-5.1827,-5.0939,-5.1183,-5.1182,-5.0906,-5.1143,-5.1214,-5.1214,-5.0947,-5.0757,-5.0442,-5.0072,-4.9781,-5.0881,-5.1187,-5.116,-5.116,-5.121,-5.1165,0.0,0.0,0.0,-5.1214,-5.1214,-5.1214,-5.1214,-5.1214,-5.1214,-5.1214,-5.1214,-5.1214,-5.1214,-5.1214,-5.1214,-5.1214,-5.1214,-5.1214,-5.1214,-5.1214,-5.1214,-5.1214,-5.1214,-5.1214,-5.1214,-5.1214,-5.1214,-5.1214,-5.1214,-5.1203,-5.1178,-5.1167,-4.9929,-4.7333,-4.7329,-4.7267,-4.7309,-4.7309,-4.7309,-4.7309,-4.7309,-4.7309,-4.7426,-4.7965,-4.8265,-4.8505,-4.9733,-5.0556,-5.1128,-5.1542,-5.1849,-5.2215,-5.292,-5.3521,-5.4195,-5.5017,-5.5604,-5.6179,-5.6757,-5.7439,-5.8027,-5.8314,-5.8494,-5.8497,-5.7945,-5.7382,-5.6808,-5.6597,-5.6124,-5.5887,-5.6366,-5.6724,-5.6917,-5.7095,-5.7253,-5.7045,-5.5963,-5.5689,-5.5461,-5.5144,-5.5331,-5.5379,-5.5077,-5.5568,-5.5919,-5.5936,-5.6055,-5.5909,-5.5369,-5.5454,-5.4995,-5.3853,-5.3825,-5.3449,-5.2562,-5.2382,-5.2033,-5.1587,-5.1308,-5.1214,-5.1214,-5.1214,-5.112,-5.0902,-5.0662,-5.0486,-5.0656,-5.116,-5.1209,-5.1209,-5.1208,-5.1205,-5.1205,0.0,-5.1214,-5.1214,0.0,-5.1214,-5.1214,0.0,0.0,-5.1214,-5.1214,-5.1214,-5.1214,-5.1214,-5.1214,-5.1214,-5.1214,-5.1214,-5.1214,-5.1214,-5.1214,-5.1214,-5.1214,-5.1214,-5.1214,-5.1214,-5.1214,-5.1214,-5.1214,-5.1199,-5.1169,-5.1193,-4.9853,-4.7346,-4.7259,-4.7271,-4.7309,-4.7309,-4.7309,-4.7309,-4.7309,-4.7381,-4.7553,-4.7628,-4.8192,-4.9046,-4.9824,-5.0378,-5.0773,-5.1545,-5.2291,-5.3009,-5.3695,-5.4465,-5.5328,-5.6053,-5.6741,-5.7422,-5.7662,-5.8116,-5.8473,-5.8806,-5.858,-5.8227,-5.8561,-5.7604,-5.6666,-5.7131,-5.6809,-5.651,-5.6966,-5.7239,-5.7556,-5.8414,-5.856,-5.829,-5.742,-5.7157,-5.7099,-5.7166,-5.6982,-5.6581,-5.6115,-5.6541,-5.6894,-5.6681,-5.7256,-5.7572,-5.7335,-5.6804,-5.6315,-5.573,-5.4835,-5.4055,-5.3593,-5.2547,-5.1849,-5.1572,-5.1308,-5.1214,-5.1214,-5.1214,-5.1214,-5.112,-5.112,-5.1026,-4.895,-4.9421,-4.9592,-5.0145,-5.0287,-5.052,-5.1051,-5.1225,-5.1214,-5.1214,0.0,0.0,0.0,0.0,0.0,0.0,-5.1214,-5.1214,-5.1214,-5.1214,-5.1214,-5.1214,-5.1214,-5.1214,-5.1214,-5.1214,-5.1214,-5.1214,-5.1214,-5.1214,-5.1214,-5.1214,-5.1214,-5.1214,-5.1214,-5.1214,-5.1214,-5.1239,-5.032,-4.8402,-4.7689,-4.7301,-4.7309,-4.7309,-4.7309,-4.7309,-4.7309,-4.7381,-4.7624,-4.7624,-4.7961,-4.8667,-4.9509,-5.0117,-5.0512,-5.1111,-5.1729,-5.2486,-5.3238,-5.4067,-5.4825,-5.5738,-5.6326,-5.6701,-5.7036,-5.7364,-5.7702,-5.8016,-5.8206,-5.8211,-5.8036,-5.7726,-5.7402,-5.7298,-5.7149,-5.712,-5.7486,-5.7966,-5.8452,-5.8944,-5.9383,-5.9743,-5.9774,-5.9096,-5.8461,-5.8249,-5.8008,-5.7751,-5.7258,-5.7533,-5.7658,-5.7425,-5.7712,-5.7808,-5.7588,-5.7289,-5.6834,-5.643,-5.5361,-5.4533,-5.4125,-5.3274,-5.2652,-5.2397,-5.2033,-5.1849,-5.1849,-5.1572,-5.1401,-5.1401,-5.1308,-5.112,-4.7391,-4.7867,-4.8325,-4.9444,-4.9741,-4.9963,-5.0986,-5.116,-5.1214,-5.1214,-5.1214,0.0,0.0,0.0,-5.1214,-5.1214,0.0,-5.1214,-5.1214,-5.1214,-5.1214,-5.1214,-5.1214,-5.1214,-5.1214,-5.1214,-5.1214,-5.1214,-5.1214,-5.1214,-5.1214,-5.1214,-5.1214,-5.1214,-5.1214,-5.1214,-5.1214,-5.1206,-5.071,-4.9764,-4.8149,-4.7377,-4.7563,-4.7384,-4.7309,-4.7309,-4.7309,-4.7467,-4.7709,-4.7794,-4.8118,-4.8749,-4.9409,-5.0071,-5.0552,-5.1078,-5.169,-5.2428,-5.3177,-5.3967,-5.4749,-5.5629,-5.6047,-5.6252,-5.6621,-5.6997,-5.73,-5.7702,-5.8025,-5.8203,-5.7836,-5.7819,-5.7843,-5.7434,-5.7455,-5.7601,-5.7792,-5.8498,-5.9139,-5.9454,-6.0181,-6.094,-6.1647,-6.0744,-5.9799,-5.9558,-5.9342,-5.8986,-5.847,-5.8393,-5.8243,-5.8044,-5.7954,-5.7808,-5.7662,-5.7514,-5.7214,-5.6757,-5.5845,-5.5115,-5.4581,-5.3985,-5.3537,-5.3186,-5.2742,-5.2472,-5.2397,-5.1941,-5.1665,-5.1587,-5.1308,-5.1214,-4.6209,-4.7342,-4.8345,-4.9378,-4.9678,-4.9955,-5.0988,-5.125,-5.1214,-5.1214,-5.1214,-5.1214,-5.1214,-5.1214,-5.1214,-5.1214,-5.1214,0.0,0.0,-5.1214,-5.1214,-5.1214,-5.1214,-5.1214,-5.1214,-5.1214,-5.1214,-5.1214,-5.1214,-5.1214,-5.1214,-5.1214,-5.1214,-5.1214,-5.1214,-5.1214,-5.1214,-5.1214,-5.1158,-5.112,-4.8489,-4.7614,-4.8237,-4.7593,-4.7309,-4.7309,-4.7309,-4.7553,-4.7964,-4.8218,-4.8785,-4.9597,-4.9788,-5.0418,-5.1194,-5.1853,-5.2669,-5.3551,-5.3984,-5.4822,-5.5716,-5.632,-5.6555,-5.6785,-5.7219,-5.7578,-5.7988,-5.8556,-5.8319,-5.8034,-5.8453,-5.7974,-5.7473,-5.7697,-5.7792,-5.7857,-5.795,-5.8639,-5.9446,-6.0217,-6.1006,-6.1814,-6.264,-6.1857,-6.1256,-6.1587,-6.1086,-6.0503,-5.9809,-5.9097,-5.858,-5.826,-5.8044,-5.7881,-5.7881,-5.7735,-5.7364,-5.6757,-5.6447,-5.599,-5.5113,-5.4581,-5.4125,-5.3679,-5.3186,-5.2846,-5.2667,-5.2124,-5.1757,-5.1587,-5.1308,-5.1214,0.0,0.0,-4.6277,-4.8201,-4.9209,-4.9941,-5.0964,-5.1232,-5.1229,-5.1229,-5.1229,-5.12,-5.119,-5.116,-5.1225,-5.1229,-5.1214,-5.1214,0.0,-5.1214,-5.1214,-5.1214,-5.1214,-5.1214,-5.1214,-5.1214,-5.1214,-5.1214,-5.1214,-5.1214,-5.1214,-5.1214,-5.1214,-5.1214,-5.1214,-5.1214,-5.1214,-5.1214,-5.1173,-5.118,-4.9133,-4.8224,-4.8267,-4.7608,-4.7309,-4.7309,-4.7467,-4.7794,-4.8202,-4.8537,-4.9178,-5.0042,-5.0509,-5.1102,-5.1672,-5.1712,-5.2193,-5.3019,-5.3833,-5.4465,-5.5012,-5.549,-5.5723,-5.5933,-5.6528,-5.6798,-5.7079,-5.7603,-5.7735,-5.7738,-5.8002,-5.7946,-5.7792,-5.7904,-5.795,-5.795,-5.7997,-5.9061,-6.007,-6.0346,-6.1484,-6.2493,-6.2768,-6.2485,-6.219,-6.2023,-6.1469,-6.0807,-6.0244,-5.9551,-5.8944,-5.858,-5.8243,-5.8116,-5.8116,-5.7881,-5.7662,-5.7289,-5.7139,-5.6757,-5.6211,-5.5861,-5.5442,-5.5033,-5.4449,-5.3954,-5.364,-5.2652,-5.2048,-5.188,-5.1416,-5.1214,-4.4338,-4.4689,0.0,-4.7046,-4.8302,-4.9366,-5.045,-5.0725,-5.0684,-5.0692,-5.0663,-5.07,-5.0683,-5.0991,-5.119,-5.1244,-5.1214,-5.1214,0.0,-5.1214,-5.1214,-5.1214,-5.1214,-5.1214,-5.1214,-5.1214,-5.1214,-5.1214,-5.1214,-5.1214,-5.1214,-5.1214,-5.1214,-5.1214,-5.1214,-5.1214,-5.1214,-5.1214,-5.1233,-5.1224,-4.9433,-4.8686,-4.8685,-4.7785,-4.7467,-4.7553,-4.7794,-4.8118,-4.8537,-4.9081,-4.9789,-5.0647,-5.1177,-5.1842,-5.2416,-5.2059,-5.2487,-5.3264,-5.4141,-5.4586,-5.4896,-5.5402,-5.5676,-5.5904,-5.6474,-5.6688,-5.6897,-5.7289,-5.7553,-5.7697,-5.7857,-5.795,-5.7997,-5.7997,-5.7997,-5.7997,-5.7997,-5.9263,-6.0401,-6.0401,-6.1704,-6.2805,-6.2805,-6.2805,-6.2723,-6.2397,-6.1878,-6.1297,-6.0782,-6.0054,-5.9401,-5.9046,-5.8597,-5.826,-5.8116,-5.7954,-5.7808,-5.7588,-5.7514,-5.7214,-5.6834,-5.6586,-5.6257,-5.5814,-5.5131,-5.4465,-5.3985,-5.2831,-5.2139,-5.188,-5.1416,-5.1214]}]]